     2              OBSERVATION DATA                        RINEX VERSION / TYPE
DAT2RIN 1.01d Dan Johnson 16SEP96 4:01:40 GMT               PGM / RUN BY / DATE
Mojave '96 team Central Washington U                        OBSERVER / AGENCY
15468 TRIMBLE 4000SSI Nav 7.09 Sig 3.03                     REC # / TYPE / VERS
63792 TRIMBLE CHOKE                                         ANT # / TYPE
SIBE                                                        MARKER NAME
 -2304715.0000 -4722106.0000  3603850.0000                  APPROX POSITION XYZ
        0.0814        0.0000        0.0000                  ANTENNA: DELTA H/E/N
     1     1     0                                          WAVELENGTH FACT L1/2
     5    L1    C1    P1    L2    P2                        # / TYPES OF OBSERV
    30                                                      INTERVAL
                                                            COMMENT
PANGA GPS Data Analysis Center                              COMMENT
Department of Geology                                       COMMENT
Central Washington University                               COMMENT
Ellensburg, WA 98926                                        COMMENT
                                                            COMMENT
http://www.panga.cwu.edu                                    COMMENT
ftp://panga.cwu.edu                                         COMMENT
                                                            COMMENT
  1996     9    11     0     0   30.000000                  TIME OF FIRST OBS
  1996     9    11    23    59    0.000000                  TIME OF LAST OBS
    25                                                      # OF SATELLITES
           1   758   758     0   754   754                  PRN / # OF OBS
           2   858   859     0   846   846                  PRN / # OF OBS
           3   922   923     0   901   901                  PRN / # OF OBS
           4   727   728     0   721   721                  PRN / # OF OBS
           5   713   713     0   709   709                  PRN / # OF OBS
           6   779   779     0   763   763                  PRN / # OF OBS
           7   752   752     0   749   749                  PRN / # OF OBS
           9   884   884     0   878   878                  PRN / # OF OBS
          10   873   874     0   854   854                  PRN / # OF OBS
          14   705   705     0   702   702                  PRN / # OF OBS
          15   889   889     0   885   885                  PRN / # OF OBS
          16   896   896     0   872   872                  PRN / # OF OBS
          17   860   860     0   846   846                  PRN / # OF OBS
          18   763   763     0   748   748                  PRN / # OF OBS
          19   857   857     0   850   850                  PRN / # OF OBS
          21   866   866     0   847   847                  PRN / # OF OBS
          22   883   883     0   859   859                  PRN / # OF OBS
          23   812   812     0   809   809                  PRN / # OF OBS
          24   712   712     0   707   707                  PRN / # OF OBS
          25   669   669     0   667   667                  PRN / # OF OBS
          26   936   937     0   921   921                  PRN / # OF OBS
          27   816   816     0   807   807                  PRN / # OF OBS
          28   731     0   733   731   731                  PRN / # OF OBS
          29   855   855     0   846   846                  PRN / # OF OBS
          31   930   930     0   914   914                  PRN / # OF OBS
                                                            END OF HEADER
 96  9 11  0  0 30.0000000  0  6  1 14 15 21 25 29
   5913018.49510  23069930.95300                   4777789.39050  23069934.90240
  -6953746.95010  23092177.20300                  -5301934.86650  23092181.46940
 -12350137.25110  21049517.20300                  -9458896.82050  21049521.16440
  12397671.51010  23603356.01600                   5359633.62750  23603361.05540
 -13668912.41510  20817796.63300                 -10505615.02750  20817799.25840
  -5721829.12310  23218888.75800                  -4203096.17650  23218892.46140
 96  9 11  0  1  0.0000000  0  6  1 14 15 21 25 29
   6009639.26700  23088316.96900                   4853078.28040  23088320.80140
  -7012507.81200  23080995.39800                  -5347722.51840  23080998.80940
 -12326577.26700  21054000.41400                  -9440538.39240  21054004.15240
  12507780.54900  23624309.42200                   5445432.82640  23624314.62540
 -13639960.57300  20823306.13300                 -10483055.14040  20823308.62940
  -5757838.46500  23212036.45300                  -4231155.35840  23212038.98440
 96  9 11  0  1 30.0000000  0  6  1 14 15 21 25 29
   6106341.03700  23106719.08600                   4928430.29840  23106722.83640
  -7071212.79100  23069823.84400                  -5393466.64340  23069828.37940
 -12302382.18500  21058604.68800                  -9421685.08440  21058608.49640
  12618176.84200  23645317.04700                   5531455.86440  23645322.02740
 -13610486.98100  20828914.95300                 -10460088.69840  20828917.44940
  -5793716.85700  23205209.10900                  -4259112.52140  23205212.22740
 96  9 11  0  2  0.0000000  0  6  1 14 15 21 25 29
   6203127.98700  23125137.04700                   5003848.68140  23125140.69140
  -7129858.09900  23058664.03900                  -5439164.25940  23058667.84840
 -12277545.75500  21063330.83600                  -9402332.02740  21063334.68040
  12728847.72300  23666377.19500                   5617692.88140  23666383.96940
 -13580504.95600  20834620.14100                 -10436726.07440  20834622.62540
  -5829446.44800  23198410.48400                  -4286953.72140  23198413.08640
 96  9 11  0  2 30.0000000  0  6  1 14 15 21 25 29
   6299991.87000  23143569.21100                   5079327.02740  23143572.44540
  -7188434.82100  23047517.34400                  -5484808.43340  23047521.96140
 -12252068.77400  21068178.93000                  -9382479.83640  21068182.83240
  12839774.38000  23687485.93800                   5704129.21640  23687491.50440
 -13550019.65600  20840421.36700                 -10412971.28640  20840423.89840
  -5865013.83600  23191641.61700                  -4314668.54340  23191645.64840
 96  9 11  0  3  0.0000000  0  6  1 14 15 21 25 29
   6396923.24100  23162014.93000                   5154857.93540  23162018.75040
  -7246926.31600  23036386.84400                  -5530386.19740  23036390.43040
 -12225949.15500  21073149.18800                  -9362126.88840  21073153.06640
  12950947.28000  23708641.81300                   5790757.38140  23708646.81640
 -13519024.63500  20846319.64100                 -10388819.31240  20846322.20740
  -5900404.21700  23184907.35200                  -4342245.43540  23184910.92640
 96  9 11  0  3 30.0000000  0  6  1 14 15 21 25 29
   6493907.43300  23180470.37500                   5230430.02840  23180474.13740
  -7305331.97800  23025272.39100                  -5575897.09040  23025275.89540
 -12199191.22900  21078241.18800                  -9341276.56340  21078245.26640
  13062345.92500  23729840.06300                   5877561.47440  23729844.52740
 -13487504.31900  20852317.70300                 -10364258.02140  20852320.35240
  -5935616.77000  23178206.60200                  -4369683.75740  23178209.95340
 96  9 11  0  4  0.0000000  0  6  1 14 15 21 25 29
   6590921.17200  23198931.67200                   5306025.13540  23198935.05940
  -7363652.23700  23014174.46100                  -5621341.42840  23014178.70340
 -12171795.12500  21083454.40600                  -9319928.95240  21083458.32040
  13173965.97000  23751081.07800                   5964538.10340  23751085.46140
 -13455432.47000  20858420.68000                 -10339266.96240  20858423.16440
  -5970638.20400  23171541.94500                  -4396973.17440  23171545.13340
 96  9 11  0  4 30.0000000  0  6  1 14 15 21 25 29
   6687956.53700  23217396.61700                   5381637.10640  23217400.05140
  -7421884.23100  23003093.53100                  -5666716.99040  23003097.01240
 -12143759.04000  21088789.41400                  -9298082.65840  21088793.53940
  13285804.49600  23772362.47700                   6051684.95640  23772367.72740
 -13422806.33600  20864629.31300                 -10313843.99240  20864631.75040
  -6005465.73800  23164914.92200                  -4424111.48340  23164918.80140
 96  9 11  0  5  0.0000000  0  6  1 14 15 21 25 29
   6785004.48200  23235864.31300                   5457258.85240  23235867.96940
  -7480050.83600  22992024.46100                  -5712041.59740  22992028.27040
 -12115082.30700  21094246.48400                  -9275737.15840  21094250.50440
  13397873.71400  23793688.95300                   6139011.55140  23793694.97740
 -13389634.09700  20870941.70300                 -10287995.48840  20870944.19940
  -6040114.94500  23158321.59400                  -4451110.84440  23158325.26240
 96  9 11  0  5 30.0000000  0  6  1 14 15 21 25 29
   6882078.21900  23254336.88300                   5532900.72440  23254341.17240
  -7538155.47200  22980967.63300                  -5757317.92240  22980971.67640
 -12085758.65100  21099826.69500                  -9252887.56340  21099830.79740
  13510184.76200  23815060.99200                   6226526.60640  23815065.19940
 -13355912.07300  20877358.80500                 -10261718.57840  20877361.38340
  -6074587.34500  23151761.20300                  -4477972.42540  23151765.12940
 96  9 11  0  6  0.0000000  0  6  1 14 15 21 25 29
   6979171.71900  23272813.34400                   5608557.98240  23272817.35240
  -7596192.08600  22969923.54700                  -5802541.22240  22969927.48440
 -12055791.50800  21105529.21900                  -9229536.54840  21105533.28540
  13622749.95100  23836480.80500                   6314239.69340  23836486.07840
 -13321660.86300  20883876.29700                 -10235029.31640  20883878.89840
  -6108898.32200  23145232.16400                  -4504708.23540  23145235.57440
 96  9 11  0  6 30.0000000  0  6  1 14 15 21 25 29
   7076304.96600  23291297.21900                   5684246.21740  23291300.88740
  -7654161.03000  22958892.44500                  -5847711.82140  22958896.98040
 -12025186.45400  21111353.16400                  -9205688.46540  21111357.07840
  13735573.34300  23857951.46900                   6402153.96840  23857956.44940
 -13286904.99700  20890490.26600                 -10207946.81640  20890492.82040
  -6143078.09000  23138728.03100                  -4531341.80340  23138730.46940
 96  9 11  0  7  0.0000000  0  6  1 14 15 21 25 29
   7173495.08500  23309791.55500                   5759978.75740  23309795.57440
  -7712052.27500  22947876.13300                  -5892821.86840  22947879.47340
 -11993939.97800  21117299.25800                  -9181340.56640  21117303.13740
  13848673.99900  23879473.49200                   6490284.30140  23879477.51240
 -13251637.14400  20897201.66400                 -10180465.36240  20897204.13740
  -6177130.03000  23132248.16400                  -4557875.76140  23132250.74240
 96  9 11  0  7 30.0010000  0  6  1 14 15 21 25 29
   7270755.61900  23328299.52100                   5835766.18240  23328303.72840
  -7769842.49300  22936879.06700                  -5937853.18940  22936882.45440
 -11962055.65500  21123366.52100                  -9156495.64640  21123370.61040
  13962044.31200  23901046.73100                   6578624.75940  23901052.26340
 -13215860.77000  20904009.74700                 -10152587.66240  20904012.25540
  -6211047.65400  23125794.09900                  -4584305.06240  23125796.93540
 96  9 11  0  8  0.0010000  0  6  1 14 15 21 25 29
   7368077.47300  23346819.92700                   5911601.38340  23346824.27440
  -7827514.23900  22925903.91100                  -5982792.17440  22925907.72040
 -11929526.91800  21129556.68500                  -9131148.58340  21129560.64640
  14075683.74400  23922672.11400                   6667174.92840  23922676.52140
 -13179571.47000  20910915.06700                 -10124310.27640  20910917.47040
  -6244807.60600  23119369.34900                  -4610611.49640  23119372.46640
 96  9 11  0  8 30.0010000  0  6  1 14 15 21 25 29
   7465444.40100  23365348.06000                   5987471.69140  23365351.48140
  -7885098.40100  22914946.43500                  -6027662.94040  22914950.79440
 -11896361.97200  21135867.81700                  -9105305.77240  21135871.83740
  14189574.71900  23944345.13800                   6755921.09740  23944351.37240
 -13142763.80200  20917919.50500                 -10095628.96940  20917921.97840
  -6278397.03500  23112977.54400                  -4636785.05840  23112981.56340
 96  9 11  0  9  0.0010000  0  6  1 14 15 21 25 29
   7562830.19300  23383879.79400                   6063356.71740  23383883.76740
  -7942585.83000  22904007.15300                  -6072458.31240  22904011.26740
 -11862559.26700  21142300.01300                  -9078966.01040  21142304.09140
  14303711.85200  23966064.53600                   6844859.06040  23966069.18840
 -13105421.13900  20925025.53600                 -10066530.78340  20925027.99740
  -6311787.58000  23106623.52800                  -4662803.65340  23106626.37640
 96  9 11  0  9 30.0010000  0  6  1 14 15 21 25 29
   7660219.80400  23402412.44200                   6139244.69640  23402416.23940
  -7999979.44400  22893085.13000                  -6117180.60540  22893088.77440
 -11828118.59500  21148853.83300                  -9052129.13340  21148857.88840
  14418085.08400  23987828.48900                   6933980.99340  23987832.66140
 -13067541.89500  20932233.70000                 -10037014.48140  20932236.33740
  -6344975.16000  23100308.16100                  -4688664.08640  23100311.31340
 96  9 11  0 10  0.0010000  0  6  1 14 15 21 25 29
   7757606.52400  23420944.55200                   6215130.45740  23420948.91140
  -8057286.48700  22882180.00500                  -6161835.41940  22882183.61440
 -11793038.27700  21155529.34900                  -9024793.83140  21155533.26340
  14532690.50800  24009637.85600                   7023283.87940  24009642.34540
 -13029116.66600  20939545.88800                 -10007072.73740  20939548.41940
  -6377968.51300  23094029.91900                  -4714373.17440  23094033.11840
 96  9 11  0 10 30.0010000  0  6  1 14 15 21 25 29
   7855000.57600  23439477.92700                   6291021.90440  23439481.93540
  -8114499.64100  22871293.08300                  -6206417.07240  22871296.50540
 -11757320.73200  21162326.20800                  -8996961.98440  21162330.18140
  14647528.79400  24031491.08300                   7112768.25740  24031495.13840
 -12990147.42900  20946961.29400                  -9976707.09040  20946963.93140
  -6410786.88800  23087784.38000                  -4739945.91240  23087788.14240
 96  9 11  0 11  0.0010000  0  6  1 14 15 21 25 29
   7952417.77000  23458015.44200                   6366931.39240  23458018.58340
  -8171592.21900  22860428.77100                  -6250904.80040  22860433.06040
 -11720965.25400  21169244.41900                  -8968633.04940  21169248.53240
  14762589.87000  24053385.86400                   7202426.14840  24053390.65740
 -12950645.57600  20954478.26300                  -9945926.42240  20954480.70040
  -6443452.10000  23081568.69200                  -4765399.28940  23081572.13840
 96  9 11  0 11 30.0010000  0  6  1 14 15 21 25 29
   8049877.71100  23476561.45800                   6442874.18740  23476564.68140
  -8228567.86600  22849586.43500                  -6295301.39240  22849590.36040
 -11683973.02700  21176283.96600                  -8939807.94440  21176287.96240
  14877860.34900  24075321.50500                   7292247.26140  24075326.70840
 -12910622.17700  20962094.45800                  -9914739.34840  20962097.02440
  -6475982.45500  23075378.09900                  -4790747.59740  23075380.89940
 96  9 11  0 12  0.0010000  0  6  1 14 15 21 25 29
   8147385.77300  23495117.16100                   6518854.47740  23495121.46240
  -8285426.85000  22838766.36400                  -6339607.08740  22838769.72840
 -11646348.03800  21183443.67700                  -8910489.77840  21183447.55640
  14993338.48900  24097296.14600                   7382230.16940  24097302.82540
 -12870080.84600  20969809.17700                  -9883148.69540  20969811.81340
  -6508378.48200  23069213.33300                  -4815991.22140  23069216.33340
 96  9 11  0 12 30.0010000  0  6  1 14 15 21 25 29
   8244945.89100  23513681.74700                   6594875.32640  23513685.55640
  -8342169.38300  22827968.87200                  -6383822.02740  22827972.66940
 -11608083.49100  21190725.45800                  -8880673.25340  21190729.32540
  15109037.43800  24119313.20000                   7472385.20440  24119317.65340
 -12829023.62400  20977622.22400                  -9851156.05140  20977624.83740
  -6540622.55100  23063077.75500                  -4841116.44940  23063081.00140
 96  9 11  0 13  0.0010000  0  6  1 14 15 21 25 29
   8342544.62600  23532254.22400                   6670926.28340  23532258.59540
  -8398820.19600  22817188.55200                  -6427965.50140  22817192.59540
 -11569193.21700  21198125.85600                  -8850369.15040  21198129.66540
  15224937.19000  24141367.66100                   7562696.60540  24141373.27440
 -12787461.37000  20985531.07500                  -9818769.87340  20985533.65340
  -6572717.58000  23056969.95000                  -4866125.53240  23056972.97440
 96  9 11  0 13 30.0010000  0  6  1 14 15 21 25 29
   8440189.28600  23550835.67700                   6747013.01140  23550839.56740
  -8455381.44300  22806425.06700                  -6472039.19540  22806428.24340
 -11529669.86300  21205646.89600                  -8819571.73740  21205650.93840
  15341071.79300  24163467.42700                   7653191.08040  24163473.80240
 -12745384.40800  20993538.38000                  -9785982.62740  20993541.12240
  -6604659.43700  23050891.82500                  -4891015.25740  23050895.14240
 96  9 11  0 14  0.0010000  0  6  1 14 15 21 25 29
   8537870.68500  23569424.02100                   6823128.36040  23569427.32540
  -8511861.73900  22795677.28600                  -6516049.80340  22795681.06040
 -11489510.22700  21213288.96600                  -8788278.52440  21213292.93840
  15457469.15300  24185617.15300                   7743890.26040  24185623.18840
 -12702785.76900  21001644.39600                  -9752788.87840  21001646.83340
  -6636438.82900  23044844.26300                  -4915778.40240  23044847.43840
 96  9 11  0 14 30.0010000  0  6  1 14 15 21 25 29
   8635577.37300  23588016.85600                   6899263.44040  23588021.14640
  -8568265.43900  22784944.12200                  -6560000.72240  22784947.49740
 -11448723.28300  21221050.63000                  -8756496.50040  21221054.68540
  15574123.49500  24207816.06000                   7834789.67540  24207821.57940
 -12659691.29300  21009845.14600                  -9719208.76440  21009847.72440
  -6668063.12700  23038826.47400                  -4940420.68440  23038829.74340
 96  9 11  0 15  0.0010000  0  6  1 14 15 21 25 29
   8733315.89900  23606615.90300                   6975423.30940  23606619.53640
  -8624564.50400  22774230.18500                  -6603870.10840  22774234.15740
 -11407301.27600  21228932.97400                  -8724219.62040  21228936.82940
  15691042.08000  24230064.97400                   7925894.99440  24230071.99740
 -12616099.35600  21018140.36400                  -9685241.02040  21018143.14240
  -6699528.29100  23032838.34900                  -4964938.97940  23032841.50140
 96  9 11  0 15 30.0010000  0  6  1 14 15 21 25 29
   8831068.79300  23625217.47400                   7051594.37640  23625222.25540
  -8680755.57900  22763537.63000                  -6647655.35140  22763540.92340
 -11365248.68700  21236935.40300                  -8691451.37940  21236939.24740
  15808218.85300  24252363.52800                   8017201.54140  24252369.41140
 -12572018.59600  21026528.56700                  -9650892.37240  21026531.08740
  -6730828.61100  23026882.27100                  -4989328.81140  23026885.57540
 96  9 11  0 16  0.0010000  0  6  1 14 15 21 25 29
   8928830.26300  23643821.02100                   7127772.12540  23643824.53640
  -8736829.82600  22752867.09900                  -6691349.55640  22752871.15340
 -11322569.40200  21245056.88000                  -8658194.79540  21245060.81740
  15925628.60300  24274706.02100                   8108689.62740  24274710.35640
 -12527444.66900  21035010.73100                  -9616159.43640  21035013.36840
  -6761943.32300  23020961.31000                  -5013574.00640  23020963.99340
 96  9 11  0 16 30.0010000  0  6  1 14 15 21 25 29
   9026622.56900  23662430.59900                   7203973.91340  23662434.50140
  -8792752.22800  22742225.33300                  -6734925.43740  22742229.23540
 -11279255.15000  21253299.25500                  -8624443.43840  21253303.12240
  16043252.83600  24297088.93500                   8200344.81940  24297093.89240
 -12482373.49400  21043587.34100                  -9581039.03640  21043589.89640
  -6792872.20100  23015076.01300                  -5037674.40040  23015078.74340
 96  9 11  0 17  0.0010000  0  6  1 14 15 21 25 29
   9124452.27300  23681046.88800                   7280204.82340  23681051.29440
  -8848531.06600  22731610.88000                  -6778389.45640  22731615.08740
 -11235306.94000  21261662.31000                  -8590198.08940  21261666.50540
  16161079.66700  24319510.70000                   8292157.80940  24319516.19640
 -12436778.28800  21052263.78600                  -9545510.30140  21052266.34140
  -6823625.52300  23009223.56700                  -5061638.00540  23009226.19240
 96  9 11  0 17 30.0010000  0  6  1 14 15 21 25 29
   9222322.08600  23699670.66900                   7356466.99940  23699674.94640
  -8904192.66500  22721019.17700                  -6821762.12140  22721022.85640
 -11190735.80900  21270143.97400                  -8555467.34440  21270147.95840
  16279091.76300  24341966.98900                   8384115.31540  24341972.61440
 -12390652.14100  21061041.41100                  -9509567.84440  21061043.96640
  -6854228.87000  23003400.06000                  -5085484.73740  23003403.27140
 96  9 11  0 18  0.0010000  0  7  1 14 15 21 22 25 29
   9320244.45700  23718304.41100                   7432770.11540  23718308.60640
  -8959727.83000  22710450.98900                  -6865036.25940  22710455.14940
 -11145539.02100  21278744.54400                  -8520249.08140  21278748.68140
  16397293.05000  24364460.92700                   8476220.09840  24364466.72840
    -53105.93210  24814596.12200
 -12343989.42800  21069920.79400                  -9473207.28840  21069923.29040
  -6884698.50300  22997601.83300                  -5109227.29240  22997605.07940
 96  9 11  0 18 30.0010000  0  7  1 14 15 21 22 25 29
   9418211.07300  23736946.98900                   7509107.71940  23736950.93840
  -9015148.73500  22699904.63800                  -6908221.37440  22699908.01340
 -11099720.07500  21287463.66100                  -8484546.01140  21287467.62240
  16515690.79200  24386990.63800                   8568478.06740  24386998.25940
   -122470.25400  24801396.82500
 -12296809.23100  21078899.02100                  -9436443.49140  21078901.62240
  -6915044.38400  22991827.07500                  -5132873.40140  22991830.22840
 96  9 11  0 19  0.0010000  0  7  1 14 15 21 22 25 29
   9516214.31900  23755596.45000                   7585473.87840  23755599.56740
  -9070458.32400  22689379.76300                  -6951319.72940  22689383.09140
 -11053272.83100  21296302.22400                  -8448353.36340  21296306.16140
  16634306.85500  24409563.08300                   8660906.08640  24409568.66140
   -191939.86200  24788176.40300
 -12249107.71500  21087976.14600                  -9399273.47540  21087978.66540
  -6945245.14000  22986080.14600                  -5156406.43440  22986082.98140
 96  9 11  0 19 30.0010000  0  7  1 14 15 21 22 25 29
   9614247.77600  23774251.66900                   7661863.57440  23774255.45440
  -9125643.71800  22678878.34900                  -6994321.32040  22678881.81740
 -11006199.33500  21305260.05200                  -8411672.72640  21305264.00140
  16753156.35000  24432179.45000                   8753516.02640  24432186.04840
    -39432.08510  24774939.63000
 -12200912.00900  21097147.68500                  -9361718.37640  21097150.12240
  -6975288.14500  22980362.96600                  -5179816.55240  22980365.96640
 96  9 11  0 20  0.0010000  0  7  1 14 15 21 22 25 29
   9712302.99000  23792910.92700                   7738270.20040  23792914.30240
  -9180683.96800  22668404.24700                  -7037209.80940  22668407.99740
 -10958498.48700  21314337.25500                  -8374503.24440  21314341.28640
  16872258.47000  24454842.81000                   8846322.82140  24454850.20840
   -109068.04900  24761687.01300                    -30751.82650  24761694.37640
 -12152237.48600  21106410.13000                  -9323790.17240  21106412.68540
  -7005150.57900  22974680.60600                  -5203085.95040  22974683.79440
 96  9 11  0 20 30.0010000  0  7  1 14 15 21 22 25 29
   9810375.27100  23811573.48100                   7814690.15440  23811577.05640
  -9235597.36100  22657954.62200                  -7079999.44840  22657958.59540
 -10910176.91600  21323532.52800                  -8336850.08140  21323536.56040
  16991607.54300  24477554.63000                   8939322.07140  24477561.32140
   -178765.77200  24748424.02100                    -85061.60940  24748429.59940
 -12103097.80200  21115761.26300                  -9285499.50540  21115763.86440
  -7034833.41100  22969032.06700                  -5226215.41240  22969035.33740
 96  9 11  0 21  0.0010000  0  7  1 14 15 21 22 25 29
   9908478.49000  23830241.66900                   7891134.19440  23830245.67740
  -9290382.23100  22647529.51300                  -7122688.94340  22647533.09940
 -10861232.70100  21332846.33300                  -8298711.74440  21332850.49340
  17111198.61100  24500312.31000                   9032509.82740  24500318.23940
   -248521.46300  24735150.13800
 -12053481.40700  21125202.84900                  -9246837.37540  21125205.40340
  -7064347.93500  22963415.69200                  -5249213.71340  22963418.61040
 96  9 11  0 21 30.0010000  0  7  1 14 15 21 22 25 29
  10006615.33300  23848917.02800                   7967604.44140  23848922.27840
  -9345030.62400  22637130.38800                  -7165272.09040  22637134.36040
 -10811668.50900  21342278.12200                  -8260090.30340  21342282.28240
  17231028.21900  24523115.08300                   9125883.47440  24523120.04040
   -318327.54800  24721865.19200
 -12003380.23100  21134736.74700                  -9207797.49440  21134739.31340
  -7093706.07800  22957829.07500                  -5272090.17740  22957832.21640
 96  9 11  0 22  0.0010000  0  7  1 14 15 21 22 25 29
  10104782.15100  23867597.38800                   8044098.07040  23867602.13440
  -9399532.58800  22626758.98900                  -7207741.14140  22626762.64640
 -10761479.22400  21351828.79400                  -8220981.78340  21351832.87240
  17351082.85300  24545960.88000                   9219432.48140  24545966.79840
   -388181.05200  24708573.85600                    -12702.03050  24708578.52140
 -11952780.85100  21144365.50500                  -9168369.40240  21144368.13040
  -7122912.01900  22952271.19200                  -5294848.03240  22952273.95840
 96  9 11  0 22 30.0010000  0  7  1 14 15 21 22 25 29
  10202969.64300  23886281.94200                   8120607.77040  23886286.59540
  -9453909.15300  22616411.41900                  -7250112.48240  22616415.49740
 -10710679.48200  21361495.57500                  -8181397.58640  21361499.70040
  17471333.12200  24568843.38800                   9313133.97240  24568847.81740
   -458112.26900  24695265.02800                    -67193.86740  24695272.21640
 -11901690.12400  21154087.82500                  -9128558.44340  21154090.50940
  -7151980.77900  22946739.63000                  -5317498.99740  22946742.40740
 96  9 11  0 23  0.0010000  0  7  1 14 15 21 22 25 29
  10301175.86700  23904970.13800                   8197132.10740  23904974.42740
  -9508124.21200  22606094.88000                  -7292357.96640  22606098.64240
 -10659262.74600  21371279.87200                  -8141332.60740  21371284.12640
  17591787.97200  24591765.69200                   9406994.82740  24591771.22440
   -528101.23800  24681947.38800                   -121730.51040  24681952.75540
 -11850088.41100  21163907.38000                  -9088349.31540  21163909.89940
  -7180895.03300  22941237.32500                  -5340029.56440  22941240.40740
 96  9 11  0 23 30.0010000  0  7  1 14 15 21 22 25 29
  10399392.86200  23923659.81000                   8273664.79940  23923663.92340
  -9562165.49200  22595810.79400                  -7334468.04540  22595814.42740
 -10607232.22100  21381180.91100                  -8100789.34840  21381185.47040
  17712450.46000  24614727.08300                   9501017.45740  24614735.04440
   -598140.43800  24668619.03600                   -176306.43640  24668626.32940
 -11797981.91400  21173822.77800                  -9047746.84140  21173825.28640
  -7209648.04900  22935765.97400                  -5362434.49740  22935769.02140
 96  9 11  0 24  0.0010000  0  7  1 14 15 21 22 25 29
  10497617.42000  23942351.77100                   8350203.40240  23942357.06740
  -9616046.97500  22585557.64600                  -7376453.60540  22585561.18540
 -10554588.07800  21391198.89600                  -8059767.95940  21391203.16140
  17833316.30400  24637727.37200                   9595198.60540  24637729.28240
   -668213.92800  24655284.41100                   -230909.08040  24655294.38840
 -11745377.27900  21183833.19200                  -9006756.21540  21183835.67740
  -7238233.31600  22930326.14600                  -5384708.71340  22930329.14640
 96  9 11  0 24 30.0010000  0  7  1 14 15 21 22 25 29
  10595846.85000  23961043.74700                   8426745.80540  23961047.80240
  -9669783.74800  22575331.44200                  -7418326.40340  22575335.47440
 -10501334.53000  21401332.73900                  -8018271.69640  21401337.05240
  17954387.26100  24660766.76300                   9689539.51040  24660774.41940
   -738321.27900  24641943.06000                   -285538.13740  24641951.30240
 -11692273.70700  21193938.41900                  -8965376.81240  21193941.02140
  -7266653.34900  22924918.01300                  -5406854.16940  22924921.00140
 96  9 11  0 25  0.0010000  0  7  1 14 15 21 22 25 29
  10694077.38000  23979736.15300                   8503289.03140  23979739.76340
  -9723373.09200  22565134.19200                  -7460084.32340  22565138.08340
 -10447469.55400  21411582.89600                  -7976299.00340  21411587.04440
  18075663.17800  24683843.73900                   9784040.20640  24683849.45840
   -808448.54000  24628599.04400                   -340182.64340  24628605.03240
 -11638669.15100  21204139.09100                  -8923607.02440  21204141.63440
  -7294923.15900  22919538.59100                  -5428882.58340  22919541.46240
 96  9 11  0 25 30.0010000  0  7  1 14 15 21 22 25 29
  10792309.08600  23998429.98900                   8579833.22640  23998434.70040
  -9776839.80600  22554959.52800                  -7501746.67840  22554963.19640
 -10392996.87700  21421948.74700                  -7933852.76740  21421952.88440
  18197137.08900  24706960.33300                   9878695.12240  24706963.97840
   -878602.28200  24615248.27800                   -394847.86540  24615253.58740
 -11584575.92500  21214432.63000                  -8881456.45740  21214435.02140
  -7323054.98600  22914184.87200                  -5450803.45740  22914187.80240
 96  9 11  0 26  0.0010000  0  7  1 14 15 21 22 25 29
  10890546.36800  24017123.14600                   8656381.73640  24017126.94240
  -9830182.09900  22544808.88000                  -7543312.09540  22544812.66540
 -10337911.77200  21432431.03600                  -7890929.31840  21432435.10340
  18318805.97500  24730112.78600                   9973502.01440  24730118.37640
   -948792.45600  24601892.22400                   -449541.45040  24601899.29440
 -11529988.62200  21224820.23900                  -8838920.89440  21224822.78240
  -7351043.97800  22908859.06700                  -5472613.04440  22908861.95040
 96  9 11  0 26 30.0010000  0  7  1 14 15 21 22 25 29
  10988804.96700  24035821.09100                   8732946.86340  24035825.49740
  -9883388.66600  22534684.01300                  -7584771.74740  22534687.85640
 -10282220.69500  21443028.84100                  -7847533.68640  21443032.88440
  18440672.48600  24753302.68500                  10068462.85340  24753307.36040
  -1019042.38500  24588524.05200                   -504281.60040  24588527.57940
 -11474915.65200  21235300.27100                  -8796006.89340  21235302.81340
  -7378899.55600  22903558.31700                  -5494318.67240  22903561.50540
 96  9 11  0 27  0.0010000  0  7  1 14 15 21 22 25 29
  11087098.61700  24054525.91900                   8809539.29540  24054530.78240
  -9936445.74800  22524587.56700                  -7626114.91940  22524591.62240
 -10225926.99200  21453741.08300                  -7803668.47540  21453745.03240
  18562740.76600  24776532.02800                  10163580.92740  24776538.79040
  -1089348.26300  24575145.04400                   -559065.28240  24575149.57940
 -11419366.85300  21245870.75500                  -8752722.11640  21245873.31040
  -7406622.66900  22898282.85600                  -5515921.07340  22898285.37640
 96  9 11  0 27 30.0010000  0  7  1 14 15 21 22 25 29
  11185434.67700  24073238.43500                   8886164.76840  24073243.15740
  -9989341.63200  22514521.61400                  -7667332.48440  22514525.41140
 -10169032.75600  21464567.57500                  -7759335.32140  21464571.61840
  18685018.88600  24799800.65300                  10258862.53340  24799805.07140
  -1159710.50000  24561755.38800                   -613892.99140  24561759.18540
 -11363351.93300  21256530.30200                  -8709074.12740  21256532.66940
  -7434195.67700  22893035.63800                  -5537406.52440  22893038.53240
 96  9 11  0 28  0.0010000  0  7  1 14 15 21 22 25 29
  11283811.10800  24091959.20800                   8962821.74840  24091964.54040
 -10042061.13600  22504489.80200                  -7708412.60840  22504493.37640
 -10111542.47000  21475507.92700                  -7714537.70440  21475512.01740
  18807507.34900  24823109.33300                  10354308.02640  24823115.98940
  -1230126.89100  24548355.31700                   -668762.80340  24548360.68540
 -11306878.42600  21267276.85600                  -8665068.79940  21267279.34140
  -7461613.44900  22887818.51300                  -5558770.99740  22887821.61840
 96  9 11  0 28 30.0010000  0  7  1 14 15 21 22 25 29
  11382225.86500  24110687.23100                   9039508.53040  24110692.42340
 -10094587.57600  22494494.14600                  -7749342.28640  22494497.67340
 -10053451.07900  21486562.23100                  -7669271.70340  21486566.14640
  18930217.61300  24846462.02800                  10449926.39240  24846468.09940
  -1300558.57600  24534953.16900                   -723644.56940  24534959.56740
 -11249935.07800  21278112.75500                  -8620697.35940  21278115.29840
  -7488870.61900  22882631.20800                  -5580010.33340  22882633.86840
 96  9 11  0 29  0.0010000  0  7  1 14 15 21 22 25 29
  11480647.32800  24129415.77800                   9116200.56140  24129418.82540
 -10146927.28900  22484534.19200                  -7790126.46540  22484537.84940
  -9994765.20500  21497729.61400                  -7623542.46740  21497733.56340
  19053133.87400  24869850.17700                  10545705.30640  24869856.10640
  -1370997.70100  24521548.59900                   -778532.09740  24521553.22840
 -11192514.28700  21289039.62200                  -8575953.88440  21289042.11840
  -7515976.70600  22877473.24700                  -5601131.93740  22877476.36440
 96  9 11  0 29 30.0010000  0  7  1 14 15 21 22 25 29
  11579065.61400  24148144.13800                   9192890.10840  24148147.65340
 -10199082.21300  22474609.47400                  -7830766.65440  22474613.09540
  -9935481.21600  21509011.20000                  -7577347.16640  21509015.25540
  19176259.80900  24893281.73900                  10641647.48740  24893287.66940
  -1441439.25100  24508144.20000                   -833421.54540  24508150.36440
 -11134614.04500  21300057.45800                  -8530836.81340  21300059.91940
  -7542933.46700  22872343.50500                  -5622137.18340  22872346.72840
 96  9 11  0 30  0.0010000  0  7  1 14 15 21 22 25 29
  11677482.28200  24166872.55200                   9269578.42140  24166876.45440
 -10251070.56900  22464716.40300                  -7871277.05040  22464720.07140
  -9875601.17100  21520405.93500                  -7530687.40540  21520410.01340
  19299592.46300  24916750.14600                  10737750.80040  24916757.00540
  -1511879.62500  24494739.56000                   -888310.08540  24494745.38440
 -11076217.55900  21311170.07500                  -8485333.05640  21311172.59540
  -7569755.84300  22867239.52800                  -5643037.72540  22867242.48140
 96  9 11  0 30 30.0010000  0  7  1 14 15 21 22 25 29
  11775894.38400  24185600.16900                   9346263.14040  24185605.47840
 -10302917.09000  22454850.42700                  -7911676.93240  22454853.96640
  -9815130.27500  21531913.31700                  -7483567.24540  21531917.39640
  19423127.48600  24940258.12200                  10834011.87040  24940262.81040
  -1582319.70200  24481335.38000                   -943198.36140  24481341.02840
 -11017325.10100  21322376.98900                  -8439442.82440  21322379.43840
  -7596456.32700  22862158.32500                  -5663843.26840  22862161.29040
 96  9 11  0 31  0.0010000  0  7  1 14 15 21 22 25 29
  11874313.82800  24204328.30200                   9422953.61140  24204331.65340
 -10354645.28900  22445006.90300                  -7951984.61640  22445010.73540
  -9754075.03600  21543531.42700                  -7435991.75340  21543535.47040
  19546857.34200  24963803.59900                  10930424.67640  24963810.02140
  -1652776.36500  24467927.76300                   -998099.58840  24467932.25140
 -10957960.80200  21333673.47400                  -8393184.92840  21333675.98140
  -7623039.05900  22857099.99700                  -5684557.06740  22857102.88040
 96  9 11  0 31 30.0010000  0  6  1 14 15 22 25 29
  11972762.05100  24223062.63800                   9499666.49140  24223067.16140
 -10406247.02200  22435187.30200                  -7992193.74140  22435190.94640
  -9692429.94200  21555262.31000                  -7387956.62640  21555266.38840
  -1723233.84700  24454520.42700                  -1053001.43440  24454524.13040
 -10898137.25300  21345057.62200                  -8346569.17340  21345060.08340
  -7649479.99000  22852068.21600                  -5705160.37440  22852071.40340
 96  9 11  0 32  0.0010000  0  6  1 14 15 22 25 29
  12071238.33500  24241801.39600                   9576401.23540  24241805.91940
 -10457721.80300  22425391.73900                  -8032303.95740  22425395.40740
  -9630201.05300  21567104.00500                  -7339466.59640  21567108.14240
  -1793690.38200  24441112.52800                  -1107902.52440  24441117.13440
 -10837862.12400  21356527.41100                  -8299601.53940  21356529.95440
  -7675770.20100  22847065.25500                  -5725646.22740  22847068.03240
 96  9 11  0 32 30.0010000  0  6  1 14 15 22 25 29
  12169735.40300  24260545.24700                   9653152.17040  24260549.40740
 -10509038.86100  22415626.77100                  -8072291.26040  22415630.23940
  -9567385.41700  21579057.47400                  -7290519.36240  21579061.75140
  -1864141.67000  24427706.09900                  -1162799.54440  24427711.95840
 -10777149.39900  21368080.87200                  -8252292.92040  21368083.33340
  -7701890.42700  22842094.60600                  -5745999.62240  22842097.82940
 96  9 11  0 33  0.0010000  0  6  1 14 15 22 25 29
  12268251.34700  24279291.44200                   9729917.83040  24279297.18540
 -10560164.38300  22405897.56700                  -8112129.31540  22405901.21240
  -9503983.18700  21591122.48100                  -7241115.04240  21591126.64240
  -1934595.70300  24414298.73100                  -1217698.71340  24414304.40340
 -10716000.18900  21379717.19200                  -8204644.18440  21379719.71240
  -7727831.78700  22837158.29400                  -5766213.64340  22837161.79840
 96  9 11  0 33 30.0010000  0  6  1 14 15 22 25 29
  12366790.42900  24298042.95800                   9806701.50440  24298047.50540
 -10611063.11100  22396211.98100                  -8151790.65340  22396215.45040
  -9439987.43900  21603300.53600                  -7191248.24340  21603304.68540
  -2005044.97600  24400893.19200                  -1272594.18540  24400897.45840
 -10654396.53700  21391439.88800                  -8156641.33640  21391442.32540
  -7753582.50000  22832258.01300                  -5786279.10640  22832260.94240
 96  9 11  0 34  0.0010000  0  6  1 14 15 22 25 29
  12465331.25900  24316795.42700                   9883486.53540  24316800.41940
 -10661741.46200  22386568.28600                  -8191280.26040  22386571.95440
  -9375414.10000  21615588.27800                  -7140931.36740  21615592.45040
  -2075505.14500  24387484.96600                  -1327498.14240  24387491.00140
 -10592343.52600  21403248.27800                  -8108288.34040  21403250.73940
  -7779166.56500  22827389.66100                  -5806214.71840  22827392.76740
 96  9 11  0 34 30.0010000  0  6  1 14 15 22 25 29
  12563876.84100  24335548.16100                   9960275.29440  24335554.19640
 -10712188.25100  22376968.60600                  -8230589.44040  22376972.22840
  -9310258.86600  21627986.84900                  -7090161.07140  21627990.95040
  -2145967.86300  24374076.12200                  -1382404.02540  24374080.23540
 -10529835.54100  21415143.17700                  -8059580.82640  21415145.69640
  -7804584.68300  22822552.76300                  -5826021.02140  22822556.04440
 96  9 11  0 35  0.0010000  0  6  1 14 15 22 25 29
  12662449.04600  24354305.70800                  10037084.78140  24354309.58740
 -10762406.05500  22367412.73900                  -8269720.18340  22367416.66540
  -9244514.96000  21640497.95000                  -7038932.06940  21640502.08740
  -2216414.87800  24360670.88000                  -1437297.74440  24360677.46640
 -10466868.80200  21427125.16900                  -8010515.83140  21427127.60640
  -7829845.78200  22817745.64600                  -5845704.97940  22817748.81040
 96  9 11  0 35 30.0010000  0  6  1 14 15 22 25 29
  12761048.58100  24373068.78600                  10113915.57940  24373072.87640
 -10812414.12000  22357896.22400                  -8308687.49540  22357900.14940
  -9178187.14700  21653119.74700                  -6987248.07340  21653123.79040
  -2286831.07800  24347270.41100                  -1492167.43540  24347276.63440
 -10403450.44200  21439193.41100                  -7961098.92940  21439195.95440
  -7854956.23000  22812967.34100                  -5865271.53940  22812970.14240
 96  9 11  0 36  0.0010000  0  6  1 14 15 22 25 29
  12859649.13200  24391831.52800                  10190747.12440  24391835.74740
 -10862243.69000  22348413.84100                  -8347515.71840  22348417.21640
  -9111291.48000  21665849.19200                  -6935121.59840  21665853.30640
  -2357228.51400  24333874.04400                  -1547022.51040  24333879.37640
 -10339600.14700  21451343.63000                  -7911345.45540  21451346.06740
  -7879941.48600  22808212.79400                  -5884740.55440  22808215.98140
 96  9 11  0 36 30.0010000  0  6  1 14 15 22 25 29
  12958264.17800  24410597.27100                  10267590.02340  24410601.34940
 -10911894.72600  22338965.56700                  -8386204.82540  22338969.32940
  -9043822.55800  21678688.17700                  -6882548.42140  21678692.27840
  -2427604.41000  24320482.44200                  -1601860.76240  24320486.36840
 -10275318.86700  21463575.88800                  -7861256.14840  21463578.36040
  -7904804.09200  22803481.50500                  -5904113.99540  22803484.39940
 96  9 11  0 37  0.0010000  0  6  1 14 15 22 25 29
  13056905.73000  24429368.27800                  10344453.55340  24429370.73940
 -10961365.20000  22329551.63000                  -8424753.22940  22329555.43840
  -8975776.12300  21691637.15300                  -6829525.23640  21691641.17340
  -2497950.52200  24307095.50500                  -1656675.85840  24307098.97440
 -10210594.19600  21475892.66100                  -7810821.34140  21475895.06340
  -7929538.17400  22798774.73900                  -5923387.28440  22798777.86840
 96  9 11  0 37 30.0010000  0  6  1 14 15 22 25 29
  13155560.99300  24448141.89600                  10421327.76940  24448146.40740
 -11010645.46900  22320174.01300                  -8463153.42140  22320177.83340
  -8907151.56900  21704695.97400                  -6776051.57540  21704699.86440
  -2568261.44000  24293715.43500                  -1711463.48640  24293719.67740
 -10145414.87600  21488295.89600                  -7760032.26240  21488298.35640
  -7954128.72900  22794095.52100                  -5942548.74340  22794098.64940
 96  9 11  0 38  0.0010000  0  6  1 14 15 22 25 29
  13254219.96800  24466916.08300                  10498204.86240  24466920.86440
 -11059734.54500  22310832.52100                  -8501404.63640  22310836.43540
  -8837954.94700  21717863.50500                  -6722132.14240  21717867.52440
  -2638533.63100  24280343.42700                  -1766220.96040  24280348.54840
 -10079772.10300  21500787.27100                  -7708882.05240  21500789.72040
  -7978578.97100  22789442.57500                  -5961600.85540  22789445.30640
 96  9 11  0 38 30.0020000  0  6  1 14 15 22 25 29
  13352901.14100  24485693.83800                  10575099.23640  24485698.72540
 -11108628.74100  22301528.20500                  -8539503.99740  22301532.08440
  -8768188.27200  21731139.84600                  -6667768.51140  21731143.93640
  -2708752.04200  24266981.26800                  -1820936.51840  24266986.51840
 -10013661.22000  21513367.77500                  -7657367.07940  21513370.31840
  -8002878.84800  22784818.31400                  -5980535.80640  22784821.68940
 96  9 11  0 39  0.0020000  0  6  1 14 15 22 25 29
  13451589.89500  24504474.34600                  10651999.57340  24504478.16640
 -11157315.07000  22292263.55700                  -8577441.39040  22292267.29540
  -8697858.76500  21744523.07200                  -6612966.31540  21744527.05740
  -2778901.75300  24253632.11900                  -1875598.56740  24253636.42040
  -9947076.55200  21526038.17400                  -7605482.92940  21526040.45940
  -8027013.53300  22780225.63500                  -5999342.03740  22780228.48240
 96  9 11  0 39 30.0020000  0  6  1 14 15 22 25 29
  13550279.44900  24523254.81400                  10728900.48240  24523258.03740
 -11205804.04700  22283036.67400                  -8615225.00140  22283040.42440
  -8626970.22100  21758012.81400                  -6557728.49740  21758016.96340
  -2848986.74400  24240295.61100                  -1930210.15040  24240300.12340
  -9880021.56900  21538798.37700                  -7553232.29140  21538800.79140
  -8050994.40900  22775662.26800                  -6018028.41940  22775665.29140
 96  9 11  0 40  0.0020000  0  6  1 14 15 22 25 29
  13648989.09100  24542037.47100                  10805817.05140  24542041.77140
 -11254099.36900  22273846.35400                  -8652857.71440  22273850.01040
  -8555518.69400  21771609.64300                  -6502052.00340  21771613.88540
  -2919007.51200  24226970.72100                  -1984771.69240  24226976.65040
  -9812493.67400  21551648.34600                  -7500613.15540  21551650.81840
  -8074816.95800  22771129.11900                  -6036591.42840  22771132.06140
 96  9 11  0 40 30.0020000  0  6  1 14 15 22 25 29
  13747717.59800  24560826.18900                  10882748.37240  24560830.72540
 -11302197.22900  22264693.73600                  -8690336.55240  22264697.43940
  -8483505.93000  21785313.16600                  -6445938.17440  21785317.44340
  -2988977.15300  24213655.76800                  -2039293.44840  24213660.24440
  -9744507.54700  21564585.83000                  -7447636.95040  21564588.32640
  -8098479.49000  22766626.47900                  -6055029.74540  22766629.51440
 96  9 11  0 41  0.0020000  0  6  1 14 15 22 25 29
  13846447.56900  24579613.75200                  10959680.78240  24579618.35740
 -11350090.51900  22255579.86100                  -8727655.98940  22255583.76440
  -8410933.53400  21799123.19700                  -6389388.27140  21799127.48640
  -3058902.83400  24200349.33800                  -2093780.92140  24200354.14340
  -9676074.23600  21577608.30700                  -7394312.29540  21577610.87340
  -8121990.89400  22762152.26000                  -6073350.30640  22762155.44740
 96  9 11  0 41 30.0020000  0  6  1 14 15 22 25 29
  13945205.98600  24598406.26800                  11036635.37040  24598411.38940
 -11397762.10400  22246508.17400                  -8764802.66740  22246511.61940
  -8337793.42200  21813041.12700                  -6332395.98740  21813045.24040
  -3128763.16100  24187055.38500                  -2148217.43740  24187061.77140
  -9607205.19000  21590713.64300                  -7340648.10240  21590716.23240
  -8145349.44400  22757707.22100                  -6091551.75440  22757710.31440
 96  9 11  0 42  0.0020000  0  6  1 14 15 22 25 29
  14043983.87900  24617203.18200                  11113605.14440  24617207.51840
 -11445200.48200  22237480.80700                  -8801767.62240  22237484.43940
  -8264103.43600  21827064.08800                  -6274975.23940  21827068.15440
  -3198564.29200  24173772.63500                  -2202607.88740  24173777.70940
  -9537938.94700  21603894.61900                  -7286674.40740  21603897.04540
  -8168564.93100  22753289.29900                  -6109641.72140  22753292.59240
 96  9 11  0 42 30.0020000  0  6  1 14 15 22 25 29
  14142766.65300  24636000.42400                  11190578.72540  24636004.80740
 -11492384.53800  22228502.02500                  -8838534.41640  22228505.54140
  -8189864.33400  21841191.26800                  -6217126.60340  21841195.43940
  -3268288.53400  24160504.60400                  -2256938.39540  24160509.73640
  -9468285.75700  21617149.34600                  -7232399.19840  21617151.80740
  -8191643.55100  22748897.68200                  -6127625.04140  22748900.69340
 96  9 11  0 43  0.0020000  0  6  1 14 15 22 25 29
  14241564.28000  24654801.62700                  11267563.85740  24654805.83440
 -11539302.81500  22219573.65800                  -8875094.10240  22219577.18640
  -8115073.90400  21855423.16600                  -6158848.36340  21855427.25640
  -3337910.47800  24147256.07200                  -2311189.18640  24147262.10740
  -9398242.46400  21630477.87700                  -7177820.01040  21630480.47940
  -8214588.42600  22744531.54900                  -6145504.15040  22744534.46740
 96  9 11  0 43 30.0020000  0  6  1 14 15 22 25 29
  14340376.90600  24673605.57200                  11344560.65540  24673610.07240
 -11585964.05700  22210694.46300                  -8911453.50040  22210697.99040
  -8039741.10700  21869758.69700                  -6100147.49540  21869762.72940
  -3407443.06700  24134023.97900                  -2365370.37240  24134028.59640
  -9327807.24700  21643881.26800                  -7122935.42740  21643883.77540
  -8237391.30000  22740192.08000                  -6163272.59940  22740195.04540
 96  9 11  0 44  0.0020000  0  6  1 14 15 22 25 29
  14439183.77300  24692407.30700                  11421553.01340  24692411.71340
 -11632374.11000  22201862.90800                  -8947617.16540  22201866.41240
  -7963864.84500  21884197.48600                  -6041023.14740  21884201.72940
  -3476905.04000  24120805.86100                  -2419496.51540  24120810.99440
  -9256957.91600  21657363.72100                  -7067728.15840  21657366.20540
  -8260042.71800  22735881.50200                  -6180923.04440  22735884.68940
 96  9 11  0 44 30.0020000  0  6  1 14 15 22 25 29
  14537979.16600  24711207.54100                  11498536.42040  24711210.82240
 -11678545.13300  22193076.86900                  -8983594.58440  22193080.65440
  -7887444.09600  21898739.99400                  -5981474.53040  21898744.11940
  -3546304.66700  24107599.87700                  -2473574.08240  24107604.81140
  -9185662.38400  21670930.65800                  -7012173.20240  21670933.17840
  -8282545.54300  22731599.59600                  -6198457.69240  22731602.13940
 96  9 11  0 45  0.0020000  0  6  1 14 15 22 25 29
  14636774.03200  24730007.20500                  11575519.39640  24730011.13140
 -11724492.64200  22184333.14300                  -9019397.82940  22184336.54140
  -7810486.47300  21913384.55700                  -5921507.56440  21913388.78740
  -3615667.69800  24094400.12700                  -2527623.12240  24094406.16240
  -9113918.00900  21684583.18200                  -6956268.49540  21684585.70140
  -8304895.63400  22727346.33800                  -6215873.32840  22727349.35040
 96  9 11  0 45 30.0020000  0  6  1 14 15 22 25 29
  14735569.42400  24748807.54900                  11652502.81540  24748811.90840
 -11770223.97800  22175630.91600                  -9055032.63240  22175634.51440
  -7732995.42500  21928130.43900                  -5861124.94440  21928134.48240
  -3685011.62900  24081204.61900                  -2581657.27940  24081209.68240
  -9041728.75100  21698320.47900                  -6900017.13140  21698322.90440
  -8327087.86500  22723123.35400                  -6233165.96540  22723126.28340
 96  9 11  0 46  0.0020000  0  6  1 14 15 22 25 29
  14834369.07300  24767608.96300                  11729489.51840  24767612.99440
 -11815733.29700  22166970.93200                  -9090494.42540  22166974.30740
  -7654968.69800  21942978.82200                  -5800324.90840  21942982.77140
  -3754311.83000  24068017.48600                  -2635657.38040  24068021.63540
  -8969088.93700  21712143.22100                  -6843414.67640  21712145.78740
  -8349138.23500  22718927.27500                  -6250348.05340  22718930.20540
 96  9 11  0 46 30.0020000  0  6  1 14 15 22 25 29
  14933188.19800  24786413.01800                  11806491.39740  24786416.89640
 -11861012.36800  22158354.65000                  -9125776.81540  22158358.14340
  -7576404.33000  21957928.84600                  -5739105.94140  21957932.95940
  -3823532.44300  24054844.68900                  -2689595.47040  24054849.54140
  -8896005.44200  21726050.52500                  -6786466.50340  21726052.99840
  -8371043.46200  22714758.92400                  -6267417.04840  22714761.66640
 96  9 11  0 47  0.0020000  0  6  1 14 15 22 25 29
  15032030.41300  24805222.47100                  11883511.27740  24805226.57240
 -11906061.29800  22149781.85400                  -9160879.86440  22149785.21740
  -7497310.26900  21972980.15800                  -5677474.22340  21972984.33040
  -3892653.43900  24041691.68200                  -2743455.91940  24041696.53340
  -8822506.26600  21740037.04900                  -6729194.42040  21740039.42840
  -8392802.71300  22710618.29100                  -6284372.29540  22710621.20940
 96  9 11  0 47 30.0020000  0  6  1 14 15 22 25 29
  15130895.86100  24824035.04900                  11960549.25540  24824041.50640
 -11950867.85800  22141255.57200                  -9195794.05540  22141259.14640
  -7417679.74500  21988133.16600                  -5615424.47940  21988137.23240
  -3961635.48900  24028564.64300                  -2797208.10040  24028569.55340
  -8748587.13800  21754103.52500                  -6671595.10140  21754106.01040
  -8414419.47500  22706504.79100                  -6301216.50540  22706507.85040
 96  9 11  0 48  0.0020000  0  6  1 14 15 22 25 29
  15229783.45800  24842853.55700                  12037604.50140  24842858.74840
 -11995428.33500  22132775.75200                  -9230516.49840  22132779.17440
  -7337518.48000  22003387.48600                  -5552961.17340  22003391.81140
  -4030469.79100  24015465.49400                  -2850845.16940  24015469.17440
  -8674250.22800  21768249.20500                  -6613670.23740  21768251.49040
  -8435902.52000  22702416.67400                  -6317956.53040  22702419.27540
 96  9 11  0 48 30.0020000  0  6  1 14 15 22 25 29
  15328694.14800  24861675.15800                  12114677.80840  24861678.55740
 -12039751.70500  22124341.51800                  -9265054.18640  22124345.25640
  -7256833.25000  22018741.53300                  -5490089.57840  22018745.75240
  -4099166.24600  24002393.21300                  -2904374.82640  24002398.25240
  -8599529.92400  21782468.11100                  -6555446.62340  21782470.70140
  -8457254.22600  22698353.47900                  -6334594.21140  22698356.16240
 96  9 11  0 49  0.0020000  0  6  1 14 15 22 25 29
  15427637.99800  24880504.83800                  12191776.85240  24880509.04540
 -12083835.45600  22115952.59600                  -9299405.15140  22115956.35740
  -7175622.88100  22034195.11900                  -5426808.79040  22034199.29140
  -4167739.05000  23989344.11100                  -2957808.11340  23989348.24840
  -8524439.81100  21796757.08000                  -6496934.85240  21796759.83440
  -8478468.63000  22694316.50200                  -6351124.89440  22694319.50240
 96  9 11  0 49 30.0020000  0  6  1 14 15 22 25 29
  15526605.45100  24899337.05700                  12268894.34340  24899341.11140
 -12127687.86800  22107607.83000                  -9333575.85240  22107611.59240
  -7093893.61400  22049747.61900                  -5363123.66240  22049751.72140
  -4236207.50700  23976315.01800                  -3011160.09940  23976319.16640
  -8448985.28200  21811115.58800                  -6438139.11440  21811118.37740
  -8499562.25800  22690302.38500                  -6367561.46940  22690305.39640
 96  9 11  0 50  0.0020000  0  6  1 14 15 22 25 29
  15625590.90600  24918173.53300                  12346025.82740  24918177.33040
 -12171305.62400  22099307.58800                  -9367563.70540  22099311.37340
  -7011647.13900  22065398.95500                  -5299035.51940  22065403.19740
  -4304577.44200  23963304.71300                  -3064435.30840  23963309.20140
  -8373165.25600  21825543.59600                  -6379058.57640  21825546.18640
  -8520522.39000  22686313.97100                  -6383894.02440  22686316.92440
 96  9 11  0 50 30.0020000  0  6  1 14 15 22 25 29
  15724585.55100  24937011.20500                  12423164.46940  24937016.01040
 -12214681.98800  22091053.17400                  -9401363.46240  22091056.84240
  -6928887.84100  22081147.37700                  -5234547.77140  22081151.46740
  -4372843.14700  23950314.14300                  -3117629.32340  23950319.29940
  -8296979.50300  21840041.29100                  -6319693.05240  21840043.91640
  -8541339.61700  22682352.45500                  -6400115.23040  22682355.46740
 96  9 11  0 51  0.0020000  0  6  1 14 15 22 25 29
  15823587.43700  24955850.59600                  12500308.79340  24955854.04140
 -12257796.48700  22082848.70500                  -9434959.15840  22082852.63140
  -6845619.34200  22096992.90800                  -5169663.23840  22096997.31440
  -4441000.98800  23937344.07200                  -3170739.27640  23937348.18640
  -8220398.05900  21854614.42400                  -6260019.20440  21854616.86140
  -8562007.96300  22678419.47900                  -6416220.41740  22678422.66640
 96  9 11  0 51 30.0020000  0  6  1 14 15 22 25 29
  15922592.33500  24974690.33800                  12577455.44940  24974695.50640
 -12300638.08100  22074696.40800                  -9468342.21140  22074700.08840
  -6761844.46100  22112934.54100                  -5104384.12740  22112938.72540
  -4509036.61000  23924397.33000                  -3223753.97440  23924401.78340
  -8143396.01100  21869267.36100                  -6200017.60940  21869269.95140
  -8582530.78100  22674513.90000                  -6432212.20940  22674516.67840
 96  9 11  0 52  0.0020000  0  6  1 14 15 22 25 29
  16021610.44400  24993533.22100                  12654612.36840  24993536.92440
 -12343190.21200  22066598.94700                  -9501499.70440  22066602.68640
  -6677560.31500  22128973.25200                  -5038708.18440  22128977.48240
  -4576940.92000  23911475.58000                  -3276666.36840  23911480.09240
  -8065960.82500  21884002.90000                  -6139678.50340  21884005.58440
  -8602878.28100  22670642.15000                  -6448067.38340  22670644.97540
 96  9 11  0 52 30.0020000  0  6  1 14 15 22 25 29
  16120659.44700  25012382.68900                  12731793.41440  25012387.35440
 -12385446.61600  22058557.95500                  -9534426.76940  22058561.41240
  -6592766.74000  22145108.84600                  -4972635.28440  22145112.99440
  -4644708.82300  23898579.38500                  -3329472.47040  23898583.33440
  -7988092.80800  21898820.66600                  -6079002.12540  21898823.13940
  -8623054.63100  22666802.47900                  -6463789.19940  22666805.36140
 96  9 11  0 53  0.0020000  0  6  1 14 15 22 25 29
  16219726.69100  25031233.43900                  12808988.63740  25031238.01040
 -12427414.97400  22050571.57200                  -9567129.37240  22050575.02940
  -6507472.60300  22161339.91600                  -4906172.33840  22161344.19340
  -4712344.53000  23885708.50200                  -3382175.56940  23885713.16640
  -7909804.99100  21913718.31400                  -6017998.63340  21913720.78740
  -8643077.29900  22662992.50200                  -6479391.26740  22662995.26840
 96  9 11  0 53 30.0020000  0  6  1 14 15 22 25 29
  16318781.93900  25050083.46300                  12886174.49040  25050088.57240
 -12469122.40200  22042634.97100                  -9599628.65140  22042638.72140
  -6421691.19700  22177663.37700                  -4839329.70140  22177667.68940
  -4779849.21800  23872863.17400                  -3434776.56840  23872867.56840
  -7831120.09900  21928691.55700                  -5956685.72940  21928694.18240
  -8662961.86400  22659208.49400                  -6494885.71440  22659211.79940
 96  9 11  0 54  0.0020000  0  6  1 14 15 22 25 29
  16417829.18800  25068931.68900                  12963354.18040  25068934.02140
 -12510550.04900  22034751.55700                  -9631909.92740  22034755.26040
  -6335408.30800  22194082.72100                  -4772096.29840  22194087.09240
  -4847204.98800  23860045.54100                  -3487261.53140  23860051.28340
  -7752039.11200  21943740.22900                  -5895064.18840  21943742.67840
  -8682696.20100  22655452.98600                  -6510263.10840  22655455.76440
 96  9 11  0 54 30.0020000  0  6  1 14 15 22 25 29
  16516851.69600  25087774.15000                  13040514.51640  25087778.48640
 -12551705.05400  22026919.83800                  -9663978.75540  22026923.08440
  -6248633.08100  22210595.45500                  -4704479.25540  22210600.08440
  -4914403.69700  23847257.95500                  -3539624.10440  23847261.85740
  -7672583.71300  21958859.89300                  -5833150.89240  21958862.42440
  -8702315.17200  22651719.83000                  -6525550.60040  22651722.68940
 96  9 11  0 55  0.0020000  0  6  1 14 15 22 25 29
  16615840.38900  25106611.11900                  13117648.56140  25106617.58840
 -12592584.83600  22019140.87700                  -9695833.12340  22019144.52140
  -6161366.23400  22227202.03300                  -4636479.13340  22227206.15840
  -4981435.86300  23834502.38500                  -3591856.91540  23834506.48640
  -7592762.23400  21974049.43900                  -5770952.33640  21974052.00640
  -8721814.51700  22648009.18900                  -6540744.87840  22648011.80340
 96  9 11  0 55 30.0020000  0  6  1 14 15 22 25 29
  16714806.20600  25125445.26000                  13194764.74940  25125448.36540
 -12633202.64000  22011411.53300                  -9727483.35540  22011415.04940
  -6073614.26000  22243900.43200                  -4568100.98540  22243904.67440
  -5048312.99900  23821776.26800                  -3643968.92940  23821781.15440
  -7512581.80900  21989306.97100                  -5708474.08840  21989309.30340
  -8741192.48100  22644321.74400                  -6555844.58140  22644324.51040
 96  9 11  0 56  0.0020000  0  6  1 14 15 22 25 29
  16813784.00500  25144279.43900                  13271890.31740  25144284.78340
 -12673547.96000  22003734.03300                  -9758921.25540  22003737.45540
  -5985375.10000  22260691.65800                  -4499343.21340  22260695.70140
  -5115038.93700  23809078.41600                  -3695963.13040  23809083.30340
  -7432041.68500  22004633.54100                  -5645715.54640  22004636.10740
  -8760435.45600  22640659.68900                  -6570839.09740  22640662.44340
 96  9 11  0 56 30.0020000  0  6  1 14 15 22 25 29
  16912789.53800  25163118.97100                  13349037.43340  25163122.49840
 -12713624.96800  21996107.59600                  -9790150.08940  21996111.19340
  -5896651.99100  22277575.22900                  -4430208.34040  22277579.51840
  -5181611.88600  23796410.19700                  -3747838.11340  23796415.18940
  -7351134.63800  22020029.73600                  -5582671.10140  22020032.35040
  -8779536.87100  22637025.06400                  -6585723.29840  22637027.61940
 96  9 11  0 57  0.0020000  0  6  1 14 15 22 25 29
  17011829.08300  25181967.08800                  13426211.11840  25181969.99440
 -12753431.83000  21988532.48600                  -9821168.41140  21988536.08440
  -5807447.06300  22294550.42400                  -4360698.01640  22294554.76040
  -5248043.38600  23783768.41600                  -3799602.88340  23783773.60740
  -7269840.59800  22035499.51000                  -5519325.09340  22035502.04140
  -8798477.99000  22633420.65000                  -6600482.59740  22633423.42840
 96  9 11  0 57 30.0020000  0  6  1 14 15 22 25 29
  17110911.09300  25200819.97900                  13503417.83740  25200825.89640
 -12792963.38800  21981009.94700                  -9851972.21740  21981013.51040
  -5717758.41800  22311617.60400                  -4290810.77540  22311621.95140
  -5314327.82100  23771154.40000                  -3851253.05440  23771159.05340
  -7188144.97900  22051045.44700                  -5455666.17140  22051047.89640
  -8817257.32700  22629847.06400                  -6615115.83340  22629849.94740
 96  9 11  0 58  0.0020000  0  6  1 14 15 22 25 29
  17210022.34700  25219680.37700                  13580647.31440  25219685.22940
 -12832205.90900  21973542.33800                  -9882550.80340  21973545.83040
  -5627598.35400  22328774.40800                  -4220556.19940  22328778.68640
  -5380454.01300  23758571.30700                  -3902779.91240  23758576.45140
  -7106063.14300  22066665.30700                  -5391706.30340  22066667.77940
  -8835883.79900  22626302.57200                  -6629629.95440  22626305.30340
 96  9 11  0 58 30.0020000  0  6  1 14 15 22 25 29
  17309156.30100  25238545.58800                  13657894.61640  25238550.87340
 -12871136.19400  21966134.20500                  -9912886.07740  21966137.67440
  -5536960.79200  22346022.16600                  -4149929.54040  22346026.65440
  -5446412.19500  23746020.40800                  -3954175.86440  23746025.30740
  -7023593.09100  22082358.80700                  -5327443.92140  22082361.22140
  -8854353.81500  22622787.77500                  -6644022.16140  22622790.51840
 96  9 11  0 59  0.0020000  0  6  1 14 15 22 25 29
  17408297.99200  25257411.21300                  13735147.79240  25257416.67440
 -12909754.75700  21958785.20500                  -9942978.45940  21958788.93240
  -5445854.82100  22363359.24400                  -4078937.89440  22363363.59240
  -5512202.29500  23733500.36900                  -4005440.84140  23733504.91640
  -6940763.15000  22098120.71300                  -5262901.11340  22098123.12740
  -8872673.66800  22619301.65000                  -6658297.35440  22619304.28740
 96  9 11  0 59 30.0020000  0  6  1 14 15 22 25 29
  17507441.87400  25276277.87700                  13812402.76740  25276283.42040
 -12948056.59600  21951496.69700                  -9972824.03240  21951500.42440
  -5354286.42700  22380784.26800                  -4007585.91540  22380788.53340
  -5577815.21900  23721014.74400                  -4056567.74040  23721019.22140
  -6857601.38900  22113945.99400                  -5198099.74340  22113948.42040
  -8890848.88100  22615842.64300                  -6672459.84640  22615845.59640
 96  9 11  1  0  0.0020000  0  6  1 14 15 22 25 29
  17606586.48200  25295144.54100                  13889658.28740  25295145.06840
 -12986028.02500  21944270.98600                 -10002412.15240  21944274.74840
  -5262254.06300  22398297.30700                  -3935872.40840  22398301.15040
  -5643254.14600  23708561.82200                  -4107559.07640  23708565.79540
  -6774108.88500  22129834.15800                  -5133040.65340  22129836.77140
  -8908870.74600  22612413.43200                  -6686502.84440  22612416.12740
 96  9 11  1  0 30.0020000  0  6  1 14 15 22 25 29
  17705709.16700  25314006.86900                  13966896.73340  25314010.61940
 -13023697.16200  21937102.50200                 -10031764.71940  21937105.90040
  -5169764.35800  22415897.47900                  -3863802.52540  22415901.61540
  -5708531.97400  23696140.30700                  -4158424.86440  23696145.07640
  -6690284.31900  22145785.13500                  -5067722.81340  22145787.63140
  -8926749.54300  22609011.11900                  -6700434.36640  22609014.02540
 96  9 11  1  1  0.0020000  0  6  1 14 15 22 25 29
  17804815.06900  25332865.96300                  14044122.05940  25332870.75640
 -13061076.65700  21929989.42400                 -10060891.59140  21929993.01040
  -5076815.10400  22433585.40800                  -3791374.55240  22433589.32240
  -5773636.53300  23683751.28300                  -4209155.66040  23683756.27540
  -6606115.40500  22161802.04900                  -5002136.64840  22161804.72140
  -8944492.68900  22605634.67400                  -6714260.18440  22605637.45140
 96  9 11  1  1 30.0020000  0  6  1 14 15 22 25 29
  17903912.18800  25351724.10400                  14121340.59240  25351726.48240
 -13098173.63800  21922930.33000                 -10089798.32340  21922933.98640
  -4983412.25100  22451359.19700                  -3718593.12040  22451363.62740
  -5838573.56400  23671393.93900                  -4259755.89740  23671399.11940
  -6521579.95000  22177888.76000                  -4936264.87140  22177891.35040
  -8962111.14200  22602282.17400                  -6727988.83140  22602284.67040
 96  9 11  1  2  0.0020000  0  6  1 14 15 22 25 29
  18003011.04300  25370581.26800                  14198560.49640  25370584.70140
 -13134989.42500  21915924.48600                 -10118485.93840  21915928.17840
  -4889558.13900  22469219.26800                  -3645460.05640  22469222.94740
  -5903337.31200  23659070.06400                  -4310221.13140  23659075.03340
  -6436668.53500  22194046.76800                  -4870100.13340  22194049.34640
  -8979611.03800  22598952.07200                  -6741625.10240  22598955.08440
 96  9 11  1  2 30.0020000  0  6  1 14 15 22 25 29
  18102127.68400  25389442.62700                  14275794.19740  25389447.05740
 -13171519.95600  21908972.90000                 -10146951.28040  21908976.63940
  -4795253.84700  22487164.59600                  -3571976.20440  22487168.94340
  -5967914.65000  23646781.16600                  -4360541.08740  23646786.13540
  -6351387.76700  22210275.09600                  -4803647.58740  22210277.67440
  -8997004.53200  22595642.24400                  -6755178.46040  22595644.89340
 96  9 11  1  3  0.0020000  0  6  1 14 15 22 25 29
  18201286.16400  25408312.81400                  14353060.51940  25408317.74840
 -13207747.07800  21902079.15000                 -10175180.19740  21902082.79540
  -4700507.53600  22505194.28300                  -3498147.93940  22505198.33840
  -6032297.59100  23634529.63500                  -4410709.57840  23634533.73640
  -6265747.62200  22226571.79900                  -4736915.01340  22226574.44740
  -9014297.03700  22592351.43200                  -6768653.13040  22592354.18640
 96  9 11  1  3 30.0020000  0  6  1 14 15 22 25 29
  18300492.34100  25427190.15800                  14430364.04640  25427194.70540
 -13243648.12800  21895247.46300                 -10203155.03740  21895251.09640
  -4605319.39400  22523307.90800                  -3423975.37540  22523312.36140
  -6096472.24800  23622317.57200                  -4460715.78440  23622321.94340
  -6179765.33700  22242933.73600                  -4669915.83540  22242936.30340
  -9031466.44400  22589084.18900                  -6782031.87240  22589087.08440
 96  9 11  1  4  0.0020000  0  6  1 14 15 22 25 29
  18399739.06900  25446076.35400                  14507699.09040  25446082.04940
 -13279211.13000  21888480.02500                 -10230866.45140  21888483.56440
  -4509688.71600  22541505.83000                  -3349457.98540  22541509.99040
  -6160425.93600  23610147.33000                  -4510549.77040  23610151.98240
  -6093467.33100  22259355.70500                  -4602670.63940  22259358.34240
  -9048502.78500  22585842.26800                  -6795306.92940  22585844.86940
 96  9 11  1  4 30.0020000  0  6  1 14 15 22 25 29
  18499020.83000  25464969.31400                  14585061.53040  25464974.65840
 -13314441.03800  21881776.11900                 -10258318.31540  21881779.65840
  -4413621.30300  22559787.08800                  -3274600.27940  22559791.50640
  -6224159.01700  23598019.67400                  -4560211.87440  23598024.08040
  -6006852.68900  22275837.97900                  -4535178.71240  22275840.55740
  -9065402.41700  22582626.45500                  -6808475.45840  22582629.26840
 96  9 11  1  5  0.0020000  0  6  1 14 15 22 25 29
  18598329.28900  25483865.88500                  14662444.69940  25483868.39340
 -13349336.00200  21875135.58000                 -10285509.18740  21875139.14340
  -4317115.40400  22578151.18900                  -3199400.89140  22578155.64340
  -6287660.39500  23585935.42400                  -4609693.43140  23585939.87740
  -5919914.18000  22292381.96300                  -4467434.42340  22292384.40040
  -9082141.10700  22579440.93200                  -6821518.57840  22579443.52140
 96  9 11  1  5 30.0020000  0  6  1 14 15 22 25 29
  18697638.98800  25502765.02500                  14739828.89040  25502770.07640
 -13383909.08100  21868556.54100                 -10312449.23840  21868560.38540
  -4220173.90200  22596598.54900                  -3123862.07740  22596602.97940
  -6350936.68200  23573894.39300                  -4658999.59040  23573898.43640
  -5832655.41800  22308986.75200                  -4399440.58840  22308989.29540
  -9098710.41800  22576288.10400                  -6834429.70940  22576290.98640
 96  9 11  1  6  0.0020000  0  6  1 14 15 22 25 29
  18796940.12300  25521661.72100                  14817206.37740  25521664.00640
 -13418174.93700  21862035.97100                 -10339149.89840  21862039.41640
  -4122803.62800  22615127.76800                  -3047989.16240  22615132.30340
  -6414002.71400  23561893.18900                  -4708141.90240  23561897.09240
  -5745063.03800  22325655.08000                  -4331186.78740  22325657.62340
  -9115126.55400  22573164.40000                  -6847221.49340  22573166.87340
 96  9 11  1  6 30.0020000  0  6  1 14 15 22 25 29
  18896231.21400  25540556.68200                  14894575.92640  25540561.49840
 -13452130.26400  21855574.56400                 -10365608.58640  21855578.09240
  -4025005.72300  22633737.97900                  -2971783.02440  22633742.33840
  -6476858.46500  23549932.41600                  -4757120.37640  23549937.43240
  -5657118.68500  22342390.35400                  -4262658.72640  22342393.00240
  -9131391.50100  22570069.14300                  -6859895.46240  22570071.80340
 96  9 11  1  7  0.0020000  0  6  1 14 15 22 25 29
  18995494.80500  25559445.43900                  14971924.24740  25559449.54140
 -13485777.44200  21849171.62700                 -10391827.16440  21849175.15440
  -3926790.45700  22652428.08800                  -2895251.66440  22652432.37740
  -6539503.94100  23538011.66600                  -4805934.99940  23538015.82640
  -5568838.86400  22359189.45500                  -4193869.25840  22359191.95140
  -9147517.50200  22567000.32200                  -6872461.16640  22567002.77140
 96  9 11  1  7 30.0020000  0  6  1 14 15 22 25 29
  19094740.90200  25578330.60400                  15049258.86440  25578335.87740
 -13519096.78800  21842831.20500                 -10417790.28240  21842834.74440
  -3828153.36500  22671197.93200                  -2818391.60840  22671202.09240
  -6601927.15100  23526132.52500                  -4854576.42240  23526137.17840
  -5480211.82900  22376054.49400                  -4124809.23640  22376057.07240
  -9163505.83000  22563957.88500                  -6884919.58940  22563960.70940
 96  9 11  1  8  0.0020000  0  6  1 14 15 22 25 29
  19193981.78400  25597215.79900
 -13552062.80300  21836557.97100                 -10443478.08240  21836561.54540
  -3729097.18300  22690047.54100                  -2741204.99940  22690051.81840
  -6664116.34000  23514297.86900                  -4903035.50140  23514302.60440
  -5391235.77000  22392986.18200                  -4055477.24540  22392988.59640
  -9179365.82100  22560939.73600                  -6897278.01140  22560942.47940
 96  9 11  1  8 30.0020000  0  6  1 14 15 22 25 29
  19293224.75600  25616101.51000
 -13584669.05700  21830353.15800                 -10468885.54140  21830356.66240
  -3629629.00600  22708975.91600                  -2663697.33740  22708980.58040
  -6726051.05200  23502512.21300                  -4951296.26640  23502516.24440
  -5301919.91900  22409982.31400                  -3985880.48140  22409984.72940
  -9195103.60400  22557945.05700                  -6909541.20340  22557947.74040
 96  9 11  1  9  0.0030000  0  5 14 15 22 25 29
 -13616913.15200  21824217.30400                 -10494010.81140  21824221.01940
  -3529745.41700  22727983.07700                  -2585865.99740  22727987.70640
  -6787720.72600  23490776.69400                  -4999350.52640  23490781.12440
  -5212269.31900  22427042.15500                  -3916022.87540  22427044.86240
  -9210711.16400  22554974.90500                  -6921702.93040  22554977.46040
 96  9 11  1  9 30.0030000  0  5 14 15 22 25 29
 -13648789.79400  21818151.51500                 -10518849.74240  21818155.14740
  -3429453.56700  22747068.10800                  -2507716.51540  22747072.52640
  -6849126.71600  23479091.71800                  -5047199.31640  23479095.70240
  -5122286.72400  22444165.64700                  -3845906.57040  22444168.39040
  -9226180.15900  22552031.40500                  -6933756.67340  22552033.98340
 96  9 11  1 10  0.0030000  0  5 14 15 22 25 29
 -13680309.86700  21812153.24900                 -10543410.83140  21812156.89440
  -3328755.30100  22766230.01500                  -2429250.34340  22766234.39740
  -6910271.27100  23467456.67900                  -5094844.38840  23467460.39440
  -5031983.65200  22461349.49900                  -3775540.54940  22461352.06540
  -9241511.78600  22549113.86600                  -6945703.38640  22549116.33940
 96  9 11  1 10 30.0030000  0  5 14 15 22 25 29
 -13711483.88900  21806220.95200                 -10567702.27540  21806224.50340
  -3227651.58600  22785469.56200                  -2350468.25340  22785473.86240
  -6971162.36600  23455869.03800                  -5142291.95540  23455873.80840
  -4941369.76500  22478592.86600                  -3704932.33040  22478595.31540
  -9256691.88200  22546225.04600                  -6957532.02140  22546227.67140
 96  9 11  1 11  0.0030000  0  5 14 15 22 25 29
 -13742315.44900  21800354.23300                 -10591726.86040  21800357.89040
  -3126147.04600  22804785.08500                  -2271373.82440  22804789.80840
  -7031822.40900  23444326.03000                  -5189559.48440  23444329.65140
  -4850452.84100  22495893.62400                  -3634087.97240  22495896.23740
  -9271713.43800  22543366.71000                  -6969237.11740  22543369.39440
 96  9 11  1 11 30.0030000  0  5 14 15 22 25 29
 -13772795.84800  21794554.02200                 -10615477.81240  21794557.60840
  -3024246.55100  22824176.36600                  -2191970.88140  22824180.70240
  -7092257.54000  23432824.97600                  -5236651.76440  23432829.87440
  -4759238.47900  22513251.40500                  -3563011.85140  22513253.98340
  -9286578.79700  22540537.87400                  -6980820.50040  22540540.27640
 96  9 11  1 12  0.0030000  0  5 14 15 22 25 29
 -13802920.64900  21788821.30400                 -10638951.67540  21788824.79640
  -2921949.73000  22843642.85800                  -2112259.09940  22843647.34740
  -7152458.08500  23421369.35800                  -5283561.25140  23421373.54240
  -4667734.99800  22530663.65500                  -3491710.44440  22530666.24540
  -9301283.06200  22537739.92900                  -6992278.35640  22537742.60140
 96  9 11  1 12 30.0030000  0  5 14 15 22 25 29
 -13832701.86900  21783154.21800                 -10662157.82240  21783157.88640
  -2819265.97900  22863183.03000                  -2032245.81340  22863187.39040
  -7212427.66500  23409957.83500                  -5330290.75640  23409961.64440
  -4575939.54000  22548132.01500                  -3420181.52140  22548134.61640
  -9315840.04000  22534969.56900                  -7003621.44740  22534972.22940
 96  9 11  1 13  0.0030000  0  5 14 15 22 25 29
 -13862133.75900  21777553.25700                 -10685091.74940  21777556.81940
  -2716196.51800  22882796.47600                  -1951931.96740  22882801.16340
  -7272142.08700  23398594.39000                  -5376821.44440  23398598.10440
  -4483841.64700  22565657.68700                  -3348416.93040  22565660.46440
  -9330267.61000  22532224.14700                  -7014863.69540  22532226.94840
 96  9 11  1 13 30.0030000  0  5 14 15 22 25 29
 -13891196.82300  21772022.79600                 -10707738.28840  21772026.32340
  -2612733.38600  22902484.69400                  -1871311.36940  22902488.94840
  -7331573.28900  23387285.12400                  -5423131.43040  23387289.06240
  -4391430.62400  22583242.96000                  -3276408.34540  22583245.79640
  -9344568.32900  22529502.70200                  -7026007.09940  22529505.29240
 96  9 11  1 14  0.0030000  0  5 14 15 22 25 29
 -13919904.29300  21766559.84300                 -10730107.73940  21766563.38240
  -2508882.98200  22922246.93700                  -1790388.99640  22922251.46040
  -7390719.81000  23376029.39000                  -5469219.59340  23376033.59740
  -4298701.19000  22600888.38200                  -3204151.65040  22600890.94840
  -9358757.17200  22526802.60800                  -7037063.32740  22526804.98740
 96  9 11  1 14 30.0030000  0  5 14 15 22 25 29
 -13948264.02200  21761163.30400                 -10752206.22240  21761166.98340
  -2404662.02700  22942079.64700                  -1709177.86740  22942084.24140
  -7449581.81700  23364828.71800                  -5515086.06640  23364832.99540
  -4205654.65900  22618594.66300                  -3131647.86440  22618597.13640
  -9372857.16900  22524119.41300                  -7048050.32340  22524122.00340
 96  9 11  1 15  0.0030000  0  5 14 15 22 25 29
 -13976253.81500  21755837.07700                 -10774016.44340  21755840.66340
  -2300056.56000  22961984.99900                  -1627667.14240  22961989.51140
  -7508148.14700  23353684.02200                  -5560722.12840  23353687.85440
  -4112288.96600  22636361.66300                  -3058895.37940  22636364.34740
  -9386841.81800  22521458.44400                  -7058947.44340  22521460.89440
 96  9 11  1 15 30.0030000  0  5 14 15 22 25 29
 -14003889.69800  21750578.13200                 -10795550.89440  21750581.71840
  -2195070.24900  22981963.56900                  -1545859.65040  22981968.01140
  -7566432.39700  23342592.53800                  -5606138.40040  23342596.65140
  -4018617.12700  22654186.96800                  -2985904.33940  22654189.47640
  -9400690.98100  22518822.71000                  -7069738.98740  22518825.30040
 96  9 11  1 16  0.0030000  0  5 14 15 22 25 29
 -14031170.20600  21745386.76500                 -10816808.42340  21745390.29240
  -2089705.16400  23002013.73300                  -1463757.01540  23002018.19840
  -7624430.23400  23331556.06200                  -5651331.48840  23331560.24540
  -3924641.12500  22672070.03000                  -2912676.29340  22672072.45640
  -9414385.34300  22516216.87400                  -7080409.90940  22516219.53440
 96  9 11  1 16 30.0030000  0  5 14 15 22 25 29
 -14058091.57500  21740263.96000                 -10837786.10440  21740267.53440
  -1983971.43900  23022133.98300                  -1381367.12840  23022138.37840
  -7682141.23200  23320573.79600                  -5696301.05440  23320577.83940
  -3830379.19200  22690007.28000                  -2839225.44840  22690010.17540
  -9427918.13400  22513641.78000                  -7090954.92940  22513644.66340
 96  9 11  1 17  0.0030000  0  5 14 15 22 25 29
 -14084638.45600  21735212.09300                 -10858471.97640  21735215.56240
  -1877872.41500  23042324.05400                  -1298692.58740  23042328.51940
  -7739565.25200  23309646.61600                  -5741047.01840  23309650.31940
  -3735844.47700  22707996.81200                  -2765562.03740  22707999.48340
  -9441274.82100  22511100.06900                  -7101362.72440  22511102.71840
 96  9 11  1 17 30.0030000  0  5 14 15 22 25 29
 -14110778.23400  21730237.92900                 -10878840.62540  21730241.53840
  -1771405.04200  23062584.45200                  -1215731.02240  23062589.21040
  -7796692.00300  23298775.74900                  -5785561.32740  23298779.71040
  -3641027.37500  22726039.78000                  -2691678.58940  22726042.25340
  -9454446.78500  22508593.49100                  -7111626.58240  22508595.94040
 96  9 11  1 18  0.0030000  0  5 14 15 22 25 29
 -14136497.41700  21725343.69400                 -10898881.54240  21725347.33940
  -1664581.34200  23082912.11600                  -1132491.80840  23082916.81540
  -7853519.36700  23287961.68700                  -5829842.36540  23287965.61240
  -3545925.02100  22744137.17900                  -2617572.86640  22744139.71040
  -9467452.70600  22506118.54600                  -7121761.05140  22506121.18340
 96  9 11  1 18 30.0030000  0  5 14 15 22 25 29
 -14161794.24700  21720529.89000                 -10918593.35240  21720533.40540
  -1557404.07200  23103307.38200                  -1048977.07740  23103312.05840
  -7910053.44600  23277203.51500                  -5873894.85540  23277207.81540
  -3450535.34700  22762289.17900                  -2543243.25640  22762291.69840
  -9480308.40800  22503672.06900                  -7131778.47240  22503674.50740
 96  9 11  1 19  0.0030000  0  5 14 15 22 25 29
 -14186667.50100  21715796.65500                 -10937975.09840  21715800.39440
  -1449875.67000  23123769.39000                   -965188.74440  23123774.01940
  -7966299.68700  23266500.28800                  -5917723.05840  23266504.65940
  -3354856.28300  22780496.24900                  -2468688.15040  22780498.72240
  -9493020.64900  22501253.10800                  -7141684.10440  22501255.83940
 96  9 11  1 19 30.0030000  0  5 14 15 22 25 29
 -14211136.45700  21711140.19400                 -10957041.81340  21711143.75740
  -1342004.02900  23144296.82700                   -881132.94440  23144301.19840
  -8022265.61400  23255850.34300                  -5961332.85340  23255854.62040
  -3258887.43500  22798758.79600                  -2393907.23740  22798761.42140
  -9505608.61500  22498857.62400                  -7151492.89740  22498860.17940
 96  9 11  1 20  0.0030000  0  5 14 15 22 25 29
 -14235213.92200  21706558.38200                 -10975803.46540  21706562.01540
  -1233785.51800  23164889.92900                   -796806.85640  23164894.55840
  -8077932.40400  23245256.99100                  -6004709.54440  23245261.26940
  -3162628.58400  22817076.17900                  -2318900.35140  22817078.88640
  -9518078.44100  22496484.85800                  -7161209.62940  22496487.61240
 96  9 11  1 20 30.0030000  0  5 14 15 22 25 29
 -14258903.06100  21702050.37400                 -10994262.52640  21702053.85440
  -1125225.44600  23185548.10800                   -712214.61340  23185553.00740
  -8133292.39800  23234722.46800                  -6047847.16640  23234726.47640
  -3066102.27100  22835444.30400                  -2243685.05040  22835446.92940
  -9530428.80500  22494134.46800                  -7170833.27940  22494137.22240
 96  9 11  1 21  0.0030000  0  5 14 15 22 25 29
 -14282208.74700  21697615.66300                 -11012422.79740  21697619.29640
  -1016327.54100  23206271.14700                   -627359.13940  23206275.27240
  -8188332.00000  23224248.58500                  -6090735.14140  23224252.76940
  -2969313.39800  22853862.47600                  -2168265.15040  22853865.13640
  -9542648.36700  22491809.24100                  -7180355.00940  22491811.86640
 96  9 11  1 21 30.0030000  0  5 14 15 22 25 29
 -14305133.69800  21693253.23300                 -11030286.38340  21693256.77240
   -907097.59300  23227056.94400                   -542244.92240  23227061.31540
  -8243037.30500  23213838.63200                  -6133362.62540  23213842.46440
  -2872270.05800  22872329.28000                  -2092646.96540  22872332.23340
  -9554737.24200  22489508.67900                  -7189774.90440  22489511.11640
 96  9 11  1 22  0.0030000  0  5 14 15 22 25 29
 -14327670.86900  21688964.63200                 -11047847.80740  21688968.14740
   -797532.06600  23247906.76500                   -456869.20540  23247911.37040
  -8297390.91800  23203495.29600                  -6175716.04940  23203499.45640
  -2774968.20000  22890845.24100                  -2016827.33840  22890847.97240
  -9566673.08000  22487237.36600                  -7199075.54640  22487239.92140
 96  9 11  1 22 30.0030000  0  5 14 15 22 25 29
 -14349810.07000  21684751.64700                 -11065099.12540  21684755.22240
   -687628.74800  23268820.27200                   -371230.28940  23268824.43340
  -8351383.37700  23193221.00700                  -6217788.05540  23193225.27240
  -2677395.73200  22909412.85800                  -1940796.85340  22909415.64740
  -9578443.32300  22484997.49900                  -7208247.15640  22485000.10140
 96  9 11  1 23  0.0030000  0  6 14 15 18 22 25 29
 -14371548.49200  21680614.84300                 -11082038.14440  21680618.46440
   -577393.64900  23289797.51500                   -285332.83340  23289801.93340
    -19852.40210  25710307.52200
  -8405029.53700  23183012.21000                  -6259590.23640  23183016.01940
  -2579548.06300  22928032.70200                  -1864551.91840  22928035.46840
  -9590055.68400  22482787.85100                  -7217295.73740  22482790.55840
 96  9 11  1 23 30.0030000  0  6 14 15 18 22 25 29
 -14392876.69700  21676556.27200                 -11098657.51640  21676559.77640
   -466836.95300  23310835.77200                   -199184.79440  23310839.82740
    -73975.35800  25700007.17100
  -8458335.49200  23172868.89000                  -6301127.30540  23172872.85140
  -2481438.27900  22946702.35100                  -1788102.73240  22946704.83540
  -9601514.96300  22480607.01500                  -7226225.03840  22480609.67540
 96  9 11  1 24  0.0030000  0  6 14 15 18 22 25 29
 -14413804.48000  21672573.89700                 -11114964.87640  21672577.35440
   -355970.56600  23331932.82700                   -112795.41740  23331937.46840
   -128063.44800  25689714.51500
  -8511309.05100  23162787.78800                  -6342405.36640  23162791.93740
  -2383070.98000  22965420.85800                  -1711452.89440  22965423.36640
  -9612835.33900  22478453.04600                  -7235046.09740  22478455.75340
 96  9 11  1 24 30.0030000  0  6 14 15 18 22 25 29
 -14434305.65500  21668672.64000                 -11130939.81040  21668676.12040
   -244785.71500  23353090.61600                    -26157.89440  23353095.29240
   -182105.15200  25679430.18700
  -8563947.31300  23152771.43700                  -6383422.16140  23152775.45640
  -2284449.97400  22984188.10100                  -1634605.36340  22984190.69040
  -9624008.41200  22476326.83500                  -7243752.38440  22476329.57740
 96  9 11  1 25  0.0030000  0  6 14 15 18 22 25 29
 -14454383.99800  21664851.78000                 -11146585.26340  21664855.16740
   -133290.45500  23374307.65500                     60721.48940  23374312.00340
   -236106.78100  25669154.01500
  -8616259.98400  23142816.38200                  -6424185.22940  23142819.76940
  -2185586.31000  23003001.06900                  -1557568.74840  23003003.72940
  -9635036.91900  22474228.08500                  -7252346.01740  22474230.65140
 96  9 11  1 25 30.0030000  0  6 14 15 18 22 25 29
 -14474042.95400  21661111.02200                 -11161903.91840  21661114.47940
    -21487.88800  23395582.78000                    147840.34640  23395587.14040
   -290089.96200  25658881.78000
  -8668235.05500  23132925.73300                  -6464685.25240  23132929.61240
  -2086477.91900  23021860.76500                  -1480341.42640  23021863.08540
  -9645924.41500  22472156.26500                  -7260829.77140  22472159.05440
 96  9 11  1 26  0.0030000  0  6 14 15 18 22 25 29
 -14493293.32300  21657447.55400                 -11176904.20340  21657451.02240
     90618.88800  23416916.09300                    235196.25240  23416920.78040
   -344076.97300  25648608.04600                    -30850.00150  25648614.95240
  -8719880.31900  23123098.32700                  -6504928.27040  23123102.68740
  -1987121.48600  23040767.77200                  -1402920.83540  23040770.28040
  -9656675.50800  22470110.53000                  -7269207.23640  22470113.23740
 96  9 11  1 26 30.0030000  0  6 14 15 18 22 25 29
 -14512113.32500  21653866.19400                 -11191569.13940  21653869.52240
    203033.04400  23438307.81900                    322791.66540  23438312.84740
   -398064.65200  25638335.27200                    -72918.24040  25638344.86240
  -8771187.09200  23113334.75700                  -6544907.54340  23113339.04640
  -1887515.92900  23059721.98300                  -1325306.12240  23059724.46840
  -9667281.77500  22468092.15500                  -7277471.85240  22468094.72240
 96  9 11  1 27  0.0030000  0  6 14 15 18 22 25 29
 -14530520.38900  21650363.31900                 -11205912.30040  21650366.97640
    315741.95900  23459755.53000                    410616.75840  23459759.92540
   -452053.43500  25628060.56900                   -114987.33440  25628066.07740
  -8822141.80500  23103638.39700                  -6584612.48340  23103642.67540
  -1787652.64200  23078725.60800                  -1247490.57640  23078727.99940
  -9677770.06400  22466096.41300                  -7285644.53940  22466099.10840
 96  9 11  1 27 30.0030000  0  6 14 15 18 22 25 29
 -14548510.12600  21646940.06200                 -11219930.26940  21646943.49540
    428749.12200  23481260.04600                    498674.26240  23481264.69840
   -506031.45700  25617788.63200                   -157048.24140  25617799.92140
  -8872730.25300  23094011.64000                  -6624032.01640  23094016.08140
  -1687526.61700  23097778.90500                  -1169470.30040  23097781.34340
  -9688134.10600  22464124.03800                  -7293720.40740  22464126.65140
 96  9 11  1 28  0.0030000  0  6 14 15 18 22 25 29
 -14566087.61900  21643595.21000                 -11233627.01040  21643598.65540
    542045.57000  23502820.13200                    586957.17440  23502824.84340
   -559992.51000  25607520.48300                   -199095.72640  25607521.92540
  -8922951.88800  23084454.65500                  -6663165.72740  23084459.30840
  -1587145.86600  23116880.51500                  -1091251.53540  23116882.69440
  -9698378.80000  22462174.62400                  -7301703.27740  22462177.24940
 96  9 11  1 28 30.0030000  0  6 14 15 18 22 25 29
 -14583253.07800  21640328.68700                 -11247002.68840  21640332.17940
    655629.18900  23524433.88200                    675463.86040  23524438.01940
   -613914.08900  25597259.78000                   -241112.45240  25597263.23740
  -8972792.44900  23074970.53000                  -6702002.48940  23074974.64440
  -1486504.17600  23136032.04600                  -1012829.44340  23136034.31940
  -9708510.35300  22460246.73300                  -7309597.98740  22460249.37040
 96  9 11  1 29  0.0030000  0  6 14 15 18 22 25 29
 -14600009.03900  21637140.13200                 -11260059.27940  21637143.70640
    769498.93000  23546102.83500                    764193.49840  23546107.37040
   -667795.40700  25587006.23300                   -283097.85540  25587011.72940
  -9022257.58400  23065557.57700                  -6740546.71740  23065561.51540
  -1385597.86300  23155233.67900                   -934201.14940  23155236.25740
  -9718521.58800  22458341.44400                  -7317398.94040  22458344.17540
 96  9 11  1 29 30.0030000  0  6 14 15 18 22 25 29
 -14616347.05300  21634031.17100                 -11272790.19640  21634034.68740
    883649.42400  23567825.04600                    853141.90640  23567829.39440
   -721648.65800  25576758.67100                   -325061.34740  25576764.89440
  -9071371.05200  23056211.57700                  -6778816.90940  23056215.29240
  -1284442.30500  23174483.03000                   -855378.63540  23174485.38640
  -9728385.04500  22456464.28800                  -7325084.74040  22456466.80840
 96  9 11  1 30  0.0030000  0  6 14 15 18 22 25 29
 -14632248.86800  21631005.28800                 -11285181.21840  21631008.79240
    998072.65800  23589598.53000                    942302.84340  23589602.47940
   -775483.98900  25566513.57700                   -367010.97240  25566521.08140
  -9120137.09500  23046931.69400                  -6816816.40040  23046935.55040
  -1183051.66000  23193777.18700                   -776372.94940  23193779.31940
  -9738095.73700  22454616.75700                  -7332651.50340  22454619.51140
 96  9 11  1 30 30.0030000  0  6 14 15 18 22 25 29
 -14647693.96000  21628066.19400                 -11297216.35540  21628069.61640
   1112783.33800  23611427.79600                   1031687.76040  23611433.01140
   -829287.04600  25556275.91300                   -408935.35840  25556282.80840
  -9168542.63700  23037720.50700                  -6854534.96040  23037724.23340
  -1081426.06700  23213115.73300                   -697184.18240  23213118.12440
  -9747615.99300  22452804.99100                  -7340069.87540  22452807.58140
 96  9 11  1 31  0.0030000  0  6 14 15 18 22 25 29
 -14662681.29100  21625214.08500                 -11308894.79140  21625217.57740
   1227766.77900  23633308.17900                   1121285.23240  23633312.89040
   -883073.18800  25546040.47600                   -450846.60440  25546045.76140
  -9216606.19400  23028574.20200                  -6891987.04940  23028578.12840
   -979603.09300  23232492.02200                   -617841.60440  23232494.47240
  -9756943.47600  22451030.15500                  -7347338.03740  22451032.52240
 96  9 11  1 31 30.0030000  0  6 14 15 18 22 25 29
 -14677219.60900  21622447.47600                 -11320223.34940  21622450.93340
   1343020.22700  23655240.20200                   1211093.07940  23655244.45640
   -936842.79200  25535808.04600                   -492744.92440  25535811.35140
  -9264309.06100  23019496.30400                  -6929158.08040  23019500.17140
   -877594.83400  23251903.52200                   -538354.66040  23251906.27640
  -9766083.03300  22449290.81900                  -7354459.76040  22449293.35140
 96  9 11  1 32  0.0030000  0  6 14 15 18 22 25 29
 -14691315.15100  21619765.28800                 -11331206.88640  21619768.72240
   1458539.77100  23677223.06200                   1301108.27940  23677227.69040
   -990586.70300  25525581.71000                   -534623.27440  25525586.16340
  -9311624.24500  23010492.81200                  -6966027.02940  23010496.74940
   -775403.36200  23271350.13200                   -458724.95140  23271352.81540
  -9775062.85500  22447581.99100                  -7361457.01940  22447584.34740
 96  9 11  1 32 30.0030000  0  6 14 15 18 22 25 29
 -14704977.84800  21617165.38200                 -11341853.14240  21617168.60440
   1574322.55100  23699255.88200                   1391328.60740  23699260.20640
  -1044298.96100  25515360.15500                   -576476.97340  25515363.28440
  -9358540.67900  23001564.72600                  -7002585.25840  23001568.64040
   -673021.17100  23290832.67900                   -378946.62740  23290835.10440
  -9783906.43300  22445899.10800                  -7368348.11240  22445901.64040
 96  9 11  1 33  0.0030000  0  6 14 15 18 22 25 29
 -14718216.05800  21614646.14700                 -11352168.62540  21614649.45240
   1690350.31900  23721335.37400                   1481739.82540  23721339.66340
  -1097992.43900  25505142.21000                   -618315.94240  25505147.29640
  -9405059.05500  22992712.74900                  -7038833.30040  22992716.83940
   -570444.53800  23310352.14700                   -299016.78540  23310354.50340
  -9792656.51300  22444234.11600                  -7375166.34640  22444236.64740
 96  9 11  1 33 30.0030000  0  6 14 15 18 22 25 29
 -14731013.29300  21612210.96000                 -11362140.48940  21612214.35840
   1806633.51500  23743463.10800                   1572350.07740  23743468.05440
  -1151652.35800  25494931.46000                   -660128.86040  25494935.16340
  -9451144.87100  22983942.74900                  -7074744.31240  22983946.48740
   -467641.81900  23329915.14700                   -218910.77840  23329917.66740
  -9801302.22000  22442588.81900                  -7381903.25140  22442591.31540
 96  9 11  1 34  0.0030000  0  6 14 15 18 22 25 29
 -14743355.08000  21609862.50700                 -11371757.46040  21609865.88240
   1923169.14700  23765639.32700                   1663157.04040  23765644.26140
  -1205264.73000  25484729.31200                   -701904.71940  25484734.56240
  -9496803.75200  22975254.21800                  -7110322.63440  22975258.06240
   -364600.04800  23349523.20200                   -138618.49540  23349525.39440
  -9809838.79800  22440964.31900                  -7388555.12240  22440966.93340
 96  9 11  1 34 30.0030000  0  6 14 15 18 22 25 29
 -14755240.63100  21607600.60800                 -11381018.92140  21607603.99540
   2039956.61300  23787862.85800                   1754160.23740  23787867.34740
  -1258829.42100  25474536.76500                   -743643.38940  25474539.94040
  -9542046.47500  22966644.72600                  -7145576.67540  22966648.78040
   -261305.84900  23369179.39700                    -58129.52140  23369181.50740
  -9818252.70600  22439363.31200                  -7395111.40340  22439366.04240
 96  9 11  1 35  0.0030000  0  6 14 15 18 22 25 29
 -14766669.59000  21605425.62400                 -11389924.59340  21605429.18740
   2156988.92800  23810133.63200                   1845354.22440  23810138.68340
  -1312356.55400  25464350.08500                   -785352.80940  25464353.31940
  -9586881.14600  22958112.89000                  -7180512.74640  22958116.38240
   -157761.74400  23388883.40500                     22554.19740  23388885.65540
  -9826527.83500  22437788.67900                  -7401559.55240  22437791.32740
 96  9 11  1 35 30.0030000  0  6 14 15 18 22 25 29
 -14777637.24500  21603338.65500                 -11398470.81340  21603342.11240
   2274264.07200  23832450.50700                   1936737.42140  23832455.04240
  -1365851.48100  25454170.71800                   -827037.12240  25454173.55440
  -9631310.08500  22949658.60800                  -7215132.66840  22949662.59340
    -53982.97600  23408631.58500                    103420.76640  23408634.32740
  -9834648.97900  22436243.24900                  -7407887.70740  22436245.79240
 96  9 11  1 36  0.0030000  0  6 14 15 18 22 25 29
 -14788154.27500  21601337.35800                 -11406665.89740  21601340.73340
   2391771.95900  23854811.46800                   2028301.98240  23854816.36640
  -1419332.41800  25443993.95200                   -868710.55440  25443999.13240
  -9675351.59400  22941277.76500                  -7249450.70740  22941281.45640
     50015.37800  23428421.75700                    184458.43640  23428424.19440
  -9842635.66600  22434723.38200                  -7414111.08940  22434726.04240
 96  9 11  1 36 30.0030000  0  6 14 15 18 22 25 29
 -14798202.16400  21599425.39000                 -11414495.42440  21599428.84740
   2509519.10100  23877218.00700                   2120052.97340  23877223.04640
  -1472800.10200  25433818.67900                   -910373.66840  25433823.77640
  -9718993.34200  22932972.86600                  -7283457.23140  22932976.20640
    154227.02900  23448252.52200                    265662.31440  23448255.03040
  -9850476.02000  22433231.22600                  -7420220.44840  22433233.81540
 96  9 11  1 37  0.0030000  0  6 14 15 18 22 25 29
 -14807783.85700  21597601.96000                 -11421961.67040  21597605.42940
   2627491.46800  23899667.35800                   2211979.46740  23899671.90540
  -1526262.40400  25423645.23300                   -952032.56340  25423648.53840
  -9762244.48600  22924742.49100                  -7317159.39240  22924746.08940
    258607.25000  23468115.68700                    346997.54540  23468118.71040
  -9858176.14000  22431766.12400                  -7426220.53540  22431768.39740
 96  9 11  1 37 30.0030000  0  6 14 15 18 22 25 29
 -14816902.50100  21595866.60100                 -11429067.09640  21595870.04640
   2745694.01700  23922160.57700                   2304085.32740  23922165.25340
  -1579705.95600  25413475.48300                   -993676.85740  25413480.72240
  -9805097.22900  22916587.56900                  -7350551.10640  22916591.07340
    363156.58400  23488010.67100                    428464.54940  23488012.95640
  -9865723.95400  22430329.87400                  -7432101.94040  22430332.39440
 96  9 11  1 38  0.0030000  0  6 14 15 18 22 25 29
 -14825564.83400  21594218.20200                 -11435816.96140  21594221.60140
   2864112.34600  23944694.61600                   2396359.32140  23944699.59740
  -1633130.33700  25403308.92100                  -1035306.20740  25403314.58140
  -9847562.59400  22908506.74900                  -7383640.97540  22908510.33540
    467865.68200  23507936.49900                    510056.05540  23507938.77240
  -9873117.14300  22428922.96000                  -7437862.85340  22428925.56240
 96  9 11  1 38 30.0030000  0  6 14 15 18 22 25 29
 -14833760.20800  21592658.54600                 -11442202.95840  21592661.85140
   2982748.83900  23967270.68700                   2488803.31140  23967275.57340
  -1686518.90100  25393149.39000                  -1076907.66340  25393153.91340
  -9889623.55200  22900502.78000                  -7416415.71840  22900506.53040
    572733.25300  23527891.83500                    591771.04640  23527894.50740
  -9880332.41000  22427549.71000                  -7443485.13340  22427552.12440
 96  9 11  1 39  0.0030000  0  6 14 15 18 22 25 29
 -14841495.48200  21591186.96000                 -11448230.44440  21591190.38240
   3101604.59000  23989888.04600                   2581418.14440  23989893.06240
  -1739875.09400  25382995.99100                  -1118483.89440  25383000.03440
  -9931259.64300  22892579.94400                  -7448859.40040  22892583.89440
    677781.78400  23547882.01500                    673627.04040  23547884.58140
  -9887373.16300  22426209.96800                  -7448971.43140  22426212.35840
 96  9 11  1 39 30.0040000  0  6 14 15 18 22 25 29
 -14848760.74800  21589804.37900                 -11453891.70740  21589807.80140
   3220681.44800  24012547.51200                   2674205.26940  24012552.62140
  -1793206.04000  25372847.12900                  -1160040.42640  25372850.37540
  -9972451.07500  22884741.27700                  -7480956.59740  22884744.87540
    783047.64600  23567913.30100                    755652.37840  23567915.93740
  -9894247.14200  22424901.71500                  -7454327.76840  22424904.12940
 96  9 11  1 40  0.0040000  0  6 14 15 18 22 25 29
 -14855543.32900  21588513.65200                 -11459176.84940  21588517.08640
   3339967.14800  24035247.09800                   2767155.13640  24035252.61740
  -1846504.81300  25362704.70700                  -1201571.89340  25362709.95740
 -10013190.66900  22876988.91000                  -7512701.71140  22876992.55540
    888535.66600  23587986.87100                    837850.83140  23587989.68440
  -9900974.04800  22423621.96500                  -7459569.49040  22423624.29740
 96  9 11  1 40 30.0040000  0  6 14 15 18 22 25 29
 -14861863.19200  21587311.02700                 -11464101.39240  21587314.42640
   3459456.45300  24057984.98000                   2860263.66940  24057989.71540
  -1899790.87300  25352564.64500                  -1243093.44740  25352568.86340
 -10053482.75400  22869321.46500                  -7544098.11240  22869325.09840
    994248.77600  23608103.71500                    920224.67640  23608105.95340
  -9907584.10600  22422364.06600                  -7464720.19640  22422366.60940
 96  9 11  1 41  0.0040000  0  6 14 15 18 22 25 29
 -14867717.17500  21586196.98800                 -11468662.93340  21586200.32840
   3579151.57400  24080762.30900                   2953532.56740  24080767.17240
  -1953065.37900  25342427.52000                  -1284606.04740  25342432.53540
 -10093326.85300  22861739.59800                  -7575145.42640  22861743.10240
   1100187.94300  23628262.98800                   1002774.67840  23628265.46140
  -9914083.08900  22421127.15200                  -7469784.33140  22421129.61340
 96  9 11  1 41 30.0040000  0  6 14 15 18 22 25 29
 -14873102.00100  21585172.12100                 -11472858.88940  21585175.61340
   3699043.85200  24103577.24600                   3046955.08440  24103581.38340
  -2006315.76900  25332293.41800                  -1326099.79040  25332296.59440
 -10132742.46300  22854238.73000                  -7605858.85740  22854242.89140
   1206330.03100  23648461.42600                   1085482.79640  23648464.21540
  -9920460.69500  22419913.59000                  -7474753.89040  22419916.10940
 96  9 11  1 42  0.0040000  0  6 14 15 18 22 25 29
 -14878024.43300  21584235.45700                 -11476694.55140  21584238.96140
   3819134.07700  24126429.46500                   3140531.83140  24126433.68440
  -2059524.95800  25322168.39500                  -1367561.44040  25322172.41440
 -10171736.86700  22846818.56600                  -7636244.07240  22846822.37540
   1312655.60900  23668694.30900                   1168333.88240  23668696.89840
  -9926709.31500  22418724.49600                  -7479622.93140  22418726.94540
 96  9 11  1 42 30.0040000  0  6 14 15 18 22 25 29
 -14882479.24600  21583387.92600                 -11480165.83840  21583391.33640
   3939424.22000  24149320.45700                   3234264.38540  24149324.98040
  -2112694.66000  25312051.22300                  -1408992.32740  25312055.12540
 -10210290.59900  22839481.79300                  -7666285.91040  22839485.90640
   1419140.75800  23688957.95700                   1251309.30840  23688960.43040
  -9932808.59500  22417563.80100                  -7484375.60540  22417566.28540
 96  9 11  1 43  0.0040000  0  6 14 15 18 22 25 29
 -14886458.04500  21582630.74600                 -11483266.19740  21582634.27340
   4059900.90800  24172245.73800                   3328142.30140  24172251.50440
  -2165823.99300  25301940.14500                  -1450391.76640  25301944.35240
 -10248405.05400  22832228.86300                  -7695985.44640  22832232.77740
   1525765.45100  23709247.85500                   1334393.49340  23709250.64540
  -9938749.57900  22416433.38700                  -7489004.93540  22416436.02340
 96  9 11  1 43 30.0040000  0  6 14 15 18 22 25 29
 -14889949.13500  21581966.16800                 -11485986.52040  21581969.64840
   4180566.36400  24195207.93400                   3422167.31340  24195212.86740
  -2218907.81700  25291839.03500                  -1491755.75340  25291843.12540
 -10286068.14300  22825061.59800                  -7725333.27440  22825065.68740
   1632541.32100  23729566.55100                   1417595.46340  23729568.93040
  -9944525.36300  22415334.27700                  -7493505.53140  22415336.87940
 96  9 11  1 44  0.0040000  0  6 14 15 18 22 25 29
 -14892955.10700  21581394.37100                 -11488328.83340  21581397.75840
   4301416.72800  24218204.69900                   3516336.40640  24218210.06640
  -2271968.18900  25281741.41000                  -1533101.43040  25281745.06640
 -10323263.87900  22817983.86300                  -7754316.93540  22817987.87140
   1739457.84600  23749912.27000                   1500907.04140  23749915.08240
  -9950143.81200  22414265.05100                  -7497883.53440  22414267.54740
 96  9 11  1 44 30.0040000  0  6 14 15 18 22 25 29
 -14895463.06100  21580916.98800                 -11490283.08240  21580920.41040
   4422447.36000  24241236.30900                   3610645.97040  24241241.05540
  -2325026.12800  25271645.75400                  -1574445.20940  25271649.48040
 -10359981.56400  22810996.34000                  -7782928.08340  22811000.04340
   1846519.26700  23770285.40200                   1584331.51740  23770288.37940
  -9955606.21200  22413225.55900                  -7502139.94340  22413227.93740
 96  9 11  1 45  0.0040000  0  6 14 15 18 22 25 29
 -14897467.22500  21580535.69900                 -11491844.77540  21580539.09840
   4543653.60700  24264301.05100                   3705092.35040  24264306.30140
  -2378088.11700  25261547.84800                  -1615792.15540  25261552.89840
 -10396227.90500  22804098.97300                  -7811171.96440  22804102.64140
   1953744.59900  23790689.62100                   1667883.73140  23790692.21140
  -9960923.37400  22412213.84000                  -7506283.18240  22412216.39540
 96  9 11  1 45 30.0040000  0  6 14 15 18 22 25 29
 -14898971.86100  21580249.28500                 -11493017.21840  21580252.74240
   4665035.07200  24287399.04300                   3799675.27540  24287404.35240
  -2431154.77900  25251449.44900                  -1657142.75340  25251453.51640
 -10432001.77200  22797291.16000                  -7839047.67540  22797294.65240
   2061142.39200  23811126.87900                   1751570.32540  23811129.90240
  -9966104.72800  22411227.92600                  -7510320.58440  22411230.48040
 96  9 11  1 46  0.0040000  0  6 14 15 18 22 25 29
 -14899985.17800  21580056.45700                 -11493806.79540  21580059.89140
   4786581.91500  24310529.10500                   3894387.09040  24310533.99240
  -2484217.71000  25241351.67600                  -1698490.45240  25241356.98440
 -10467307.28500  22790572.84000                  -7866558.43840  22790576.41440
   2168710.18800  23831596.10500                   1835389.37540  23831598.80140
  -9971157.17100  22410266.36300                  -7514257.54640  22410268.84840
 96  9 11  1 46 30.0040000  0  6 14 15 18 22 25 29
 -14900502.82800  21579958.02700                 -11494210.16240  21579961.47340
   4908296.98000  24333690.41000                   3989229.96240  24333695.48440
  -2537253.78100  25231259.30900                  -1739817.19740  25231261.06640
 -10502152.10100  22783942.17600                  -7893710.21840  22783945.72740
   2276468.85400  23852101.92600                   1919357.17640  23852104.60940
  -9976079.80000  22409329.45700                  -7518093.35240  22409331.93040
 96  9 11  1 47  0.0040000  0  5 15 18 22 25 29
   5030180.56900  24356884.39500                   4084204.17340  24356888.27340
  -2590248.92300  25221174.92600                  -1781112.08440  25221176.69540
 -10536550.84100  22777396.08200                  -7920514.40340  22777399.79740
   2384414.55300  23872643.52000                   2003470.70740  23872645.45340
  -9980868.18400  22408418.37100                  -7521824.55240  22408420.85540
 96  9 11  1 47 30.0040000  0  6 14 15 18 22 25 29
       312.03910  21580037.47300
   5152225.40600  24380108.66000                   4179304.01440  24380113.35940
  -2643190.30500  25211100.04300                  -1822365.05740  25211104.90640
 -10570514.23300  22770933.43400                  -7946979.36440  22770936.87940
   2492528.39900  23893216.91000                   2087715.25640  23893219.41840
  -9985516.60000  22407533.88700                  -7525446.68740  22407536.39540
 96  9 11  1 48  0.0040000  0  6 14 15 18 22 25 29
      1245.77300  21580215.26200                       482.04150  21580218.59040
   5274425.86100  24403362.72300                   4274525.11440  24403367.79740
  -2696084.17900  25201034.63700                  -1863580.97440  25201039.07840
 -10604049.25500  22764551.78500                  -7973110.53440  22764555.19540
   2600801.02300  23913820.17600                   2172083.53940  23913822.85940
  -9990011.33200  22406678.47300                  -7528949.06740  22406681.05140
 96  9 11  1 48 30.0040000  0  6 14 15 18 22 25 29
      2682.32300  21580488.60500                      1601.43540  21580491.92240
   5396784.27900  24426647.02700                   4369869.30940  24426652.39540
  -2748945.26000  25190975.47300                  -1904771.42140  25190979.86740
 -10637142.73100  22758254.28500                  -7998897.63940  22758257.64840
   2709230.36300  23934453.67600                   2256573.92640  23934456.61740
  -9994341.73400  22405854.48800                  -7532323.40340  22405857.05540
 96  9 11  1 49  0.0040000  0  6 14 15 18 22 25 29
      4623.32400  21580857.87100                      3113.90740  21580861.36340
   5519287.87200  24449958.40200                   4465326.62940  24449963.37140
  -2801785.80700  25180920.57400                  -1945945.82140  25180924.48840
 -10669790.69200  22752041.52700                  -8024337.58540  22752044.83240
   2817816.15000  23955116.91800                   2341186.22340  23955119.57840
  -9998502.62400  22405062.68400                  -7535565.64540  22405065.21540
 96  9 11  1 49 30.0040000  0  6 14 15 18 22 25 29
      7089.52400  21581327.38700                      5035.61540  21581330.89140
   5641945.04400  24473300.16800                   4560903.61040  24473304.58640
  -2854591.34100  25170871.82400                  -1987092.96240  25170876.55940
 -10701947.21800  22745922.34000                  -8049394.60640  22745925.91440
   2926583.49600  23975814.53500                   2425940.01340  23975817.37140
 -10002478.91900  22404305.80100                  -7538664.05240  22404308.27340
 96  9 11  1 50  0.0040000  0  6 14 15 18 22 25 29
     10080.01000  21581896.20700                      7365.86340  21581899.61740
   5764749.58300  24496668.15200                   4656595.42040  24496673.03940
  -2907378.16500  25160826.49600                  -2028225.51340  25160829.61340
 -10733598.20300  22739899.32400                  -8074057.69340  22739902.93440
   3035532.96800  23996546.89500                   2510835.70040  23996549.25040
 -10006282.59100  22403582.02700                  -7541627.94540  22403584.50040
 96  9 11  1 50 30.0040000  0  6 14 15 18 22 25 29
     13591.11000  21582564.30100                     10101.78140  21582567.69940
   5887702.90600  24520065.98000                   4752403.15240  24520070.32840
  -2960128.47900  25150788.72300                  -2069329.62540  25150793.07040
 -10764725.36400  22733976.16000                  -8098312.61640  22733979.80540
   3144663.07100  24017313.88700                   2595872.14040  24017317.15640
 -10009925.82000  22402888.73800                  -7544466.81240  22402891.30540
 96  9 11  1 51  0.0040000  0  6 14 15 18 22 25 29
     17595.19000  21583326.40200                     13221.84440  21583329.69540
   6010784.92300  24543487.43400                   4848311.18440  24543492.63740
  -3012835.79800  25140758.44100                  -2110400.20840  25140762.10940
 -10795353.81200  22728147.68400                  -8122178.93140  22728151.19940
   3253940.90700  24038108.87900                   2681023.69640  24038111.36340
 -10013426.60500  22402222.58200                  -7547194.68440  22402225.20740
 96  9 11  1 51 30.0040000  0  6 14 15 18 22 25 29
     22106.15500  21584184.83200                     16736.87840  21584188.34840
   6134004.17700  24566935.12900                   4944326.18640  24566940.41440
  -3065479.89700  25130741.08200                  -2151421.56940  25130746.90640
 -10825463.22300  22722418.19100                  -8145640.79340  22722421.75440
   3363348.43500  24058928.53500                   2766276.31140  24058930.48040
 -10016788.03500  22401582.87900                  -7549813.96840  22401585.38740
 96  9 11  1 52  0.0040000  0  6 14 15 18 22 25 29
     27121.33000  21585139.12100                     20644.81040  21585142.60240
   6257354.83000  24590407.72300                   5040443.53440  24590413.20740
  -3118063.22600  25120734.48800                  -2192395.54340  25120738.73040
 -10855069.38700  22716784.17600                  -8168710.52140  22716787.62140
   3472862.32200  24079768.09800                   2851611.81440  24079770.59440
 -10020011.40900  22400969.59800                  -7552325.68440  22400971.93040
 96  9 11  1 52 30.0040000  0  6 14 15 18 22 25 29
     32644.75300  21586190.16800                     24948.78340  21586193.63740
   6380839.94100  24613906.27000                   5136665.66240  24613911.85940
  -3170568.55200  25110743.16000                  -2233308.73240  25110746.05540
 -10884166.91900  22711247.27700                  -8191383.90340  22711250.94540
   3582485.65400  24100628.88700                   2937032.58740  24100631.86340
 -10023079.29100  22400385.70700                  -7554716.22440  22400388.20340
 96  9 11  1 53  0.0040000  0  6 14 15 18 22 25 29
     38683.60600  21587339.19900                     29654.38840  21587342.71540
   6504451.48000  24637429.34000                   5232986.30540  24637434.61340
  -3223009.18500  25100763.80100                  -2274171.55240  25100768.55940
 -10912759.15300  22705806.09800                  -8213663.55540  22705809.67240
   3692215.73800  24121509.55900                   3022536.54540  24121512.35940
 -10025981.96900  22399833.28500                  -7556978.03940  22399835.68740
 96  9 11  1 53 30.0040000  0  6 14 15 18 22 25 29
     45248.31400  21588588.64500                     34769.75140  21588592.07840
   6628180.99600  24660974.37100                   5329398.88240  24660979.71540
  -3275413.03200  25090792.11300                  -2315005.66640  25090795.43040
 -10940844.14100  22700461.83200                  -8235547.94340  22700465.46540
   3802066.26100  24142413.66000                   3108134.35440  24142416.43740
 -10028730.30500  22399310.54300                  -7559119.60040  22399312.99240
 96  9 11  1 54  0.0040000  0  6 14 15 18 22 25 29
     52334.52800  21589937.01200                     40291.47940  21589940.37540
   6752026.81800  24684540.94900                   5425902.09440  24684545.43740
  -3327801.80300  25080822.80100                  -2355828.05940  25080826.18740
 -10968438.49400  22695210.84800                  -8257050.02640  22695214.28140
   3912052.23900  24163343.35500                   3193837.70740  24163345.28940
 -10031319.58800  22398817.69100                  -7561137.21940  22398820.08240
 96  9 11  1 54 30.0040000  0  6 14 15 18 22 25 29
     59954.59700  21591387.01200                     46229.20240  21591390.34040
   6875996.57900  24708131.63700                   5522501.87740  24708136.61740
  -3380171.92500  25070856.69900                  -2396635.91440  25070861.43440
 -10995535.12500  22690054.55100                  -8278164.26740  22690057.62140
   4022198.92700  24184303.22300                   3279666.29140  24184305.50840
 -10033740.91400  22398356.94100                  -7563023.95140  22398359.33240
 96  9 11  1 55  0.0040000  0  6 14 15 18 22 25 29
     68106.80200  21592938.48000                     52581.57140  21592941.87940
   7000075.61900  24731743.09000                   5619186.81140  24731747.78940
  -3432553.80500  25060888.73800                  -2437452.91840  25060892.53540
 -11022137.16200  22684992.30900                  -8298893.11040  22684995.73040
   4132500.80700  24205293.20700                   3365615.81140  24205295.99640
 -10036022.13500  22397922.67600                  -7564801.51140  22397925.16040
 96  9 11  1 55 30.0040000  0  6 14 15 18 22 25 29
     76779.25100  21594588.67600                     59339.32940  21594592.03940
   7124263.10000  24755374.96500                   5715956.23440  24755379.50040
  -3484946.07700  25050918.91800                  -2478278.02140  25050922.42240
 -11048242.68100  22680024.43400                  -8319235.05640  22680027.86740
   4242960.94100  24226312.88700                   3451688.64440  24226315.32440
 -10038163.01700  22397515.34000                  -7566469.72540  22397517.67240
 96  9 11  1 56  0.0040000  0  6 14 15 18 22 25 29
     85951.90200  21596334.32400                     66486.84940  21596337.73440
   7248555.06600  24779027.62900                   5812807.08440  24779032.37540
  -3537339.91100  25040948.65200                  -2519104.36840  25040952.00440
 -11073841.17600  22675153.19900                  -8339181.92340  22675156.64540
   4353566.55600  24247360.68400                   3537874.82740  24247363.26240
 -10040152.52000  22397137.02700                  -7568019.97440  22397139.41840
 96  9 11  1 56 30.0040000  0  6 14 15 18 22 25 29
     95638.79100  21598177.62900                     74035.06840  21598180.99240
   7372948.68900  24802698.90200                   5909737.16640  24802703.06240
  -3589711.09400  25030982.35500                  -2559913.04440  25030987.26640
 -11098909.74100  22670382.75400                  -8358715.85140  22670386.21140
   4464311.38500  24268434.84800                   3624169.50140  24268437.14540
 -10041985.09400  22396787.98000                  -7569447.95040  22396790.33640
 96  9 11  1 57  0.0040000  0  6 14 15 18 22 25 29
    105845.20100  21600119.91000                     81988.10540  21600123.32040
   7497442.51900  24826389.26200                   6006745.30340  24826393.64540
  -3642055.85300  25021022.32400                  -2600701.14340  25021026.25040
 -11123432.63000  22665716.31600                  -8377824.58240  22665719.79740
   4575186.01700  24289533.51200                   3710565.30840  24289535.43440
 -10043660.24400  22396469.43400                  -7570753.25640  22396471.91840
 96  9 11  1 57 30.0040000  0  6 14 15 18 22 25 29
    116562.44100  21602159.22300                     90339.20640  21602162.56240
   7622029.77800  24850097.22300                   6103826.25940  24850102.50840
  -3694356.46600  25011069.53500                  -2641454.82540  25011073.26240
 -11147416.32900  22661152.27000                  -8396513.17040  22661155.85540
   4686185.54600  24310656.12900                   3797058.43740  24310659.34040
 -10045166.79700  22396182.73000                  -7571927.18740  22396185.27340
 96  9 11  1 58  0.0040000  0  6 14 15 18 22 25 29
    127814.73500  21604300.41000                     99107.23540  21604303.75040
   7746712.79700  24873823.68400                   6200981.80640  24873828.19540
  -3746592.14600  25001129.27700                  -2682157.93340  25001132.74640
 -11170849.32500  22656693.22300                  -8414772.63140  22656696.80940
   4797303.98200  24331800.76200                   3883644.24240  24331802.90640
 -10046507.44400  22395927.45700                  -7572971.83040  22395929.95340
 96  9 11  1 58 30.0040000  0  6 14 15 18 22 25 29
    139615.43900  21606546.18400                    108302.59340  21606549.53540
   7871491.44800  24897568.66000                   6298211.91740  24897573.93440
  -3798761.17300  24991201.55100                  -2722809.08240  24991204.90240
 -11193737.12900  22652337.76200                  -8432607.26640  22652341.44140
   4908540.71700  24352968.55100                   3970322.21340  24352970.74240
 -10047690.77400  22395702.18400                  -7573893.90540  22395704.46940
 96  9 11  1 59  0.0040000  0  6 14 15 18 22 25 29
    151934.35600  21608890.24600                    117901.75540  21608893.62140
   7996352.73700  24921328.76200                   6395506.39940  24921334.30540
  -3850891.59600  24981281.81600                  -2763430.14640  24981285.25040
 -11216096.70400  22648082.92600                  -8450030.29340  22648086.53540
   5019882.50400  24374156.59000                   4057082.03240  24374157.84440
 -10048723.85900  22395505.69900                  -7574698.90140  22395508.10240
 96  9 11  1 59 30.0040000  0  6 14 15 18 22 25 29
    164767.65700  21611332.40200                    127901.72940  21611335.74240
   8121294.44100  24945104.11300                   6492863.52740  24945109.18740
  -3902977.51300  24971370.41000                  -2804016.55740  24971374.39540
 -11237933.00500  22643927.51200                  -8467045.57540  22643931.28540
   5131314.55200  24395361.30900                   4143912.19140  24395363.92240
 -10049600.29900  22395338.81600                  -7575381.83440  22395341.30140
 96  9 11  2  0  0.0040000  0  6 14 15 18 22 25 29
    178126.40800  21613874.44100                    138311.15540  21613877.78140
   8246320.19300  24968895.46500                   6590286.15140  24968899.95340
  -3955030.74100  24961464.79300                  -2844577.46440  24961469.19940
 -11259248.22700  22639871.34000                  -8483654.81940  22639874.87940
   5242824.20400  24416580.48800                   4230802.83640  24416582.02340
 -10050315.36500  22395202.90200                  -7575939.01540  22395205.16440
 96  9 11  2  0 30.0040000  0  6 14 15 18 22 25 29
    191992.20700  21616512.95700                    149115.67440  21616516.33240
   8371416.53200  24992701.05100                   6687763.81540  24992705.64540
  -4007074.40900  24951560.94100                  -2885130.95840  24951564.36340
 -11280056.98600  22635911.51200                  -8499869.41540  22635914.78140
   5354405.15500  24437814.17600                   4317749.02840  24437816.97740
 -10050865.11700  22395098.20700                  -7576367.39340  22395100.51640
 96  9 11  2  1  0.0040000  0  6 14 15 18 22 25 29
    206391.83100  21619253.12900                    160336.16040  21619256.52740
   8496588.11800  25016520.00400                   6785300.08940  25016524.91440
  -4059093.06000  24941662.23800                  -2925664.93340  24941665.78940
 -11300342.53900  22632051.21500                  -8515676.32440  22632054.63740
   5466071.21200  24459063.41800                   4404761.53640  24459066.07840
 -10051232.14000  22395028.30900                  -7576653.38340  22395030.68740
 96  9 11  2  1 30.0040000  0  6 14 15 18 22 25 29
    221352.79900  21622100.12900                    171994.04940  21622103.35240
   8621830.68000  25040353.37900                   6882891.64640  25040358.96940
  -4111066.70500  24931771.50400                  -2966163.83240  24931775.82840
 -11320116.79800  22628288.29300                  -8531084.81640  22628291.63340
   5577820.84400  24480328.54300                   4491839.17540  24480330.73440
 -10051423.64300  22394991.77000                  -7576802.60140  22394994.11340
 96  9 11  2  2  0.0040000  0  6 14 15 18 22 25 29
    236888.99800  21625056.62100                    184100.17340  21625059.97340
   8747146.41100  25064199.98000                   6980540.24740  25064205.10240
  -4162989.19400  24921891.09000                  -3006622.87740  24921894.35940
 -11339376.69500  22624623.04300                  -8546092.51140  22624626.61740
   5689681.37900  24501615.09800                   4579003.22540  24501618.08640
 -10051438.17400  22394989.27700                  -7576813.92740  22394991.60940
 96  9 11  2  2 30.0040000  0  6 14 15 18 22 25 29
    253003.33300  21628123.03500                    196656.79740  21628126.39840
   8872524.33500  25088058.63700                   7078237.28440  25088063.24240
  -4214862.64700  24912020.12100                  -3047043.71640  24912024.02340
 -11358108.47100  22621058.80900                  -8560688.67740  22621062.19540
   5801655.73900  24522922.53500                   4666255.96740  24522924.86740
 -10051285.32500  22395018.11300                  -7576694.81840  22395020.38740
 96  9 11  2  3  0.0040000  0  6 14 15 18 22 25 29
    269701.55900  21631300.72300                    209668.40740  21631304.16840
   8997964.92900  25111928.77700                   7175983.20540  25111934.15640
  -4266685.48200  24902158.30900                  -3087425.10440  24902163.06640
 -11376299.72600  22617597.03500                  -8574863.66040  22617600.42240
   5913752.50300  24544253.84800                   4753604.06640  24544256.36740
 -10050970.18200  22395077.98000                  -7576449.24140  22395080.25440
 96  9 11  2  3 30.0040000  0  6 14 15 18 22 25 29
    286956.81800  21634584.25400                    223114.06040  21634587.57040
   9123463.05000  25135811.31600                   7273773.91440  25135816.56640
  -4318460.48100  24892305.82400                  -3127769.21940  24892310.26640
 -11393948.82900  22614238.44900                  -8588616.19340  22614241.90640
   6025963.31700  24565607.04300                   4841041.07140  24565608.29740
 -10050500.68000  22395167.58200                  -7576083.38740  22395169.97340
 96  9 11  2  4  0.0040000  0  6 14 15 18 22 25 29
    304736.56300  21637967.59000                    236968.40840  21637971.01240
   9249006.83600  25159701.34800                   7371600.19040  25159706.09440
  -4370208.12000  24882458.34800                  -3168092.01140  24882462.56640
 -11411039.23800  22610986.32400                  -8601933.37640  22610989.59440
   6138286.49900  24586981.65200                   4928565.63640  24586983.79740
 -10049884.58800  22395284.96500                  -7575603.31040  22395287.35540
 96  9 11  2  4 30.0040000  0  6 14 15 18 22 25 29
    323046.73600  21641451.62900                    251236.08040  21641454.95740
   9374603.39100  25183601.55100                   7469467.62140  25183606.61340
  -4421911.43800  24872619.69100                  -3208380.27140  24872623.84040
 -11427555.80300  22607843.54300                  -8614803.40840  22607846.98840
   6250722.24800  24608377.56600                   5016177.90640  24608378.97340
 -10049107.29400  22395432.81600                  -7574997.61740  22395435.24240
 96  9 11  2  5  0.0040000  0  6 14 15 18 22 25 29
    341874.23700  21645034.69900                    265906.86540  21645038.08640
   9500249.63200  25207510.63700                   7567373.74640  25207516.13340
  -4473558.02200  24862792.07400                  -3248624.32840  24862795.62540
 -11443515.94700  22604806.17600                  -8627239.85840  22604809.44540
   6363271.97200  24629794.69100                   5103878.99640  24629796.89540
 -10048159.56500  22395613.09000                  -7574259.11540  22395615.39840
 96  9 11  2  5 30.0040000  0  6 14 15 18 22 25 29
    361224.27200  21648716.70700                    280984.81340  21648720.17640
   9625947.29700  25231430.01200                   7665319.95640  25231436.76240
  -4525140.41800  24852976.00400                  -3288818.36640  24852980.08240
 -11458918.63500  22601874.99600                  -8639241.93540  22601878.52340
   6475934.43100  24651233.89500                   5191667.92140  24651236.22740
 -10047033.67400  22395827.33200                  -7573381.79240  22395829.53540
 96  9 11  2  6  0.0040000  0  6 14 15 18 22 25 29
    381107.73500  21652500.57400                    296478.41940  21652503.91440
   9751684.49800  25255357.57400                   7763296.97040  25255362.54340
  -4576683.59300  24843167.25400                  -3328981.86840  24843171.73040
 -11473777.14200  22599047.68400                  -8650819.97540  22599051.19940
   6588700.32900  24672692.39500                   5279537.45540  24672695.17240
 -10045730.51000  22396075.33200                  -7572366.33540  22396077.68740
 96  9 11  2  6 30.0040000  0  6 14 15 18 22 25 29
    401545.39500  21656389.73800                    312403.86440  21656393.12540
   9877462.11800  25279292.14500                   7861305.44640  25279297.33640
  -4628189.75600  24833366.34000                  -3369116.49240  24833370.43040
 -11488086.47400  22596324.61300                  -8661970.08540  22596327.94140
   6701566.44600  24694170.12900                   5367485.09340  24694173.58640
 -10044247.42100  22396357.44900                  -7571210.67840  22396359.55940
 96  9 11  2  7  0.0040000  0  6 14 15 18 22 25 29
    422530.90700  21660383.03500                    328756.21440  21660386.52740
  10003270.33300  25303233.12100                   7959337.79240  25303237.91440
  -4679672.38400  24823569.48000                  -3409232.80240  24823572.25840
 -11501842.38100  22593707.12100                  -8672688.95040  22593710.53140
   6814524.79300  24715665.67600                   5455504.58640  24715668.43040
 -10042608.12800  22396669.38700                  -7569933.30440  22396671.76640
 96  9 11  2  7 30.0040000  0  6 14 15 18 22 25 29
    444088.23700  21664485.41000                    345554.13140  21664488.96140
  10129118.89300  25327181.09800                   8057401.54140  25327186.13740
  -4731134.29900  24813776.67600                  -3449332.94940  24813780.15640
 -11515022.82200  22591198.62100                  -8682959.41840  22591202.27740
   6927581.35800  24737179.48000                   5543600.61040  24737182.01240
 -10040809.27200  22397011.86300                  -7568531.60340  22397014.20740
 96  9 11  2  8  0.0040000  0  6 14 15 18 22 25 29
    466211.39800  21668695.16000                    362792.96240  21668698.72340
  10254996.13000  25351134.76200                   8155487.73540  25351140.68040
  -4782574.78900  24803987.73000                  -3489416.41840  24803991.41040
 -11527630.33600  22588799.69100                  -8692783.43440  22588803.07840
   7040724.99100  24758709.94900                   5631764.49340  24758713.10240
 -10038859.56900  22397382.76200                  -7567012.33640  22397385.09440
 96  9 11  2  8 30.0040000  0  6 14 15 18 22 25 29
    488888.69600  21673010.52000                    380463.58140  21673014.00040
  10380901.21700  25375094.01200                   8253595.54740  25375099.66040
  -4833966.01100  24794208.09000                  -3529461.51240  24794211.81640
 -11539652.42300  22586511.99600                  -8702151.27940  22586515.59440
   7153956.15800  24780256.94900                   5719996.56540  24780259.66840
 -10036747.46900  22397784.48000                  -7565366.53340  22397786.90640
 96  9 11  2  9  0.0040000  0  6 14 15 18 22 25 29
    512117.07700  21677430.63700                    398563.62240  21677434.03540
  10506825.87500  25399056.35500                   8351718.59440  25399062.25040
  -4885305.78800  24784438.60500                  -3569466.50440  24784443.11740
 -11551101.71300  22584333.02700                  -8711072.78640  22584336.40240
   7267266.15200  24801819.18400                   5808290.06540  24801821.96140
 -10034459.27600  22398220.03500                  -7563583.51540  22398222.32040
 96  9 11  2  9 30.0050000  0  6 14 15 18 22 25 29
    535901.25500  21681956.89900                    417096.74640  21681960.31040
  10632771.88300  25423023.29800                   8449858.32340  25423029.25140
  -4936603.46300  24774676.93100                  -3609438.70740  24774680.11840
 -11561978.00100  22582263.32100                  -8719547.79940  22582266.64940
   7380656.14300  24823396.53200                   5896645.89540  24823398.73540
 -10031972.61100  22398693.14900                  -7561645.85040  22398695.52840
 96  9 11  2 10  0.0050000  0  6 14 15 18 22 25 29
    560231.93300  21686586.75900                    436055.71840  21686590.06340
  10758729.17100  25446992.07100                   8548006.83740  25446997.45040
  -4987850.31600  24764925.27400                  -3649371.28340  24764929.72840
 -11572271.37000  22580304.72000                  -8727568.58140  22580308.22440
   7494115.94600  24844987.20400                   5985056.13440  24844989.66540
 -10029286.03700  22399204.39200                  -7559552.40540  22399206.61840
 96  9 11  2 10 30.0050000  0  6 14 15 18 22 25 29
    585123.06500  21691323.46200                    455451.40140  21691326.72040
  10884705.69500  25470964.81300                   8646170.35540  25470969.85340
  -5039060.16100  24755180.07100                  -3689275.05140  24755183.41140
 -11581975.75100  22578457.93800                  -8735130.42140  22578461.25540
   7607646.47300  24866591.67300                   6073521.49240  24866594.57940
 -10026390.96400  22399755.26700                  -7557296.49940  22399757.65740
 96  9 11  2 11  0.0050000  0  6 14 15 18 22 25 29
    610570.83900  21696165.92300                    475280.83940  21696169.26340
  11010690.26500  25494938.76700                   8744340.08340  25494943.29040
  -5090261.89000  24745436.62600                  -3729172.47640  24745441.05640
 -11591114.30100  22576718.96200                  -8742251.34740  22576722.29040
   7721236.14500  24888206.70400                   6162032.92440  24888209.88040
 -10023321.43800  22400339.54800                  -7554904.66340  22400341.96240
 96  9 11  2 11 30.0050000  0  6 14 15 18 22 25 29
    636571.70000  21701113.65700                    495541.24340  21701117.05640
  11136688.58300  25518915.14900                   8842520.58940  25518921.50140
  -5141436.75900  24735698.42300                  -3769048.98940  24735701.78640
 -11599679.83100  22575089.04800                  -8748925.76440  22575092.45840
   7834888.01400  24909833.97800                   6250592.82940  24909837.08340
 -10020081.21000  22400956.30600                  -7552379.80940  22400958.77840
 96  9 11  2 12  0.0050000  0  6 14 15 18 22 25 29
    663122.60900  21706166.04000                    516230.25640  21706169.39240
  11262691.77900  25542893.01700                   8940704.84940  25542899.63840
  -5192563.16600  24725969.57900                  -3808887.71240  24725973.13040
 -11607687.46500  22573565.16500                  -8755165.46340  22573568.41140
   7948603.43500  24931473.54800                   6339202.23340  24931477.14540
 -10016672.85900  22401604.68100                  -7549723.94440  22401607.00140
 96  9 11  2 12 30.0050000  0  6 14 15 18 22 25 29
    690230.06700  21711324.45400                    537352.94040  21711327.84140
  11388697.70500  25566871.04800                   9038891.24740  25566876.29840
  -5243624.46700  24716252.64900                  -3848675.73440  24716255.75540
 -11615138.32600  22572147.28200                  -8760971.30740  22572150.62240
   8062391.21600  24953126.16500                   6427868.05640  24953128.72040
 -10013095.77000  22402285.51700                  -7546936.59540  22402287.94240
 96  9 11  2 13  0.0050000  0  6 14 15 18 22 25 29
    717878.33400  21716585.82100                    558897.02940  21716589.27840
  11514701.43200  25590848.82900                   9137075.93340  25590854.52440
  -5294600.09800  24706552.36000                  -3888396.98240  24706555.85340
 -11622031.08800  22570835.43800                  -8766342.26740  22570838.83740
   8176261.00800  24974795.14200                   6516597.75340  24974797.64940
 -10009349.81000  22402998.23500                  -7544017.65840  22403000.57940
 96  9 11  2 13 30.0050000  0  6 14 15 18 22 25 29
    746072.46000  21721951.04800                    580866.47440  21721954.43540
  11640704.59500  25614826.70400                   9235260.18840  25614832.15340
  -5345472.75800  24696871.43100                  -3928037.97640  24696874.44240
 -11628339.15500  22569635.56300                  -8771257.62940  22569638.62240
   8290223.23700  24996481.03200                   6605399.48140  24996484.46640
 -10005407.66300  22403748.38400                  -7540945.85040  22403750.76340
 96  9 11  2 14  0.0050000  0  6 14 15 18 22 25 29
    774824.88700  21727422.41500                    603270.96140  21727425.77840
  11766707.05800  25638803.86000                   9333443.88640  25638809.25140
  -5396259.98100  24687207.14200                  -3967612.43440  24687211.13840
 -11634048.10800  22568549.01700                  -8775706.14640  22568552.33340
   8404282.79700  25018186.21200                   6694277.06240  25018188.57940
 -10001271.72300  22404535.47000                  -7537723.03940  22404537.90740
 96  9 11  2 14 30.0050000  0  6 14 15 18 22 25 29
    804133.59400  21732999.67300                    626108.91440  21733003.03640
  11892697.59000  25662779.20400                   9431618.33840  25662785.95440
  -5446987.05000  24677554.00900                  -4007139.99140  24677557.78240
 -11639160.57900  22567576.04800                  -8779689.87140  22567579.22440
   8518410.08200  25039904.14900                   6783207.41740  25039907.24340
  -9996959.45300  22405356.04000                  -7534362.82440  22405358.43140
 96  9 11  2 15  0.0050000  0  6 14 15 18 22 25 29
    834001.56200  21738683.35300                    649382.65140  21738686.76340
  12018668.53700  25686750.47000                   9529777.47740  25686754.43140
  -5497672.64900  24667909.31300                  -4046635.23940  24667912.95840
 -11643682.46000  22566715.73500                  -8783213.39540  22566719.06340
   8632591.84200  25061631.82900                   6872180.21540  25061635.08740
  -9992470.59900  22406210.25100                  -7530865.01140  22406212.72440
 96  9 11  2 15 30.0050000  0  6 14 15 18 22 25 29
    864468.72700  21744481.04800                    673123.29540  21744484.38840
  12144629.87100  25710720.28200                   9627929.11140  25710725.09940
  -5548325.42400  24658270.32100                  -4086104.89440  24658273.88440
 -11647601.58600  22565969.73500                  -8786267.23940  22565972.88840
   8746828.81800  25083370.54000                   6961196.05040  25083372.64940
  -9987793.05400  22407100.17300                  -7527220.16740  22407102.57540
 96  9 11  2 16  0.0050000  0  6 14 15 18 22 25 29
    895545.85200  21750395.00900                    697339.24140  21750398.32540
  12270576.37600  25734687.16500                   9726069.19940  25734690.11840
  -5598947.00100  24648637.20400                  -4125550.25140  24648640.09940
 -11650938.02600  22565334.72000                  -8788867.04640  22565337.79040
   8861109.06400  25105117.58700                   7050245.59140  25105119.83740
  -9982944.10400  22408023.07100                  -7523441.75240  22408025.41540
 96  9 11  2 16 30.0050000  0  6 14 15 18 22 25 29
    927227.19800  21756423.61000                    722025.99840  21756427.10340
  12396499.32300  25758650.14900                   9824191.00040  25758657.45440
  -5649525.36100  24639012.41500                  -4164961.95340  24639015.52040
 -11653695.33500  22564810.01700                  -8791015.57940  22564813.27440
   8975433.25000  25126872.88400                   7139329.36640  25126876.68140
  -9977925.46000  22408977.95400                  -7519531.11540  22408980.25140
 96  9 11  2 17  0.0050000  0  6 14 15 18 22 25 29
    959505.61100  21762566.00900                    747178.00440  21762569.36040
  12522401.48400  25782607.98500                   9922296.55640  25782612.49740
  -5700060.12000  24629395.89900                  -4204339.65440  24629399.83740
 -11655855.73500  22564398.97000                  -8792698.99940  22564402.31040
   9089825.65300  25148640.47800                   7228466.29840  25148643.72440
  -9972728.98000  22409966.76700                  -7515481.90940  22409969.11040
 96  9 11  2 17 30.0050000  0  6 14 15 18 22 25 29
    992357.15500  21768817.43100                    772776.60540  21768820.71240
  12648272.28800  25806560.40700                  10020377.65440  25806563.65340
  -5750556.41800  24619786.41500                  -4243687.39440  24619790.49340
 -11657422.91600  22564100.57100                  -8793920.16040  22564104.07540
   9204279.12400  25170420.57900                   7317650.82940  25170424.56340
  -9967363.13000  22410988.02400                  -7511300.72140  22410990.35640
 96  9 11  2 18  0.0050000  0  6 14 15 18 22 25 29
   1025754.38400  21775172.66500                    798800.42440  21775175.95840
  12774111.41500  25830507.39200                  10118434.10940  25830511.89240
  -5800996.73200  24610188.03200                  -4282991.51040  24610192.32140
 -11658394.33300  22563915.82100                  -8794677.09440  22563919.29040
   9318794.50600  25192211.73500                   7406883.59440  25192214.47840
  -9961826.48700  22412041.56300                  -7506986.45440  22412043.93140
 96  9 11  2 18 30.0050000  0  6 14 15 18 22 25 29
   1059679.07800  21781628.28200                    825235.24640  21781631.68140
  12899918.17400  25854447.46200                  10216465.30040  25854453.80240
  -5851387.36900  24600599.27400                  -4322256.91540  24600603.56340
 -11658754.03400  22563847.19600                  -8794957.36240  22563850.46640
   9433368.23700  25214014.52400                   7496161.80940  25214015.97840
  -9956111.34200  22413129.20400                  -7502533.09540  22413131.61840
 96  9 11  2 19  0.0050000  0  6 14 15 18 22 25 29
   1094114.91300  21788181.24300                    852068.35540  21788184.59540
  13025678.62600  25878378.32100                  10314460.40840  25878382.45840
  -5901748.36000  24591015.75100                  -4361499.21940  24591019.26740
 -11658522.01300  22563891.43800                  -8794776.55240  22563894.61440
   9547976.09200  25235823.82900                   7585466.64540  25235825.85640
  -9950216.28400  22414250.79800                  -7497939.54140  22414253.20040
 96  9 11  2 19 30.0050000  0  6 14 15 18 22 25 29
   1129087.62500  21794836.52400                    879319.81840  21794840.02840
  13151401.39100  25902303.14900                  10412426.15640  25902304.70840
  -5952060.48500  24581441.76700                  -4400703.44440  24581445.34140
 -11657703.94800  22564047.15700                  -8794139.08040  22564050.18140
   9662619.75900  25257639.73500                   7674799.35840  25257642.37240
  -9944129.20000  22415409.22000                  -7493196.35540  22415411.63440
 96  9 11  2 20  0.0050000  0  6 14 15 18 22 25 29
   1164629.32200  21801599.73500                    907014.64440  21801603.12240
  13277090.90700  25926220.57900                  10510366.07240  25926225.73540
  -6002305.77500  24571880.41500                  -4439855.58640  24571883.80240
 -11656295.04500  22564315.18800                  -8793041.22340  22564318.51740
   9777315.77200  25279465.64200                   7764172.89440  25279468.40740
  -9937844.94100  22416604.95400                  -7488299.52040  22416607.38040
 96  9 11  2 20 30.0050000  0  6 14 15 18 22 25 29
   1200741.58400  21808471.79000                    935154.06740  21808475.07140
  13402727.70100  25950128.97000                  10608264.81340  25950134.19640
  -6052502.41200  24562328.02400                  -4478969.83840  24562331.76340
 -11654302.80500  22564694.45400                  -8791488.80740  22564697.92340
   9892054.09500  25301299.89200                   7853579.36940  25301303.37240
  -9931369.68600  22417837.24300                  -7483253.86440  22417839.63440
 96  9 11  2 21  0.0050000  0  6 14 15 18 22 25 29
   1237444.83300  21815456.12600                    963753.99540  21815459.57140
  13528312.09500  25974026.26700                  10706122.75540  25974033.33740
  -6102638.44000  24552787.35300                  -4518036.83540  24552790.75140
 -11651725.50000  22565184.99300                  -8789480.50040  22565188.27440
  10006847.27200  25323143.86000                   7943028.60940  25323147.42340
  -9924697.98300  22419106.73500                  -7478055.13040  22419109.09140
 96  9 11  2 21 30.0050000  0  6 14 15 18 22 25 29
   1274745.24200  21822554.16500                    992819.24240  21822557.57540
  13653847.92600  25997915.54800                  10803942.85040  25997920.66940
  -6152691.97300  24543262.29800                  -4557039.56240  24543265.33340
 -11648548.61700  22565789.25900                  -8787004.99140  22565792.56340
  10121706.89500  25345001.31300                   8032529.60040  25345003.65740
  -9917836.69900  22420412.57100                  -7472708.67140  22420414.99740
 96  9 11  2 22  0.0050000  0  6 14 15 18 22 25 29
   1312632.34200  21829763.68800                   1022341.65540  21829767.00540
  13779338.03400  26021795.16500                  10901727.33440  26021802.57540
  -6202650.86600  24533756.06300                  -4595968.55540  24533758.86440
 -11644745.93300  22566512.87600                  -8784041.84040  22566516.14540
  10236634.97400  25366870.72000                   8122083.93840  25366873.80240
  -9910771.93500  22421756.75100                  -7467203.65340  22421759.08340
 96  9 11  2 22 30.0050000  0  6 14 15 18 22 25 29
   1351073.97200  21837078.95400                   1052296.16440  21837082.28240
  13904768.94900  26045664.30600                  10999465.68740  26045669.48540
  -6252534.74800  24524262.96200                  -4634839.07640  24524266.85340
 -11640322.13500  22567354.79000                  -8780594.70940  22567357.93140
  10351608.41400  25388749.78200                   8211673.63440  25388752.25540
  -9903506.41900  22423139.54000                  -7461542.20640  22423142.07140
 96  9 11  2 23  0.0050000  0  6 14 15 18 22 25 29
   1390076.36300  21844500.96200                   1082687.62740  21844504.20840
  14030138.05700  26069520.40700                  11097155.86340  26069524.22840
  -6302328.81800  24514787.82100                  -4673639.62540  24514791.44240
 -11635284.42600  22568313.54800                  -8776669.19440  22568316.72440
  10466621.28900  25410635.93800                   8301294.06740  25410638.65740
  -9896044.15200  22424559.47800                  -7455727.45040  22424561.96240
 96  9 11  2 23 30.0050000  0  7 14 15 18 19 22 25 29
   1429644.58400  21852030.64200                   1113520.00340  21852034.00540
  14155446.59900  26093366.18100                  11194798.86240  26093374.44640
  -6352031.54100  24505329.46200                  -4712368.98740  24505332.61440
    -48262.38210  26321635.48500
 -11629629.88600  22569389.32900                  -8772263.04740  22569392.37640
  10581671.77300  25432529.72000                   8390943.77840  25432532.79040
  -9888382.01500  22426017.55600                  -7449756.94740  22426019.99340
 96  9 11  2 24  0.0050000  0  7 14 15 18 19 22 25 29
   1469794.43500  21859670.82900                   1144805.60040  21859674.34540
  14280689.29900  26117199.72800                  11292390.60540  26117203.48940
  -6401660.94200  24495885.29800                  -4751041.21340  24495888.68540
   -111099.81000  26309677.53200
 -11623357.26600  22570583.04800                  -8767375.27640  22570586.14240
  10696752.81600  25454428.82900                   8480617.35340  25454432.18140
  -9880513.24300  22427514.86000                  -7443625.43340  22427517.19240
 96  9 11  2 24 30.0050000  0  7 14 15 18 19 22 25 29
   1510525.31200  21867421.64200                   1176543.94340  21867425.07540
  14405859.07000  26141018.54800                  11389925.43240  26141020.93840
  -6451226.28700  24486453.25900                  -4789663.54140  24486456.65740
   -173810.81100  26297743.93100
 -11616479.26600  22571891.87600                  -8762015.77840  22571895.43840
  10811858.10400  25476332.29800                   8570309.77140  25476335.73140
  -9872455.53500  22429048.21200                  -7437346.69640  22429050.62640
 96  9 11  2 25  0.0050000  0  7 14 15 18 19 22 25 29
   1551843.77400  21875284.24300                   1208740.14140  21875287.67740
  14530949.76100  26164822.46200                  11487398.64940  26164825.91940
  -6500736.42700  24477031.97000                  -4828242.84340  24477035.29840
   -236385.16100  26285836.39200
 -11608993.80600  22573316.22000                  -8756182.94040  22573319.50140
  10926986.01500  25498240.43800                   8660019.82040  25498242.87640
  -9864225.27200  22430614.28200                  -7430933.50440  22430616.48540
 96  9 11  2 25 30.0050000  0  7 14 15 18 19 22 25 29
   1593743.09200  21883257.47800                   1241388.95740  21883260.85340
  14655970.54100  26188613.08700                  11584817.41040  26188615.56040
  -6550201.74500  24467619.21200                  -4866787.22140  24467622.44640
   -298809.24200  26273957.25100
 -11600882.72100  22574859.79800                  -8749862.59940  22574863.07940
  11042145.21700  25520154.56300                   8749754.29840  25520158.37240
  -9855808.65500  22432216.04800                  -7424375.09740  22432218.28640
 96  9 11  2 26  0.0050000  0  7 14 15 18 19 22 25 29
   1636198.56100  21891336.41500                   1274471.13940  21891339.88440
  14780909.45300  26212387.35300                  11682172.41840  26212390.00140
  -6599630.25800  24458213.40700                  -4905302.90840  24458217.46240
   -361088.19400  26262105.46200
 -11592155.38800  22576520.37600                  -8743062.07940  22576523.62240
  11157332.07400  25542075.13400                   8839510.28340  25542078.73140
  -9847202.58700  22433853.68100                  -7417669.06240  22433856.03640
 96  9 11  2 26 30.0050000  0  7 14 15 18 19 22 25 29
   1679196.55200  21899518.69600                   1307976.06140  21899522.15340
  14905768.45000  26236147.26700                  11779465.03340  26236145.73140
  -6649009.70900  24448816.78200                  -4943780.38740  24448820.66140
   -423208.62800  26250284.75100
 -11582811.26000  22578298.51700                  -8735780.91440  22578301.68140
  11272551.77700  25563998.96200                   8929291.89040  25564000.79040
  -9838408.14100  22435527.23500                  -7410816.24240  22435529.64940
 96  9 11  2 27  0.0050000  0  7 14 15 18 19 22 25 29
   1722746.63400  21907806.17300                   1341911.18340  21907809.64240
  15030546.83200  26259892.67300                  11876695.02240  26259896.25940
  -6698334.05500  24439430.56300                  -4982214.91240  24439434.31340
   -485170.44700  26238495.04000                     -9646.44850  26238499.77440
 -11572852.50200  22580193.49300                  -8728020.82340  22580196.79840
  11387806.15000  25585930.73500                   9019100.45640  25585932.83340
  -9829404.52700  22437240.43100                  -7403800.43540  22437242.82140
 96  9 11  2 27 30.0050000  0  7 14 15 18 19 22 25 29
   1766840.91900  21916196.88400                   1376270.35740  21916200.24740
  15155229.95800  26283619.22800                  11973850.71840  26283623.18840
  -6747607.54200  24430053.17300                  -5020609.81040  24430056.61840
   -546999.50500  26226728.92300                    -57824.94040  26226733.00140
 -11562299.39200  22582201.62600                  -8719797.60940  22582205.03640
  11503085.07900  25607869.04800                   9108928.19640  25607872.45840
  -9820183.69900  22438995.31300                  -7396615.36840  22438997.59940
 96  9 11  2 28  0.0050000  0  7 14 15 18 19 22 25 29
   1811496.41600  21924694.41500                   1411066.84240  21924697.72040
  15279823.77700  26307328.52400                  12070936.71540  26307329.66140
  -6796812.76200  24420690.15700                  -5058951.51840  24420693.42740
   -608683.55500  26214989.06300                   -105890.28840  26214996.69640
 -11551140.35500  22584325.00900                  -8711102.24340  22584328.31340
  11618403.55800  25629813.22000                   9198786.75840  25629814.75540
  -9810744.60200  22440791.47800                  -7389260.22940  22440793.82140
 96  9 11  2 28 30.0050000  0  7 14 15 18 19 22 25 29
   1856721.24400  21933300.57900                   1446306.96340  21933303.94240
  15404319.59700  26331019.75100                  12167946.38740  26331028.64940
  -6845962.27500  24411337.44600                  -5097249.80340  24411341.36040
   -670233.11200  26203277.88400                   -153850.98840  26203283.07540
 -11539379.49100  22586563.19600                  -8701937.92140  22586566.52440
  11733744.55300  25651761.61000                   9288662.86540  25651764.70440
  -9801110.93400  22442624.57100                  -7381753.47340  22442626.95040
 96  9 11  2 29  0.0050000  0  7 14 15 18 19 22 25 29
   1902531.23100  21942017.77400                   1482003.05640  21942021.24340
  15528714.22500  26354690.94600                  12264877.32540  26354699.59940
  -6895059.98200  24401994.21200                  -5135507.73240  24401997.75140
   -731636.25800  26191592.93800                   -201697.59040  26191598.44640
 -11527006.73500  22588917.77400                  -8692296.79840  22588921.04440
  11849109.38900  25673715.16500                   9378557.55140  25673716.23140
  -9791279.85000  22444495.46200                  -7374092.88240  22444497.82940
 96  9 11  2 29 30.0050000  0  8  4 14 15 18 19 22 25 29
      3605.71410  26475547.56300
   1948931.33200  21950847.41500                   1518158.97840  21950850.76740
  15653009.52600  26378343.89900                  12361730.82140  26378349.85340
  -6944111.94100  24392660.08700                  -5173730.00340  24392663.11040
   -792870.42400  26179941.15700                   -249412.44540  26179942.28240
 -11514001.23700  22591392.50100                  -8682162.63240  22591395.73540
  11964505.42800  25695674.04800                   9468476.51840  25695677.70440
  -9781256.67300  22446402.79800                  -7366282.60740  22446405.13040
 96  9 11  2 30  0.0050000  0  8  4 14 15 18 19 22 25 29
      8771.21400  26476529.68100
   1995920.99400  21959789.44600                   1554774.29540  21959792.83340
  15777209.59400  26401977.18800                  12458510.11640  26401986.33340
  -6993109.33900  24383336.30600                  -5211909.78540  24383339.65740
   -853923.60100  26168323.20400                   -296986.19840  26168330.52040
 -11500351.45600  22593990.14200                  -8671526.42240  22593993.28240
  12079938.15000  25717640.24300                   9558424.12040  25717643.70040
  -9771042.26000  22448346.45400                  -7358323.32540  22448348.78640
 96  9 11  2 30 30.0050000  0  8  4 14 15 18 19 22 25 29
     14460.36800  26477612.91500                      1069.88650  26477614.34540
   2043484.64000  21968840.44600                   1591836.87040  21968843.81040
  15901297.81300  26425590.96200                  12555202.04440  26425599.57940
  -7042054.72200  24374022.00100                  -5250049.01440  24374025.59940
   -914809.99400  26156737.06300                   -344430.15540  26156742.30240
 -11486071.11000  22596707.35300                  -8660398.86740  22596710.56340
  12195387.51300  25739609.38400                   9648384.67640  25739612.44240
  -9760646.68900  22450324.59500                  -7350222.87340  22450326.99740
 96  9 11  2 31  0.0050000  0  7  4 14 18 19 22 25 29
     20669.53200  26478794.07900                      5908.15940  26478800.46640
   2091617.59200  21977999.96200                   1629343.07140  21978003.31340
  -7090927.75800  24364722.00100                  -5288131.88240  24364725.10640
   -975521.98200  26145182.89200                   -391738.16340  26145183.20840
 -11471157.02300  22599545.68800                  -8648777.48240  22599548.98140
  12310861.89000  25761583.69600                   9738364.68340  25761585.98140
  -9750046.76500  22452341.78200                  -7341963.18740  22452344.18540
 96  9 11  2 31 30.0050000  0  7  4 14 18 19 22 25 29
     27394.67000  26480075.83700                     11148.55240  26480079.38840
   2140301.54700  21987264.04800                   1667278.61840  21987267.37640
  -7139706.28300  24355439.55600                  -5326141.10740  24355443.07140
  -1036085.05400  26133658.27400                   -438930.02840  26133663.59540
 -11455623.34000  22602501.55600                  -8636673.29340  22602504.86040
  12426358.89800  25783562.01700                   9828362.35440  25783566.25940
  -9739237.96900  22454398.64200                  -7333540.74140  22454400.96240
 96  9 11  2 32  0.0050000  0  7  4 14 18 19 22 25 29
     34621.95600  26481449.76700                     16780.18040  26481452.72040
   2189525.00300  21996631.01700                   1705634.55540  21996634.53240
  -7188376.70900  24346177.64200                  -5364066.11340  24346181.48540
  -1096519.93000  26122156.31300                   -486022.10340  26122158.78640
 -11439494.29900  22605570.75900                  -8624105.20040  22605573.93540
  12541863.49700  25805540.70400                   9918365.94440  25805543.64540
  -9728230.63100  22456493.25900                  -7324963.59140  22456495.56740
 96  9 11  2 32 30.0050000  0  7  4 14 18 19 22 25 29
     42355.98800  26482921.74300                     22806.73640  26482925.82140
   2239301.04500  22006103.14900                   1744421.07940  22006106.63040
  -7236927.23600  24336938.97800                  -5401897.65440  24336941.87240
  -1156809.84200  26110686.07100                   -533001.10640  26110683.59940
 -11422767.19900  22608753.79800                  -8611071.07840  22608756.90340
  12657370.03200  25827520.93800                  10008371.04940  25827524.04440
  -9717014.29100  22458627.59500                  -7316223.57740  22458629.89240
 96  9 11  2 33  0.0050000  0  7  4 14 18 19 22 25 29
     50570.62200  26484485.44600                     29207.77840  26484484.26340
   2289625.99700  22015679.50100                   1783635.32240  22015682.87640
  -7285380.10300  24327718.79000                  -5439653.12340  24327721.95440
  -1216973.74100  26099235.57100                   -579882.02340  26099242.99340
 -11405460.16200  22612047.29800                  -8597585.06340  22612050.34540
  12772858.87700  25849498.91500                  10098362.36340  25849500.35640
  -9705592.57900  22460801.16500                  -7307323.54040  22460803.55640
 96  9 11  2 33 30.0050000  0  7  4 14 18 19 22 25 29
     59284.62100  26486141.70400                     35997.78840  26486148.44240
   2340521.62000  22025364.74300                   1823294.25040  22025368.16540
  -7333743.10600  24318515.66500                  -5477338.57040  24318519.00540
  -1276992.66200  26087814.80600                   -626649.88040  26087818.29840
 -11387560.75600  22615453.44600                  -8583637.46540  22615456.45840
  12888334.14600  25871472.30600                  10188343.08240  25871475.95040
  -9693964.13300  22463014.04800                  -7298262.41640  22463016.27440
 96  9 11  2 34  0.0050000  0  7  4 14 18 19 22 25 29
     68509.25100  26487897.32900                     43185.92640  26487903.65740
   2392005.21800  22035161.72800                   1863411.33640  22035165.11440
  -7382025.42500  24309327.72800                  -5514961.13740  24309330.86840
  -1336822.29400  26076428.43800                   -673270.43340  26076432.89240
 -11369049.42300  22618976.07900                  -8569213.03340  22618979.13840
  13003803.65300  25893445.36000                  10278319.28840  25893448.09140
  -9682115.88000  22465268.61800                  -7289030.00340  22465270.93840
 96  9 11  2 34 30.0050000  0  7  4 14 18 19 22 25 29
     78237.03700  26489748.81300                     50765.96640  26489753.27840
   2444073.40500  22045070.04800                   1903983.94240  22045073.39940
  -7430246.18900  24300151.59500                  -5552535.74640  24300154.26740
  -1396470.11200  26065078.50100                   -719749.09240  26065084.59540
 -11349919.28400  22622616.30600                  -8554306.41940  22622619.34140
  13119264.41900  25915417.24300                  10368288.72340  25915420.03240
  -9670040.12900  22467566.60300                  -7279620.32340  22467568.97040
 96  9 11  2 35  0.0050000  0  7  4 14 18 19 22 25 29
     88461.66400  26491694.10300                     58733.23740  26491694.45440
   2496718.55300  22055088.00900                   1945006.12740  22055091.54840
  -7478419.52500  24290984.58700                  -5590073.40040  24290988.13840
  -1455951.99200  26053759.62600                   -766098.52440  26053767.09540
 -11330160.77400  22626376.25900                  -8538910.16440  22626379.45840
  13234732.92100  25937389.07900                  10458264.19640  25937391.71640
  -9657742.27400  22469906.76700                  -7270037.57740  22469908.97040
 96  9 11  2 35 30.0050000  0  7  4 14 18 19 22 25 29
     99181.58100  26493735.15700                     67086.38540  26493735.88440
   2549923.53000  22065212.65700                   1986464.54940  22065216.09140
  -7526553.71500  24281825.01700                  -5627580.53440  24281827.61840
  -1515267.40800  26042472.08700                   -812318.21940  26042474.56040
 -11309770.44000  22630256.31300                  -8523021.58140  22630259.50140
  13350210.67700  25959365.90700                  10548246.87240  25959369.69240
  -9645233.64600  22472287.02400                  -7260290.58840  22472289.35640
 96  9 11  2 36  0.0050000  0  7  4 14 18 19 22 25 29
    110396.22800  26495868.24300                     75825.08540  26495869.39240
   2603685.38000  22075443.28200                   2028356.89740  22075446.68140
  -7574635.65900  24272675.24300                  -5665046.98040  24272678.84140
  -1574434.42500  26031213.44600                   -858422.34540  26031217.50140
 -11288740.38700  22634258.33700                  -8506634.50740  22634261.56040
  13465708.13900  25981342.43100                  10638244.88740  25981346.33340
  -9632510.23400  22474708.25100                  -7250376.23340  22474710.47840
 96  9 11  2 36 30.0050000  0  7  4 14 18 19 22 25 29
    122103.01200  26498096.29800                     84947.21140  26498097.06040
   2658001.41200  22085779.39900                   2070681.07540  22085782.70440
  -7622660.92500  24263536.80600                  -5702469.25040  24263540.06340
  -1633474.49200  26019978.17300                   -904427.53740  26019982.15740
 -11267072.92100  22638381.56300                  -8489750.75340  22638384.69240
  13581218.63900  26003324.72000                  10728253.02640  26003327.76740
  -9619579.55500  22477169.03200                  -7240300.37340  22477171.35340
 96  9 11  2 37  0.0050000  0  7  4 14 18 19 22 25 29
    134299.40800  26500416.93800                     94450.93640  26500421.89540
   2712864.31500  22096219.21200                   2113431.38140  22096222.69240
  -7670627.04000  24254408.46200                  -5739845.43440  24254411.84940
  -1692385.71200  26008767.59500                   -950332.33840  26008770.27840
 -11244785.34500  22642622.53200                  -8472383.80040  22642625.59140
  13696729.41700  26025305.43800                  10818261.46640  26025308.97840
  -9606453.54200  22479666.73500                  -7230072.31240  22479668.99740
 96  9 11  2 37 30.0050000  0  7  4 14 18 19 22 25 29
    146999.52200  26502833.69600                    104347.13540  26502842.45440
   2768294.51200  22106767.32100                   2156623.74240  22106770.76740
  -7718498.46600  24245298.95400                  -5777147.82740  24245302.07140
  -1751142.34700  25997586.44600                   -996116.66640  25997587.58340
 -11221870.77200  22646983.06300                  -8454528.27240  22646986.20440
  13812240.21100  26047287.24300                  10908269.86540  26047289.31740
  -9593111.83200  22482205.46200                  -7219676.16740  22482207.63040
 96  9 11  2 38  0.0050000  0  7  4 14 18 19 22 25 29
    160192.50600  26505345.11800                    114627.42240  26505345.98540
   2824279.12000  22117420.67300                   2200248.11140  22117424.15340
  -7766272.42500  24236208.14900                  -5814374.28140  24236211.51340
  -1809759.39100  25986432.16500                  -1041792.24340  25986439.45840
 -11198342.53500  22651460.36800                  -8436194.57040  22651463.57940
  13927735.41800  26069264.08700                  10998266.13340  26069264.69640
  -9579562.78300  22484783.86000                  -7209118.46140  22484786.15740
 96  9 11  2 38 30.0050000  0  7  4 14 18 19 22 25 29
    173877.46400  26507949.11000
   2880823.72100  22128180.95400                   2244308.84140  22128184.42340
  -7813945.09400  24227136.25900                  -5851521.80740  24227139.62240
  -1868222.77000  25975307.01700                  -1087348.04740  25975312.10340
 -11174202.53900  22656054.12600                  -8417384.17440  22656057.48940
  14043219.28600  26091239.27400                  11088253.56340  26091241.67740
  -9565806.86700  22487401.42300                  -7198399.56440  22487403.73140
 96  9 11  2 39  0.0050000  0  7  4 14 18 19 22 25 29
    188051.11500  26510646.25900
   2937939.40600  22139049.61800                   2288814.56340  22139053.06340
  -7861516.66700  24218084.00900                  -5888590.55240  24218086.96240
  -1926533.84100  25964209.65700                  -1132785.17440  25964212.37640
 -11149442.42900  22660765.74300                  -8398090.56940  22660768.83740
  14158705.02000  26113215.89900                  11178242.48740  26113217.45840
  -9551838.06000  22490059.67300                  -7187514.77840  22490062.01740
 96  9 11  2 39 30.0060000  0  7  4 14 18 19 22 25 29
    202709.04600  26513436.07600                        -0.92950  26513439.11140
   2995618.00400  22150025.21700                   2333758.92340  22150028.69740
  -7909008.26700  24209046.07600                  -5925596.98940  24209048.99440
  -1984700.45100  25953141.45100                  -1178109.79540  25953143.19740
 -11124052.27500  22665597.31800                  -8378306.02440  22665600.54140
  14274197.67300  26135193.81100                  11268236.72540  26135198.55740
  -9537672.18500  22492755.45100                  -7176476.42840  22492757.76040
 96  9 11  2 40  0.0060000  0  7  4 14 18 19 22 25 29
    217864.99200  26516319.74800                     11808.88140  26516324.36540
   3053868.45200  22161109.94300                   2379148.88240  22161113.44740
  -7956417.76200  24200024.47500                  -5962539.42140  24200027.67440
  -2042695.54900  25942105.44300                  -1223300.65240  25942112.32640
 -11098015.67600  22670551.99000                  -8358017.75740  22670555.14340
  14389708.09700  26157175.88900                  11358244.85740  26157175.98240
  -9523305.77700  22495489.26400                  -7165281.81840  22495491.51440
 96  9 11  2 40 30.0060000  0  7  4 14 18 19 22 25 29
    233510.62500  26519295.67000                     24000.30340  26519299.40840
   3112699.88600  22172305.35700                   2424991.54840  22172308.90840
  -8003762.69900  24191014.88900                  -5999431.57740  24191018.01840
  -2100523.47800  25931101.94300                  -1268361.35240  25931106.87740
 -11071352.57100  22675625.69300                  -8337241.30140  22675628.90440
  14505222.06600  26179157.06100                  11448255.73440  26179160.24840
  -9508736.94500  22498261.52100                  -7153929.47440  22498263.87740
 96  9 11  2 41  0.0060000  0  7  4 14 18 19 22 25 29
    249670.21500  26522372.38900                     36592.15040  26522374.45140
   3172110.09700  22183610.83400                   2471285.22140  22183614.24440
  -8051030.34500  24182020.10000                  -6036263.48940  24182022.87740
  -2158165.38300  25920132.23200                  -1313277.05840  25920139.33840
 -11044050.59200  22680821.03700                  -8315967.02140  22680824.18940
  14620731.86300  26201135.67000                  11538263.37640  26201138.83440
  -9493940.62300  22501077.32600                  -7142399.86640  22501079.51840
 96  9 11  2 41 30.0060000  0  7  4 14 18 19 22 25 29
    266350.97100  26525545.24800                     49590.14740  26525550.34640
   3232093.54300  22195025.24800                   2518025.56740  22195028.67040
  -8098201.01100  24173044.10000                  -6073019.84940  24173048.14340
  -2215603.35900  25909202.35700                  -1358033.88040  25909206.54140
 -11016122.17200  22686135.63900                  -8294204.61340  22686138.68640
  14736230.26600  26223117.70900                  11628262.11840  26223120.68640
  -9478904.78400  22503938.42800                  -7130683.62840  22503940.65440
 96  9 11  2 42  0.0060000  0  7  4 14 18 19 22 25 29
    283552.01200  26528819.28700                     62993.55640  26528823.20140
   3292658.46200  22206550.40400                   2565219.00740  22206553.74440
  -8145252.84200  24164090.47500                  -6109683.59540  24164094.00240
  -2272837.53300  25898310.83400                  -1402631.87440  25898315.93240
 -10987587.30100  22691565.50600                  -8271969.63440  22691568.50640
  14851705.01300  26245089.07600                  11718242.42940  26245091.29140
  -9463599.34900  22506850.85700                  -7118757.30840  22506853.08440
 96  9 11  2 42 30.0060000  0  7  4 14 18 19 22 25 29
    301266.96400  26532190.02100                     76797.41540  26532194.87340
   3353786.54700  22218182.67000                   2612851.26940  22218186.02140
  -8192190.53100  24155158.24800                  -6146258.40640  24155161.93940
  -2329889.63900  25887454.21700                  -1447088.01640  25887457.65040
 -10958452.85700  22697109.78700                  -8249267.46240  22697112.89340
  14967141.00800  26267056.05300                  11808192.60740  26267059.54540
  -9448016.93600  22509816.12300                  -7106615.17240  22509818.39640
 96  9 11  2 43  0.0060000  0  7  4 14 18 19 22 25 29
    319489.01900  26535657.31100                     90996.42340  26535658.11940
   3415466.81100  22229919.78700                   2660913.80540  22229923.27940
  -8239016.01900  24146247.58400                  -6182745.78340  24146250.43240
  -2386757.57800  25876632.32600                  -1491400.67940  25876638.27940
 -10928702.95300  22702771.14600                  -8226085.71540  22702774.06440
  15082547.35800  26289017.01400                  11898119.59040  26289018.72540
  -9432159.82600  22512833.63900                  -7094258.97940  22512835.99440
 96  9 11  2 43 30.0060000  0  7  4 14 18 19 22 25 29
    338186.83300  26539216.22500                    105566.16140  26539220.24440
   3477694.35500  22241761.60000                   2709402.80240  22241765.19740
  -8285759.42000  24137352.64600                  -6219169.19540  24137355.69340
  -2443465.00900  25865841.24800                  -1535588.22340  25865845.64340
 -10898349.13700  22708546.99000                  -8202433.37740  22708550.04940
  15197912.35000  26310971.41200                  11988014.40840  26310973.25240
  -9416058.64000  22515897.60700                  -7081712.59840  22515899.90440
 96  9 11  2 44  0.0060000  0  7  4 14 18 19 22 25 29
    357367.75400  26542866.52100                    120512.34740  26542871.46740
   3540468.52900  22253707.26400                   2758317.74240  22253710.69740
  -8332432.16700  24128471.33400                  -6255537.55740  24128474.54540
  -2500013.21500  25855080.66200                  -1579651.71740  25855085.25640
 -10867362.84800  22714443.58400                  -8178288.20640  22714446.66640
  15313241.28700  26332918.09200                  12077881.04140  26332923.98640
  -9399721.36700  22519006.47500                  -7068982.25540  22519008.63140
 96  9 11  2 44 30.0060000  0  7  4 14 18 19 22 25 29
    377034.52100  26546607.81800                    135837.05040  26546615.11140
   3603786.35500  22265756.09200                   2807656.30940  22265759.57240
  -8379044.82900  24119601.31100                  -6291859.10040  24119604.43940
  -2556396.97000  25844350.91200                  -1623587.05540  25844356.23240
 -10835725.93200  22720463.81100                  -8153636.05340  22720466.77540
  15428551.60100  26354860.98200                  12167733.27040  26354863.32640
  -9383169.83200  22522156.06800                  -7056084.95040  22522158.30740
 96  9 11  2 45  0.0060000  0  7  4 14 18 19 22 25 29
    397183.34600  26550442.95100                    151537.42240  26550446.76040
   3667653.12000  22277909.52900                   2857422.62140  22277913.06840
  -8425584.73700  24110744.75600                  -6328123.94340  24110748.40040
  -2612609.11900  25833654.08400                  -1667388.65640  25833659.59240
 -10803449.86700  22726605.73200                  -8128485.85840  22726608.90840
  15543861.53400  26376801.27900                  12257585.20940  26376803.75240
  -9366415.47900  22525344.37300                  -7043029.60040  22525346.64640
 96  9 11  2 45 30.0060000  0  7  4 14 18 19 22 25 29
    417827.97900  26554371.46700                    167624.15640  26554373.86940
   3732079.19700  22290169.32600                   2907624.75740  22290172.78340
  -8472031.57600  24101906.44300                  -6364316.27840  24101909.19740
  -2668641.55500  25822991.46700                  -1711050.25140  25822995.29940
 -10770526.54900  22732870.93600                  -8102831.32140  22732874.01840
  15659192.66800  26398749.87300                  12347453.53640  26398751.67840
  -9349460.15300  22528570.87300                  -7029817.66040  22528573.15840
 96  9 11  2 46  0.0060000  0  7  4 14 18 19 22 25 29
    438960.27800  26558391.89600                    184090.90040  26558397.05340
   3797056.93300  22302534.13900                   2958256.74640  22302537.63140
  -8518373.51500  24093088.09200                  -6400426.86440  24093091.36140
  -2724507.74100  25812360.71700                  -1754582.31240  25812365.55740
 -10736972.47500  22739255.94300                  -8076685.27440  22739259.24840
  15774551.26500  26420701.70100                  12437343.34840  26420702.25240
  -9332300.52200  22531836.27900                  -7016446.51840  22531838.54140
 96  9 11  2 46 30.0060000  0  7  4 14 18 19 22 25 29
    460594.04600  26562509.16200                    200948.33640  26562514.34240
   3862598.11900  22315006.23200                   3009327.79640  22315009.63140
  -8564587.15600  24084293.50600                  -6436437.47540  24084296.61140
  -2780202.02900  25801762.35000                  -1797980.41140  25801769.32640
 -10702795.84700  22745759.49000                  -8050054.13140  22745762.67840
  15889954.89600  26442662.68600                  12527268.35640  26442666.16640
  -9314919.53200  22535143.65400                  -7002902.88640  22535146.02140
 96  9 11  2 47  0.0060000  0  7  4 14 18 19 22 25 29
    482725.59400  26566720.81100                    218193.66740  26566724.23240
   3928692.76300  22327583.69300                   3060830.11140  22327587.09240
  -8610672.49400  24075523.92800                  -6472348.11440  24075527.09240
  -2835736.17300  25791194.79500                  -1841253.73440  25791199.92840
 -10668002.12900  22752380.28700                  -8022942.13240  22752383.40440
  16005381.68000  26464628.45100                  12617211.19040  26464632.95140
  -9297315.75200  22538493.60000                  -6989185.65140  22538495.93240
 96  9 11  2 47 30.0060000  0  6  4 14 18 19 22 29
    505365.24000  26571029.74800                    235834.98240  26571032.16240
   3995343.92300  22340267.02900                   3112766.07140  22340270.42840
  -8656634.40300  24066777.35000                  -6508162.56540  24066780.25640
  -2891111.24000  25780656.97500                  -1884403.06140  25780659.48240
 -10632579.55300  22759121.31100                  -7995340.12040  22759124.46340
  -9279490.73100  22541885.59200                  -6975296.02240  22541887.87740
 96  9 11  2 48  0.0060000  0  6  4 14 18 19 22 29
    528508.92600  26575433.08400                    253869.02040  26575435.79140
   4062529.77100  22353051.96700                   3165118.67440  22353055.36540
  -8702490.96500  24058051.27900                  -6543894.94140  24058054.43240
  -2946334.82700  25770147.95100                  -1927434.41540  25770152.75640
 -10596550.96600  22765977.20100                  -7967265.88840  22765980.30740
  -9261439.09800  22545320.63100                  -6961229.80640  22545323.01040
 96  9 11  2 48 30.0060000  0  6  4 14 18 19 22 29
    552167.67600  26579935.12300                    272304.40040  26579936.83440
   4130261.06700  22365940.85700                   3217896.30340  22365944.35040
  -8748241.17500  24049345.24800                  -6579544.43440  24049348.78740
  -3001377.67100  25759674.01400                  -1970324.88240  25759680.03740
 -10559904.86700  22772950.88900                  -7938710.47940  22772954.13540
  -9243155.32700  22548799.92000                  -6946982.70740  22548802.22840
 96  9 11  2 49  0.0060000  0  6  4 14 18 19 22 29
    576310.51300  26584529.66200                    291116.93740  26584530.82240
   4198540.60900  22378934.06800                   3271101.13840  22378937.59640
  -8793897.32600  24040657.42800                  -6615120.64340  24040660.07640
  -3056236.04700  25749234.29500                  -2013071.60740  25749240.38940
 -10522643.07200  22780041.63100                  -7909675.30740  22780044.88940
  -9224647.91900  22552321.82600                  -6932561.35240  22552324.25240
 96  9 11  2 49 30.0060000  0  6  4 14 18 19 22 29
    600933.63500  26589215.18600                    310303.77840  26589220.52940
   4267377.33300  22392033.24000                   3324740.13840  22392036.68640
  -8839448.33400  24031989.44300                  -6650614.93440  24031992.30340
  -3110896.82300  25738833.13900                  -2055664.37140  25738837.60340
 -10484757.43300  22787250.95900                  -7880154.02040  22787253.98240
  -9205893.88100  22555890.57600                  -6917947.81040  22555892.94340
 96  9 11  2 50  0.0060000  0  6  4 14 18 19 22 29
    626033.18400  26593990.97500                    329861.90840  26593995.41640
   4336765.72200  22405237.43600                   3378809.00340  22405240.90440
  -8884887.71600  24023342.28700                  -6686022.22440  24023345.24040
  -3165353.82400  25728470.49800                  -2098098.37340  25728473.73240
 -10446244.78700  22794579.61500                  -7850144.16540  22794582.75640
  -9186877.26500  22559509.36500                  -6903129.65840  22559511.68640
 96  9 11  2 50 30.0060000  0  6  4 14 18 19 22 29
    651599.33800  26598855.38900                    349783.60340  26598859.59640
   4406704.23700  22418546.17000                   3433306.53740  22418549.67440
  -8930217.65000  24014716.52100                  -6721344.25040  24014719.89640
  -3219618.24800  25718143.81800                  -2140382.27340  25718148.50640
 -10407103.63600  22802027.94300                  -7819644.56240  22802030.92040
  -9167614.35700  22563175.02900                  -6888119.58840  22563177.31440
 96  9 11  2 51  0.0060000  0  6  4 14 18 19 22 29
    677652.87500  26603813.74800                    370085.01040  26603816.49040
   4477179.94100  22431957.47500                   3488222.65640  22431960.94340
  -8975427.67500  24006113.10000                  -6756572.82340  24006116.35740
  -3273700.91600  25707852.27100                  -2182524.54640  25707857.11140
 -10367324.10000  22809597.53700                  -7788647.51440  22809600.63140
  -9148091.91600  22566889.91200                  -6872907.29140  22566892.16240
 96  9 11  2 51 30.0060000  0  6  4 14 18 19 22 29
    704222.92100  26608869.85000                    390788.95540  26608874.80740
   4548184.36400  22445469.19300                   3543550.77240  22445472.56840
  -9020525.95600  23997531.22500                  -6791714.33340  23997534.11940
  -3327612.69600  25697593.03700                  -2224533.70840  25697598.04140
 -10326914.91500  22817287.24000                  -7757159.83340  22817290.20540
  -9128308.63300  22570654.63900                  -6857491.74740  22570657.00640
 96  9 11  2 52  0.0060000  0  6  4 14 18 19 22 29
    731316.49200  26614026.00600                    411900.78340  26614029.27540
   4619720.51600  22459082.02100                   3599293.21440  22459085.49040
  -9065525.05400  23988968.12300                  -6826778.55640  23988971.42840
  -3381358.61800  25687365.86500                  -2266413.60840  25687370.27140
 -10285891.79400  22825093.67800                  -7725193.76040  22825096.68940
  -9108279.04500  22574466.07600                  -6841884.26740  22574468.31440
 96  9 11  2 52 30.0060000  0  6  4 14 18 19 22 29
    758921.57300  26619279.27100                    433411.25540  26619282.44740
   4691798.34600  22472797.94300                   3655457.76040  22472801.31840
  -9110435.55000  23980422.08400                  -6861773.73940  23980424.47540
  -3434941.72500  25677169.13100                  -2308166.60940  25677174.74440
 -10244260.25500  22833015.95100                  -7692753.59740  22833019.04540
  -9088002.93600  22578324.25600                  -6826084.69540  22578326.38940
 96  9 11  2 53  0.0060000  0  6  4 14 18 19 22 29
    787019.25500  26624625.73200                    455305.54240  26624631.32240
   4764422.80700  22486617.85000                   3712048.24640  22486621.21340
  -9155269.56500  23971890.49800                  -6896709.31340  23971893.54540
  -3488360.50500  25667003.92000                  -2349791.56840  25667007.91640
 -10202030.66600  22841051.96700                  -7659847.41540  22841055.06140
  -9067476.96800  22582230.31100                  -6810090.42540  22582232.50240
 96  9 11  2 53 30.0060000  0  6  4 14 18 19 22 29
    815596.38300  26630064.56100                    477573.43640  26630069.76440
   4837621.32300  22500547.08400                   3769086.03840  22500550.70540
  -9200029.40600  23963372.74800                  -6931587.09940  23963376.20540
  -3541601.84200  25656872.53700                  -2391278.29640  25656876.69740
 -10159196.26400  22849203.02100                  -7626469.95040  22849206.03340
  -9046696.73700  22586184.63900                  -6793898.03140  22586186.79540
 96  9 11  2 54  0.0060000  0  6  4 14 18 19 22 29
    844631.19700  26635589.69300                    500197.93640  26635593.02140
   4911378.02200  22514582.49000                   3826558.77940  22514586.00640
  -9244697.42300  23954872.64600                  -6966393.32240  23954875.88140
  -3594662.23900  25646775.15400                  -2432624.00740  25646779.42040
 -10115753.65100  22857469.93600                  -7592618.55840  22857473.08840
  -9025669.21400  22590186.13100                  -6777512.94240  22590188.41640
 96  9 11  2 54 30.0060000  0  6  4 14 18 19 22 29
    874116.00100  26641199.64600                    523173.08740  26641203.98240
   4985680.44900  22528721.81800                   3884456.76740  22528725.27540
  -9289266.03500  23946391.88900                  -7001122.10640  23946395.10040
  -3647539.27100  25636712.76400                  -2473826.83840  25636717.53340
 -10071701.78800  22865852.70100                  -7558292.42540  22865855.83040
  -9004408.36200  22594231.81100                  -6760946.04340  22594234.04940
 96  9 11  2 55  0.0060000  0  6  4 14 18 19 22 29
    904068.79900  26646899.33400                    546512.92740  26646901.58440
   5060531.13100  22542965.43600                   3942781.97040  22542968.88140
  -9333703.70100  23937935.73200                  -7035748.84440  23937938.42840
  -3700224.89200  25626687.31100                  -2514880.52440  25626691.85740
 -10027031.30900  22874353.13900                  -7523484.25240  22874356.25640
  -8982905.32800  22598323.74800                  -6744190.42840  22598325.96340
 96  9 11  2 55 30.0060000  0  6  4 14 18 19 22 29
    934501.71900  26652690.91200                    570226.89940  26652694.80340
   5135927.83900  22557312.88100                   4001532.64940  22557316.35040
  -9377978.92900  23929510.15400                  -7070249.01040  23929513.44740
  -3752717.55700  25616698.47500                  -2555783.88540  25616703.08040
  -9981745.86300  22882970.60700                  -7488196.88740  22882973.73640
  -8961157.41900  22602462.29500                  -6727244.00340  22602464.66240
 96  9 11  2 56  0.0060000  0  6  4 14 18 19 22 29
    965411.73400  26658572.81100                    594312.58340  26658577.54540
   5211857.09500  22571762.13900                   4060698.30040  22571765.64340
  -9422076.73700  23921118.66200                  -7104610.92640  23921121.74440
  -3805013.04900  25606746.54500                  -2596533.54640  25606751.01040
  -9935859.18100  22891702.59200                  -7452441.02440  22891705.62740
  -8939162.31700  22606647.71700                  -6710104.96440  22606650.16640
 96  9 11  2 56 30.0060000  0  6  4 14 18 19 22 29
    996798.83600  26664546.14600                    618770.06540  26664550.37740
   5288326.00200  22586313.42000                   4120284.44940  22586316.81840
  -9466017.88200  23912757.02900                  -7138850.76140  23912759.93640
  -3857117.26200  25596831.52900                  -2637134.18240  25596836.87340
  -9889366.75600  22900549.99800                  -7416213.15340  22900553.15040
  -8916903.47200  22610883.42800                  -6692760.40740  22610885.79540
 96  9 11  2 57  0.0060000  0  6  4 14 18 19 22 29
   1028655.45400  26670608.16200                    643593.37340  26670615.50240
   5365319.88500  22600964.84200                   4180279.67440  22600968.49840
  -9509809.06500  23904423.31100                  -7172973.75040  23904426.36940
  -3909045.68100  25586949.79500                  -2677597.85740  25586955.05740
  -9842267.49300  22909512.53700                  -7379512.42640  22909515.71340
  -8894366.31600  22615172.00600                  -6675198.98740  22615174.30340
 96  9 11  2 57 30.0060000  0  6  4 14 18 19 22 29
   1060994.14600  26676761.76400                    668792.37640  26676768.62340
   5442837.84900  22615715.99000                   4240683.27840  22615719.61140
  -9553459.03900  23896117.20900                  -7206986.69840  23896120.29140
  -3960794.94300  25577102.09200                  -2717921.90940  25577106.07640
  -9794544.42900  22918593.69300                  -7342325.61840  22918597.04540
  -8871555.24200  22619512.89600                  -6657424.11240  22619515.14640
 96  9 11  2 58  0.0060000  0  6  4 14 18 19 22 29
   1093820.10400  26683007.90400                    694371.02340  26683012.26440
   5520872.91700  22630565.66200                   4301489.82240  22630569.13140
  -9596993.90000  23887832.77100                  -7240909.94940  23887836.12340
  -4012372.07200  25567287.61500                  -2758111.85140  25567292.33840
  -9746180.58600  22927797.23200                  -7304639.49940  22927800.26840
  -8848477.00500  22623904.63900                  -6639441.06240  22623906.95940
 96  9 11  2 58 30.0060000  0  6  4 14 18 19 22 29
   1127145.49900  26689349.93600                    720338.86140  26689355.29140
   5599430.61400  22645514.77100                   4362703.60840  22645518.21740
  -9640420.45800  23879569.19300                  -7274748.81140  23879572.22840
  -4063782.21700  25557504.44300                  -2798171.66140  25557508.97840
  -9697158.24000  22937125.77900                  -7266440.26340  22937128.97840
  -8825140.13900  22628345.61500                  -6621256.48740  22628347.93640
 96  9 11  2 59  0.0060000  0  6  4 14 18 19 22 29
   1160974.92500  26695786.84200                    746699.42340  26695790.74440
   5678510.98100  22660563.14600                   4424324.67040  22660566.58040
  -9683721.24000  23871328.99800                  -7308489.66240  23871332.01040
  -4115017.28500  25547754.95100                  -2838095.07140  25547758.37340
  -9647489.37900  22946577.66200                  -7227737.25240  22946580.67440
  -8801558.86000  22632832.88100                  -6602881.45740  22632835.26040
 96  9 11  2 59 30.0060000  0  6  4 14 18 19 22 29
   1195303.65400  26702319.50600                    773449.08240  26702322.30740
   5758133.84800  22675714.93600                   4486368.45640  22675718.38140
  -9726899.54300  23863112.59200                  -7342135.07540  23863115.92040
  -4166067.42100  25538040.56100                  -2877874.35940  25538045.52940
  -9597189.48000  22956149.29500                  -7188542.51840  22956152.16640
  -8777737.69600  22637365.95100                  -6584319.50640  22637368.04940
 96  9 11  3  0  0.0060000  0  6  4 14 18 19 22 29
   1230122.34300  26708946.17000                    800580.49040  26708950.33040
   5838301.66800  22690970.45100                   4548836.88340  22690974.06140
  -9769955.41900  23854919.27100                  -7375685.10340  23854922.28340
  -4216914.84400  25528364.33400                  -2917495.69340  25528368.17840
  -9546270.45500  22965838.99800                  -7148865.35140  22965842.01040
  -8753659.31900  22641947.82600                  -6565557.13240  22641950.08840
 96  9 11  3  0 30.0060000  0  6  4 14 18 19 22 29
   1265421.07500  26715663.17000                    828085.99240  26715669.19340
   5919002.86000  22706327.13900                   4611720.93440  22706330.51440
  -9812879.93700  23846751.20100                  -7409132.76640  23846754.13140
  -4267547.60300  25518728.81100                  -2956949.75940  25518733.12340
  -9494752.97000  22975642.38900                  -7108721.85140  22975645.22540
  -8729317.35300  22646579.66200                  -6546589.36040  22646581.92440
 96  9 11  3  1  0.0060000  0  6  4 14 18 19 22 29
   1301187.99800  26722469.06100                    855956.28640  26722472.47140
   6000224.08000  22721783.19300                   4675010.18640  22721786.63940
  -9855684.07200  23838605.92000                  -7442486.62840  23838608.88540
  -4317973.75000  25509133.25600                  -2996242.82540  25509138.28340
  -9442664.23200  22985554.49000                  -7068133.22240  22985557.43240
  -8704714.94600  22651261.74000                  -6527418.64440  22651263.90840
 96  9 11  3  1 30.0060000  0  6  4 14 18 19 22 29
   1337417.13600  26729363.05300                    884186.81440  26729365.85340
   6081956.11600  22737336.26400                   4738697.46940  22737339.80340
  -9898370.90300  23830482.52100                  -7475749.07740  23830485.79140
  -4368201.04600  25499574.85700                  -3035380.94740  25499579.70940
  -9389994.77600  22995576.99000                  -7027092.08140  22995579.95540
  -8679841.09500  22655994.95900                  -6508036.41340  22655997.26840
 96  9 11  3  2  0.0060000  0  6  4 14 18 19 22 29
   1374118.91400  26736347.35000                    912785.59540  26736351.20540
   6164175.22900  22752982.01400                   4802764.31640  22752985.40040
  -9940934.83700  23822382.87300                  -7508915.76240  23822386.47140
  -4418238.06200  25490053.77900                  -3074370.78640  25490058.51440
  -9336732.30700  23005712.54500                  -6985588.85140  23005715.73240
  -8654696.44000  22660779.75600                  -6488443.16640  22660781.93640
 96  9 11  3  2 30.0060000  0  6  4 14 18 19 22 29
   1411296.71400  26743422.33400                    941755.26140  26743427.03340
   6246891.68300  22768722.41200                   4867218.68840  22768725.83440
  -9983359.04100  23814309.84200                  -7541973.57240  23814313.01840
  -4468097.16400  25480565.87300                  -3113222.00640  25480570.11540
  -9282868.77800  23015962.63100                  -6943617.26440  23015965.65440
  -8629283.12300  22665615.87300                  -6468640.57540  22665618.18240
 96  9 11  3  3  0.0060000  0  6  4 14 18 19 22 29
   1448927.72500  26750582.99000                    971078.14640  26750587.47840
   6330109.43700  22784558.36500                   4932063.67640  22784561.68240
 -10025645.74200  23806263.12300                  -7574924.23340  23806266.62740
  -4517799.05700  25471107.71700                  -3151950.72340  25471111.51440
  -9228405.71200  23026326.32600                  -6901178.50640  23026329.30340
  -8603607.24900  22670501.78700                  -6448633.39540  22670504.03740
 96  9 11  3  3 30.0060000  0  6  4 14 18 19 22 29
   1487008.55800  26757828.98200                   1000751.49240  26757831.30340
   6413835.12700  22800490.85700                   4997304.47240  22800494.47840
 -10067778.37400  23798245.56100                  -7607754.84840  23798248.59640
  -4567329.35600  25461682.53700                  -3190545.70940  25461687.16640
  -9173335.33000  23036806.09200                  -6858266.51440  23036809.09240
  -8577650.59600  22675441.05300                  -6428407.42440  22675443.37340
 96  9 11  3  4  0.0060000  0  6  4 14 18 19 22 29
   1525551.13600  26765164.09200                   1030784.67940  26765167.59640
   6498093.45100  22816524.62300                   5062960.30940  22816527.95140
 -10109745.02300  23790259.42000                  -7640456.11140  23790262.40840
  -4616660.77500  25452294.81100                  -3228985.74340  25452299.61540
  -9117660.38600  23047400.81800                  -6814883.43340  23047403.73640
  -8551411.26300  22680434.24000                  -6407961.18440  22680436.60740
 96  9 11  3  4 30.0060000  0  6  4 14 18 19 22 29
   1564540.28900  26772582.90400                   1061165.81040  26772584.51040
   6582892.35400  22832661.20100                   5129037.37040  22832664.67040
 -10151542.23900  23782305.95900                  -7673025.36440  23782309.00640
  -4665784.50600  25442946.84200                  -3267263.92840  25442951.22540
  -9061392.66000  23058108.28700                  -6771038.44540  23058111.32240
  -8524879.62900  22685482.97500                  -6387287.17540  22685485.24840
 96  9 11  3  5  0.0060000  0  6  4 14 18 19 22 29
   1603977.97800  26780088.35700                   1091896.47240  26780091.94340
   6668223.28200  22848899.17800                   5195529.00640  22848902.71740
 -10193174.29100  23774383.25600                  -7705465.91740  23774386.52540
  -4714697.34800  25433639.21700                  -3305377.77940  25433643.72840
  -9004534.81600  23068927.82600                  -6726733.63340  23068930.86140
  -8498055.68400  22690587.59200                  -6366385.39340  22690589.83040
 96  9 11  3  5 30.0060000  0  6  4 14 18 19 22 29
   1643887.93900  26787682.92800                   1122995.12540  26787686.72540
   6754078.93100  22865237.11500                   5262429.51740  22865240.58440
 -10234652.17000  23766490.27100                  -7737786.33140  23766493.35340
  -4763398.56200  25424371.31100                  -3343326.76240  25424376.39640
  -8947086.69800  23079859.91200                  -6681968.85640  23079862.97140
  -8470945.54300  22695746.49000                  -6345260.60140  22695748.70540
 96  9 11  3  6  0.0060000  0  6  4 14 18 19 22 29
   1684273.36900  26795367.96700                   1154464.26140  26795371.63540
   6840446.77900  22881672.32600                   5329729.13440  22881675.76040
 -10275982.55600  23758625.24000                  -7769991.81740  23758628.29940
  -4811904.48400  25415141.10000                  -3381123.54540  25415145.45940
  -8889051.72000  23090903.26400                  -6636746.79640  23090906.11140
  -8443572.27000  22700955.27900                  -6323930.77240  22700957.58840
 96  9 11  3  6 30.0060000  0  6  4 14 18 19 22 29
   1725131.26700  26803143.01400                   1186301.58540  26803146.50640
   6927321.25600  22898203.97500                   5397423.52540  22898207.61940
 -10317162.17700  23750789.38900                  -7802079.81640  23750792.08440
  -4860231.77200  25405944.60700                  -3418781.14440  25405949.51840
  -8830419.10600  23102060.83400                  -6591059.03940  23102063.83440
  -8415929.38800  22706215.57600                  -6302390.85440  22706217.79140
 96  9 11  3  7  0.0060000  0  6  4 14 18 19 22 29
   1766466.10600  26811008.65400                   1218510.49440  26811014.39640
   7014700.87200  22914831.69300                   5465511.53240  22914835.22140
 -10358200.87000  23742979.85700                  -7834058.01240  23742983.05740
  -4908390.30400  25396780.41200                  -3456307.23740  25396784.76040
  -8771192.31700  23113331.54500                  -6544908.28540  23113334.35740
  -8388030.65100  22711524.57600                  -6280651.57340  22711526.87340
 96  9 11  3  7 30.0060000  0  6  4 14 18 19 22 29
   1808285.28900  26818966.99000                   1251096.87840  26818968.78340
   7102594.65200  22931557.34200                   5534000.18340  22931560.86940
 -10399080.21900  23735200.80300                  -7865912.02440  23735203.86140
  -4956358.87100  25387652.02900                  -3493685.31540  25387656.04940
  -8711365.27100  23124716.00600                  -6498289.79940  23124718.98240
  -8359856.77700  22716885.91200                  -6258697.90040  22716888.06840
 96  9 11  3  8  0.0060000  0  6  4 14 18 19 22 29
   1850567.71400  26827012.23200                   1284044.22840  26827014.06140
   7191010.82400  22948382.50600                   5602895.90340  22948386.17440
 -10439789.01100  23727454.31800                  -7897633.15640  23727457.49440
  -5004135.10900  25378560.77900                  -3530913.50940  25378564.55340
  -8650939.37200  23136214.58400                  -6451204.68140  23136217.74840
  -8331411.44400  22722298.84200                  -6236532.69240  22722301.12740
 96  9 11  3  8 30.0060000  0  6  4 14 18 19 22 29
   1893303.29200  26835145.41200                   1317344.62340  26835147.24040
   7279949.07600  22965306.84200                   5672198.43540  22965310.60340
 -10480326.40800  23719740.21700                  -7929220.71640  23719743.39340
  -5051715.05400  25369506.89600                  -3567988.77040  25369510.23640
  -8589906.89600  23147828.83400                  -6403646.90340  23147831.75240
  -8302677.76400  22727766.67000                  -6214142.80640  22727768.81440
 96  9 11  3  9  0.0060000  0  6  4 14 18 19 22 29
   1936488.69800  26843363.21700                   1350995.57240  26843366.99040
   7369390.69600  22982326.95900                   5741893.20140  22982330.51040
 -10520701.21500  23712057.22500                  -7960681.58740  23712060.37740
  -5099098.62500  25360489.99800                  -3604910.99440  25360494.45140
  -8528280.81400  23159555.74800                  -6355626.57040  23159558.83040
  -8273668.71000  22733286.88900                  -6191538.34940  22733289.04540
 96  9 11  3  9 30.0070000  0  6  4 14 18 19 22 29
   1980109.50600  26851664.08900                   1384985.82340  26851669.31540
   7459336.26700  22999442.93300                   5811980.65840  22999446.53040
 -10560911.97800  23704405.06500                  -7992014.62540  23704407.85440
  -5146279.98100  25351511.33100                  -3641675.63340  25351515.43340
  -8466058.21000  23171396.39400                  -6307141.41940  23171399.28840
  -8244387.94600  22738858.83100                  -6168722.16240  22738860.99940
 96  9 11  3 10  0.0070000  0  6  4 14 18 19 22 29
   2024164.26100  26860046.46400                   1419314.16440  26860050.84740
   7549782.53800  23016654.39400                   5882458.26840  23016657.89740
 -10600963.15500  23696783.72200                  -8023223.31540  23696786.81540
  -5193260.99300  25342571.09700                  -3678284.18140  25342574.33140
  -8403233.30900  23183351.60400                  -6258186.94540  23183354.46440
  -8214829.00400  22744483.61200                  -6145689.21940  22744485.93340
 96  9 11  3 10 30.0070000  0  6  4 14 18 19 22 29
   2068659.00500  26868514.33100                   1453985.40340  26868516.35840
   7640722.67500  23033959.72200                   5953320.70640  23033963.19040
 -10640857.76200  23689191.93300                  -8054310.00740  23689194.80440
  -5240037.42100  25333670.54200                  -3714733.30040  25333674.66740
  -8339800.07500  23195422.50300                  -6208758.45440  23195425.38640
  -8184965.28600  22750166.65100                  -6122418.78740  22750168.94840
 96  9 11  3 11  0.0070000  0  6  4 14 18 19 22 29
   2113590.31600  26877064.01100                   1488996.74740  26877067.94840
   7732151.83300  23051358.08900                   6024564.19740  23051361.52240
 -10680609.90600  23681627.30000                  -8085285.68740  23681630.59340
  -5286620.57400  25324805.10400                  -3751031.80340  25324809.94440
  -8275785.69800  23207603.96400                  -6158877.11040  23207606.95240
  -8154805.64800  22755905.87800                  -6098917.76140  22755908.09340
 96  9 11  3 11 30.0070000  0  6  4 14 18 19 22 29
   2158951.66800  26885697.26100                   1524343.30140  26885703.84740
   7824062.29000  23068847.95600                   6096182.72640  23068851.57740
 -10720214.08000  23674090.89400                  -8116146.07640  23674093.96440
  -5333017.84300  25315975.87000                  -3787185.51040  25315980.14740
  -8211195.64800  23219895.06500                  -6108547.19640  23219898.01940
  -8124341.22900  22761703.17500                  -6075179.24940  22761705.30840
 96  9 11  3 12  0.0070000  0  6  4 14 18 19 22 29
   2204757.87400  26894412.73700                   1560036.38440  26894416.86240
   7916435.79400  23086426.15100                   6168162.08240  23086429.85440
 -10759660.17900  23666584.78400                  -8146883.28040  23666587.78440
  -5379246.95400  25307178.84700                  -3823208.14040  25307182.19840
  -8146026.37600  23232296.27600                  -6057765.94640  23232299.31140
  -8093570.06200  22767558.52600                  -6051201.71540  22767560.72940
 96  9 11  3 12 30.0070000  0  6  4 14 18 19 22 29
   2251020.32900  26903216.22900                   1596084.99640  26903219.37040
   8009259.28400  23104089.91700                   6240492.08340  23104093.58540
 -10798932.42800  23659111.47200                  -8177485.02540  23659114.51940
  -5425305.58100  25298414.64400                  -3859097.95740  25298418.58140
  -8080291.36500  23244805.19000                  -6006543.85440  23244808.19040
  -8062511.48800  22773468.56500                  -6027000.22840  22773470.85140
 96  9 11  3 13  0.0070000  0  6  4 14 18 19 22 29
   2297765.38400  26912112.42500                   1632509.75140  26912119.03440
   8102543.09800  23121840.97200                   6313180.78240  23121844.72240
 -10838007.50300  23651675.58100                  -8207933.10740  23651678.76940
  -5471176.24400  25289685.56500                  -3894841.27940  25289690.71040
  -8013979.61800  23257423.85400                  -5954872.35940  23257426.74940
  -8031174.71300  22779431.88600                  -6002581.95540  22779434.25340
 96  9 11  3 13 30.0070000  0  6  4 14 18 19 22 29
   2344983.03200  26921097.16700                   1669302.70840  26921101.58540
   8196278.54300  23139678.29200                   6386221.38840  23139681.97240
 -10876882.14200  23644277.92500                  -8238225.02140  23644280.78440
  -5516843.78600  25280994.84700                  -3930426.34840  25280999.85140
  -7947087.28200  23270153.26100                  -5902748.45640  23270156.28440
  -7999568.35500  22785446.44000                  -5977953.61940  22785448.71440
 96  9 11  3 14  0.0070000  0  6  4 14 18 19 22 29
   2392670.10100  26930171.59700                   1706461.32840  26930177.06940
   8290482.81500  23157604.84700                   6459627.32240  23157608.44440
 -10915567.04900  23636916.52600                  -8268369.09140  23636919.17540
  -5562282.37600  25272348.15900                  -3965833.01140  25272352.00340
  -7879616.53200  23282992.40900                  -5850173.84640  23282995.28040
  -7967678.92300  22791514.85400                  -5953104.71340  22791517.14040
 96  9 11  3 14 30.0070000  0  6  4 14 18 19 22 29
   2440797.68500  26939330.35400                   1743963.41740  26939334.99540
   8385170.39300  23175623.40900                   6533409.84340  23175626.83140
 -10954088.67300  23629585.83900                  -8298385.93940  23629588.88640
  -5607480.80400  25263747.22200                  -4001052.52240  25263751.76940
  -7811587.91000  23295937.99500                  -5797164.52740  23295941.13640
  -7935495.20000  22797639.01900                  -5928026.48840  22797641.44440
 96  9 11  3 15  0.0070000  0  5 14 18 19 22 29
   8480347.82300  23193735.06500                   6607574.08640  23193738.62840
 -10992470.01900  23622282.26100                  -8328293.44340  23622285.35440
  -5652435.27200  25255192.70600                  -4036081.92340  25255196.71440
  -7742999.88800  23308989.80800                  -5743719.31340  23308992.91340
  -7903008.09900  22803821.32300                  -5902711.86140  22803823.53840
 96  9 11  3 15 30.0070000  0  5 14 18 19 22 29
   8576018.17100  23211940.36200                   6682122.41340  23211943.91340
 -11030722.49000  23615003.16700                  -8358100.56340  23615006.15540
  -5697162.10600  25246681.64400                  -4070933.97640  25246685.75740
  -7673864.28100  23322145.84700                  -5689847.40740  23322148.76540
  -7870207.46600  22810063.03400                  -5877152.92040  22810065.27240
 96  9 11  3 16  0.0070000  0  5 14 18 19 22 29
   8672193.42400  23230242.01900                   6757064.16440  23230245.48740
 -11068830.76600  23607751.12000                  -8387795.30540  23607753.97940
  -5741683.86300  25238209.83100                  -4105626.21040  25238213.87440
  -7604165.97600  23335408.98700                  -5635537.03840  23335412.02240
  -7837081.28900  22816366.62000                  -5851340.31440  22816368.83540
 96  9 11  3 16 30.0070000  0  5 14 18 19 22 29
   8768866.72900  23248638.33900                   6832394.01040  23248641.93640
 -11106773.70800  23600531.01100                  -8417361.21640  23600534.09340
  -5786023.63700  25229771.87000                  -4140176.66240  25229776.01940
  -7533897.57700  23348780.69800                  -5580782.43840  23348783.76940
  -7803650.62900  22822728.38600                  -5825290.45040  22822730.58940
 96  9 11  3 17  0.0070000  0  5 14 18 19 22 29
   8866015.30000  23267125.02600                   6908094.18440  23267128.61240
 -11144532.51200  23593345.62800                  -8446783.64540  23593348.44040
  -5830207.06500  25221363.65100                  -4174605.26740  25221368.22240
  -7463061.80700  23362260.03400                  -5525585.73340  23362263.02240
  -7769925.78900  22829146.05000                  -5799011.35940  22829148.34740
 96  9 11  3 17 30.0070000  0  5 14 18 19 22 29
   8963639.03200  23285702.05800                   6984164.61540  23285705.52640
 -11182082.22700  23586200.22200                  -8476043.15940  23586203.40940
  -5874242.40000  25212984.21400                  -4208918.47740  25212988.37440
  -7391658.87900  23375847.90100                  -5469947.08240  23375851.04240
  -7735901.60300  22835620.54200                  -5772499.00940  22835622.72240
 96  9 11  3 18  0.0070000  0  5 14 18 19 22 29
   9061728.27000  23304368.04200                   7060597.77240  23304371.64040
 -11219406.76000  23579097.44800                  -8505127.18640  23579100.61240
  -5918106.82700  25204637.46400                  -4243098.50340  25204641.43640
  -7319686.19400  23389543.74500                  -5413864.46540  23389547.05040
  -7701571.45900  22842153.23700                  -5745748.23940  22842155.47640
 96  9 11  3 18 30.0070000  0  5 14 18 19 22 29
   9160273.90200  23323120.51100                   7137386.57840  23323124.07340
 -11256509.03600  23572037.13600                  -8534038.02940  23572040.17140
  -5961776.58900  25196326.90900                  -4277126.84740  25196330.90540
  -7247154.62900  23403346.09700                  -5357346.36440  23403349.27240
  -7666932.12200  22848745.02600                  -5718756.54640  22848747.32340
 96  9 11  3 19  0.0070000  0  5 14 18 19 22 29
   9259278.45100  23341960.61200                   7214532.97240  23341964.28040
 -11293397.09100  23565017.71400                  -8562781.95340  23565020.79640
  -6005240.24500  25188056.24500                  -4310994.60340  25188060.14740
  -7174065.46100  23417254.30800                  -5300393.76140  23417257.29640
  -7631967.48800  22855398.56500                  -5691511.37340  22855400.69840
 96  9 11  3 19 30.0070000  0  5 14 18 19 22 29
   9358733.00500  23360886.24500                   7292030.02540  23360889.94840
 -11330087.96600  23558035.52600                  -8591372.24440  23558038.38640
  -6048483.37800  25179827.15100                  -4344690.52540  25179831.34740
  -7100427.67300  23431266.98700                  -5243013.66240  23431270.02240
  -7596698.09100  22862110.03400                  -5664028.73040  22862112.26140
 96  9 11  3 20  0.0070000  0  5 14 18 19 22 29
   9458631.97900  23379896.52600                   7369873.37640  23379900.00740
 -11366593.60800  23551088.74500                  -8619818.19140  23551091.67540
  -6091508.77200  25171639.83100                  -4378216.78540  25171643.64040
  -7026240.39700  23445384.51900                  -5185205.39040  23445387.58940
  -7561127.81400  22868878.96400                  -5636311.63240  22868881.17940
 96  9 11  3 20 30.0070000  0  5 14 18 19 22 29
   9558980.41000  23398991.93300                   7448066.95240  23398995.53040
 -11402923.61900  23544175.47900                  -8648127.27440  23544178.36240
  -6134340.10300  25163489.05000                  -4411591.81140  25163492.36640
  -6951504.48300  23459606.15100                  -5126969.61440  23459609.15140
  -7525269.26600  22875702.56500                  -5608369.90340  22875704.81540
 96  9 11  3 21  0.0070000  0  5 14 18 19 22 29
   9659779.52100  23418173.58100                   7526611.71240  23418177.28440
 -11439065.41700  23537297.92500                  -8676289.69740  23537301.03040
  -6176973.90000  25155375.97900                  -4444812.91840  25155379.85840
  -6876216.50600  23473933.33100                  -5068303.65140  23473936.46040
  -7489119.14800  22882581.53400                  -5580200.98540  22882583.79640
 96  9 11  3 21 30.0070000  0  5 14 18 19 22 29
   9761011.98700  23437437.44800                   7605494.15740  23437441.01140
 -11475019.48000  23530456.01900                  -8704305.84040  23530458.84340
  -6219419.15100  25147299.16700                  -4477887.11140  25147303.01140
  -6800385.89400  23488363.17500                  -5009214.86340  23488366.01140
  -7452679.45200  22889515.86200                  -5551806.42340  22889518.03040
 96  9 11  3 22  0.0070000  0  5 14 18 19 22 29
   9862690.45500  23456786.15100                   7684724.12640  23456789.66740
 -11510776.12000  23523651.70600                  -8732168.13440  23523654.72940
  -6261676.62700  25139257.89400                  -4510814.97440  25139261.46840
  -6724007.97900  23502897.33900                  -4949699.59940  23502900.31540
  -7415932.38800  22896508.62000                  -5523172.33740  22896510.75340
 96  9 11  3 22 30.0070000  0  6  3 14 18 19 22 29
    -34239.47410  26984167.71400
   9964819.38900  23476220.49500                   7764305.09940  23476224.06940
 -11546322.02000  23516887.58900                  -8759866.21440  23516890.33140
  -6303739.04400  25131253.68300                  -4543590.87040  25131258.07740
  -6647074.10700  23517537.52600                  -4889751.12140  23517540.33940
  -7378866.14300  22903562.13600                  -5494289.54140  22903564.33940
 96  9 11  3 23  0.0070000  0  6  3 14 18 19 22 29
    -78826.38800  26975683.41700
  10067394.24700  23495740.05000                   7844233.55240  23495743.70640
 -11581651.01100  23510164.76100                  -8787395.28440  23510167.80840
  -6345589.47400  25123289.58900                  -4576201.58340  25123292.07340
  -6569570.71900  23532285.85400                  -4829358.86840  23532288.78440
  -7341471.01900  22910678.22200                  -5465150.48340  22910680.55440
 96  9 11  3 23 30.0070000  0  6  3 14 18 19 22 29
   -123335.30900  26967212.54200                    -28896.74550  26967218.61240
  10170422.27900  23515345.58900                   7924515.13140  23515349.09340
 -11616772.93200  23503481.07300                  -8814762.99340  23503483.88640
  -6387230.67300  25115365.33900                  -4608649.22840  25115369.27640
  -6491494.83200  23547143.24500                  -4768520.51240  23547146.18640
  -7303757.35400  22917854.88600                  -5435763.21340  22917857.15940
 96  9 11  3 24  0.0070000  0  6  3 14 18 19 22 29
   -167763.75800  26958759.20600                    -63516.30740  26958760.58940
  10273909.49400  23535038.47900                   8005154.51440  23535041.92540
 -11651686.58100  23496837.19000                  -8841968.42540  23496840.22640
  -6428663.91700  25107481.17500                  -4640934.82440  25107484.46840
  -6412847.16800  23562109.31500                  -4707236.61740  23562112.42140
  -7265737.60200  22925089.75300                  -5406137.42740  22925091.93340
 96  9 11  3 24 30.0070000  0  6  3 14 18 19 22 29
   -212110.86600  26950320.27600                    -98072.46540  26950325.28040
  10377850.62300  23554817.90100                   8086147.60140  23554821.61640
 -11686391.55400  23490233.26100                  -8869011.24940  23490236.22640
  -6469890.07500  25099635.52600                  -4673059.08340  25099638.85440
  -6333628.98600  23577184.02600                  -4645508.15440  23577187.07340
  -7227417.72600  22932381.79200                  -5376277.78340  22932384.12440
 96  9 11  3 25  0.0070000  0  6  3 14 18 19 22 29
   -256377.71700  26941895.22900                   -132566.05840  26941899.62440
  10482236.44400  23574681.90900                   8167487.21440  23574685.76540
 -11720892.42600  23483667.86200                  -8895895.02040  23483670.67540
  -6510900.02300  25091831.95600                  -4705014.86640  25091835.44840
  -6253860.45100  23592363.55800                  -4583350.85340  23592366.32340
  -7188805.71700  22939729.37800                  -5346190.50840  22939731.64040
 96  9 11  3 25 30.0070000  0  6  3 14 18 19 22 29
   -300555.48700  26933489.53400                   -166990.28640  26933493.92940
  10587077.01300  23594632.41700                   8249181.16240  23594635.92140
 -11755183.06700  23477142.33100                  -8922614.98140  23477145.30840
  -6551699.13300  25084068.30000                  -4736806.34040  25084072.37840
  -6173555.44500  23607645.13600                  -4520775.52740  23607648.22940
  -7149880.89000  22947136.31500                  -5315859.48140  22947138.60140
 96  9 11  3 26  0.0070000  0  6  3 14 18 19 22 29
   -344646.02800  26925099.36200                   -201346.54940  26925100.13640
  10692350.28100  23614665.14400                   8331212.28140  23614668.50740
 -11789271.50700  23470655.63600                  -8949177.38340  23470658.44840
  -6592305.33400  25076341.46400                  -4768447.49840  25076345.85840
  -6092739.13400  23623023.94000                  -4457801.76840  23623026.98740
  -7110639.88700  22954603.82300                  -5285282.07440  22954606.19040
 96  9 11  3 26 30.0070000  0  6  3 14 18 19 22 29
   -388640.77600  26916727.55000                   -235628.15840  26916730.23340
  10798045.54900  23634778.28400                   8413572.21640  23634781.70640
 -11823160.02500  23464206.87000                  -8975584.00540  23464209.89440
  -6632713.30700  25068651.67500                  -4799934.20540  25068655.24940
  -6011414.87300  23638499.35400                  -4394432.21540  23638502.05040
  -7071058.77100  22962135.95600                  -5254439.65540  22962138.19440
 96  9 11  3 27  0.0070000  0  6  3 14 18 19 22 29
   -432528.46800  26908375.12000                   -269826.33240  26908378.98740
  10904158.58500  23654971.02600                   8496257.68840  23654974.67140
 -11856852.30000  23457795.47200                  -9001837.71040  23457798.50740
  -6672923.62200  25060999.83900                  -4831266.87940  25061003.75340
  -5929594.86200  23654069.44800                  -4330676.35340  23654072.65940
  -7031128.74500  22969734.28400                  -5223325.34440  22969736.47640
 96  9 11  3 27 30.0070000  0  6  3 14 18 19 22 29
   -476291.97900  26900047.83100                   -303927.75040  26900052.24940
  11010703.76300  23675245.90900                   8579279.89140  23675249.50740
 -11890335.60300  23451424.09700                  -9027928.58440  23451426.96840
  -6712927.65600  25053387.03400                  -4862438.83640  25053391.42940
  -5847275.24100  23669734.19800                  -4266531.18740  23669737.19840
  -6990842.17600  22977400.57300                  -5191933.22340  22977402.83540
 96  9 11  3 28  0.0070000  0  6  3 14 18 19 22 29
   -519935.59600  26891742.47200                   -337935.70140  26891744.22940
  11117664.53000  23695599.64400                   8662625.93640  23695603.06540
 -11923607.00300  23445092.49500                  -9053854.34540  23445095.36640
  -6752710.42600  25045817.06500                  -4893438.35240  25045822.09340
  -5764452.14000  23685494.83900                  -4201993.70040  23685497.85140
  -6950215.31200  22985131.68300                  -5160275.93640  22985134.05040
 96  9 11  3 28 30.0070000  0  6  3 14 18 19 22 29
   -563462.30600  26883460.16700                   -371852.67040  26883461.79640
  11225035.00300  23716031.78400                   8746291.21540  23716035.05440
 -11956660.41800  23438802.62000                  -9079610.24140  23438805.58540
  -6792277.91900  25038287.26100                  -4924270.14440  25038291.49140
  -5681129.44100  23701350.70600                  -4137066.91640  23701353.67140
  -6909272.33700  22992922.84700                  -5128372.31840  22992925.12040
 96  9 11  3 29  0.0070000  0  6  3 14 18 19 22 29
   -606856.44200  26875202.97200                   -405666.28740  26875207.21440
  11332828.07600  23736544.12800                   8830285.80140  23736547.86640
 -11989477.36800  23432557.81500                  -9105181.88540  23432560.68640
  -6831622.95500  25030800.49500                  -4954928.59040  25030804.02240
  -5597302.76300  23717302.31500                  -4071747.41740  23717305.43340
  -6868021.68300  23000772.59700                  -5096228.96540  23000774.90540
 96  9 11  3 29 30.0070000  0  6  3 14 18 19 22 29
   -650131.91000  26866967.03400                   -439387.35540  26866971.10140
  11441019.43400  23757132.26100                   8914590.72440  23757135.91740
 -12022055.28800  23426358.32300                  -9130567.26340  23426361.28840
  -6870757.37600  25023353.19800                  -4985422.91740  25023357.92140
  -5512969.01800  23733350.39400                  -4006032.80640  23733353.35840
  -6826475.01800  23008678.65100                  -5063854.94440  23008680.83140
 96  9 11  3 30  0.0070000  0  6  3 14 18 19 22 29
   -693289.30700  26858753.99500                   -473016.48840  26858759.04640
  11549595.57300  23777793.55800                   8999195.48840  23777797.21440
 -12054394.32100  23420204.46400                  -9155766.49640  23420207.52240
  -6909706.46700  25015941.40900                  -5015772.86140  25015945.39440
  -5428121.33300  23749496.27600                  -3939917.72240  23749499.24140
  -6784639.59700  23016639.71400                  -5031255.92240  23016641.98740
 96  9 11  3 30 30.0070000  0  6  3 14 18 19 22 29
   -736315.98800  26850566.66700                   -506543.70540  26850569.97240
  11658570.96500  23798531.01900                   9084111.36640  23798534.66340
 -12086498.77100  23414095.36200                  -9180782.94340  23414098.17540
  -6948476.95400  25008563.69800                  -5045983.61640  25008567.94040
  -5342755.90400  23765740.92500                  -3873399.20340  23765743.93640
  -6742501.34100  23024658.22900                  -4998420.92640  23024660.51540
 96  9 11  3 31  0.0070000  0  6  3 14 18 19 22 29
   -779224.09200  26842401.72900                   -539978.57840  26842405.50340
  11767926.79800  23819340.64400                   9169323.68040  23819344.20640
 -12118385.59200  23408027.49500                  -9205629.80440  23408030.42540
  -6987065.10300  25001220.48700                  -5076052.26840  25001224.95240
  -5256875.27600  23782083.47200                  -3806479.23040  23782086.53040
  -6700049.84200  23032736.58100                  -4965341.83640  23032738.83140
 96  9 11  3 31 30.0070000  0  6  3 14 18 19 22 29
   -822010.00400  26834259.27600                   -573318.22240  26834265.55840
  11877677.19500  23840225.43300                   9254843.44340  23840228.90140
 -12150039.56600  23402003.80000                  -9230295.23540  23402006.64740
  -7025455.15800  24993914.98700                  -5105966.56740  24993918.99540
  -5170470.79800  23798525.53400                  -3739151.06040  23798528.51140
  -6657268.99600  23040877.63600                  -4932006.11940  23040879.92140
 96  9 11  3 32  0.0070000  0  6  3 14 18 19 22 29
   -864671.26400  26826141.24500                   -606560.74440  26826145.05440
  11987829.98300  23861186.94800                   9340676.77440  23861190.31140
 -12181472.52200  23396022.19000                  -9254788.44040  23396024.88640
  -7063644.03800  24986647.70600                  -5135724.10940  24986651.84340
  -5083547.68300  23815066.42500                  -3671418.75840  23815069.44840
  -6614161.47500  23049080.62800                  -4898415.84940  23049082.87840
 96  9 11  3 32 30.0070000  0  6  3 14 18 19 22 29
   -907209.86500  26818045.80000                   -639707.68540  26818051.69440
  12098382.09300  23882224.20600                   9426821.26740  23882227.94440
 -12212686.52700  23390082.24500                  -9279111.03840  23390085.06940
  -7101619.29100  24979421.21400                  -5165315.20040  24979425.19840
  -4996114.66200  23831704.54200                  -3603289.12840  23831707.49540
  -6570715.73000  23057348.06500                  -4864562.02940  23057350.38640
 96  9 11  3 33  0.0070000  0  6  3 14 18 19 22 29
   -949623.49600  26809975.76100                   -672757.24140  26809979.82740
  12209343.16100  23903339.61200                   9513284.41240  23903343.36240
 -12243649.85300  23384189.91700                  -9303238.30140  23384192.89440
  -7139367.20500  24972238.46400                  -5194729.11440  24972241.80440
  -4908168.25700  23848440.16700                  -3534759.45940  23848443.17940
  -6526927.51900  23065680.65900                  -4830441.35940  23065682.89740
 96  9 11  3 33 30.0070000  0  6  3 14 18 19 22 29
   -991909.20900  26801929.35400                   -705707.16440  26801931.17140
  12320721.05700  23924533.97900                   9600072.36640  23924537.57740
 -12274363.74300  23378345.62800                  -9327171.19440  23378348.35840
  -7176908.35600  24965094.22900                  -5223981.93640  24965098.82340
  -4819719.57100  23865271.40900                  -3465838.40240  23865274.60840
  -6482803.85100  23074077.12800                  -4796059.28840  23074079.39040
 96  9 11  3 34  0.0070000  0  6  3 14 18 19 22 29
  -1034059.12400  26793907.58100                   -738551.18940  26793912.42140
  12432517.61100  23945808.08100                   9687186.54140  23945811.77240
 -12304836.57500  23372546.59700                  -9350916.25140  23372549.55040
  -7214253.48700  24957987.95600                  -5253082.00940  24957991.98740
  -4730765.99800  23882198.85400                  -3396523.92840  23882201.99540
  -6438334.88100  23082539.25300                  -4761408.13740  23082541.58540
 96  9 11  3 34 30.0070000  0  7  3 14 18 19 22 28 29
  -1076084.21600  26785910.38600                   -771298.00140  26785914.67540
  12544724.00100  23967160.26100                   9774620.06040  23967163.88240
 -12335067.39400  23366794.31500                  -9374472.73440  23366796.98740
  -7251418.21900  24950915.55000                  -5282041.51440  24950920.09740
  -4641337.17200  23899216.43300                  -3326839.12640  23899219.37440
       471.97610  27068625.33900                       366.96510  27068627.51500
  -6393521.34900  23091067.10400                  -4726488.50840  23091069.30840
 96  9 11  3 35  0.0070000  0  7  3 14 18 19 22 28 29
  -1117988.66400  26777936.67500                   -803950.79340  26777938.84340
  12657329.60500  23988588.47200                   9862364.65440  23988591.99940
 -12365069.15500  23361084.87800                  -9397850.72540  23361087.71440
  -7288413.40400  24943875.78400                  -5310868.89940  24943879.87440
  -4551446.39600  23916322.15900                  -3256794.36040  23916325.15940
      3560.21100  27069212.80000                      2773.39300  27069215.37400
  -6348368.42200  23099659.58900                  -4691304.39940  23099661.96840
 96  9 11  3 35 30.0070000  0  7  3 14 18 19 22 28 29
  -1159760.69300  26769988.11200                   -836500.41140  26769991.97940
  12770311.34100  24010088.30000                   9950402.34640  24010091.78040
 -12394862.15200  23355415.33100                  -9421066.04440  23355418.20240
  -7325245.32700  24936866.94000                  -5339569.08940  24936871.34740
  -4461104.01500  23933513.73700                  -3186397.69840  23933516.94840
      7087.21400  27069883.93300                      5521.72100  27069886.73300
  -6302876.42900  23108316.15900                  -4655856.10140  23108318.38640
 96  9 11  3 36  0.0070000  0  7  3 14 18 19 22 28 29
  -1201387.08600  26762064.76900                   -868936.53740  26762069.11640
  12883661.70900  24031658.22200                  10038727.28940  24031662.11240
 -12424425.97500  23349789.69000                  -9444102.79240  23349792.55040
  -7361893.93800  24929892.87800                  -5368126.41240  24929896.75740
  -4370305.07800  23950792.25300                  -3115645.27740  23950795.31140
     11064.45500  27070640.76900                      8620.87600  27070643.70600
  -6257045.39400  23117037.72200                  -4620143.60440  23117040.05440
 96  9 11  3 36 30.0070000  0  7  3 14 18 19 22 28 29
  -1242849.98100  26754176.55800                   -901245.23640  26754181.86640
  12997364.23500  24053294.94800                  10127326.63740  24053298.67540
 -12453743.55200  23344210.76900                  -9466947.65240  23344213.75740
  -7398335.79100  24922958.36200                  -5396522.64640  24922961.79640
  -4279046.16000  23968158.18300                  -3044534.43140  23968161.08940
     15495.77400  27071484.26100                     12073.86600  27071486.67500
  -6210881.56800  23125822.34700                  -4584171.79640  23125824.59740
 96  9 11  3 37  0.0070000  0  7  3 14 18 19 22 28 29
  -1284145.68400  26746317.89400                   -933423.72240  26746320.53040
  13111403.48300  24074995.87800                  10216188.35740  24074999.41740
 -12482825.01800  23338676.56500                  -9489608.52140  23338679.61240
  -7434575.27000  24916061.78400                  -5424761.17340  24916065.32340
  -4187319.29600  23985613.18300                  -2973058.94540  23985615.97240
     20368.66700  27072411.87800                     15870.93700  27072413.85400
  -6164410.06000  23134665.54200                  -4547960.24140  23134667.62840
 96  9 11  3 37 30.0070000  0  7  3 14 18 19 22 28 29
  -1325253.82000  26738495.01100                   -965456.06040  26738498.37440
  13225791.60800  24096763.55000                  10305321.95040  24096767.04240
 -12511647.53500  23333191.97900                  -9512067.62240  23333194.97940
  -7470598.74600  24909206.80800                  -5452831.39240  24909210.76940
  -4095107.97300  24003160.45600                  -2901205.96940  24003163.43340
     25689.35800  27073424.58100                     20016.94300  27073426.31100
  -6117631.31000  23143567.17500                  -4511509.26440  23143569.34340
 96  9 11  3 38  0.0070000  0  7  3 14 18 19 22 28 29
  -1366157.51900  26730711.20600                   -997329.03440  26730714.44040
  13340549.32700  24118600.90100                  10394743.52740  24118604.51140
 -12540198.51300  23327758.94000                  -9534315.13540  23327761.94040
  -7506388.37300  24902396.31500                  -5480719.38540  24902400.25340
  -4002402.57700  24020801.56500                  -2828967.99940  24020804.61240
     31465.41600  27074523.31500                     24517.74100  27074525.74500
  -6070526.31000  23152530.98700                  -4474804.06940  23152533.28440
 96  9 11  3 38 30.0070000  0  7  3 14 18 19 22 28 29
  -1406868.93300  26722963.43300                  -1029052.17640  26722968.50740
  13455664.55500  24140506.55800                  10484443.68240  24140510.12040
 -12568498.32800  23322373.44000                  -9556366.93540  23322376.38240
  -7541969.45300  24895625.47900                  -5508444.87240  24895629.60440
  -3909211.67300  24038535.37800                  -2756351.70740  24038538.35440
     37685.46900  27075707.15100                     29364.53900  27075709.39000
  -6023100.44700  23161555.84700                  -4437848.84540  23161558.21440
 96  9 11  3 39  0.0080000  0  7  3 14 18 19 22 28 29
  -1447398.61700  26715252.01600                  -1060633.68840  26715255.32040
  13571156.53800  24162484.26600                  10574437.41640  24162487.71140
 -12596545.45900  23317036.36700                  -9578221.83340  23317039.13340
  -7577353.13900  24888891.99200                  -5536016.57040  24888895.93040
  -3815533.08300  24056361.78900                  -2683355.40540  24056364.89440
     44357.04700  27076976.35900                     34563.17600  27076978.97700
  -5975337.92600  23170644.86700                  -4400631.30340  23170647.28140
 96  9 11  3 39 30.0080000  0  7  3 14 18 19 22 28 29
  -1487745.89700  26707573.93000                  -1092073.14440  26707576.85940
  13687015.00000  24184531.21100                  10664716.71840  24184535.01940
 -12624336.41100  23311747.90600                  -9599877.11340  23311750.78940
  -7612536.41100  24882196.97700                  -5563432.07340  24882200.58640
  -3721388.03500  24074276.85900                  -2609995.62140  24074279.75440
     51481.70200  27078331.46900                     40114.85500  27078334.71100
  -5927233.61600  23179798.53100                  -4363147.42740  23179800.78140
 96  9 11  3 40  0.0080000  0  7  3 14 18 19 22 28 29
  -1527926.87500  26699926.79700                  -1123382.99840  26699931.08640
  13803238.36400  24206647.89800                  10755280.37040  24206651.74240
 -12651881.06800  23306506.28900                  -9621340.48440  23306509.16040
  -7647523.81400  24875539.10200                  -5590694.96940  24875543.33240
  -3626778.04200  24092280.74200                  -2536273.54740  24092283.56640
     59061.74200  27079773.59400                     46021.40500  27079777.36300
  -5878783.26200  23189018.45300                  -4325393.91040  23189020.65640
 96  9 11  3 40 30.0080000  0  7  3 14 18 19 22 28 29
  -1567958.15400  26692310.10200                  -1154576.13040  26692314.67240
  13919828.23700  24228834.14800                  10846129.60940  24228837.79340
 -12679180.46700  23301311.42200                  -9642612.73640  23301314.09440
  -7682323.46800  24868916.97700                  -5617811.55540  24868920.96140
  -3531704.63300  24110372.60900                  -2462190.37040  24110375.43440
     67096.21000  27081302.18700                     52282.07000  27081306.56600
  -5830002.30800  23198301.18700                  -4287382.76940  23198303.44940
 96  9 11  3 41  0.0080000  0  7  3 14 18 19 22 28 29
  -1607830.82100  26684721.78900                  -1185645.77440  26684726.67640
  14036792.46000  24251091.68700                  10937270.54440  24251095.59040
 -12706227.95000  23296164.43000                  -9663688.69140  23296167.20740
  -7716924.48300  24862332.78100                  -5644773.36340  24862336.67240
  -3436178.11600  24128550.51600                  -2387754.12440  24128553.41040
     75589.32600  27082918.74200                     58900.11500  27082922.51200
  -5780889.48300  23207647.14100                  -4249113.03140  23207649.37940
 96  9 11  3 41 30.0080000  0  7  3 14 18 19 22 28 29
  -1647536.61200  26677166.79700                  -1216585.31440  26677170.62940
  14154111.39900  24273416.96900                  11028687.88540  24273420.68440
 -12733022.50900  23291065.62500                  -9684567.55540  23291068.43740
  -7751329.05400  24855785.38300                  -5671582.09240  24855789.50840
  -3340195.83100  24146815.35200                  -2312962.73440  24146817.97740
     84540.22400  27084622.43700                     65874.85000  27084626.16400
  -5731443.95300  23217056.23400                  -4210584.04740  23217058.40240
 96  9 11  3 42  0.0080000  0  7  3 14 18 19 22 28 29
  -1687081.00200  26669642.33600                  -1247399.14640  26669647.75040
  14271767.54000  24295806.08600                  11120367.99240  24295809.73040
 -12759572.13400  23286013.23400                  -9705255.56740  23286016.14140
  -7785546.93600  24849274.19500                  -5698245.36240  24849278.26240
  -3243755.84300  24165167.21900                  -2237814.69540  24165170.24240
     93945.48800  27086412.20300                     73203.64900  27086415.65200
  -5681661.17000  23226529.63300                  -4171792.26440  23226531.88340
 96  9 11  3 42 30.0080000  0  7  3 14 18 19 22 28 29
  -1726443.72100  26662151.05500                  -1278071.31840  26662155.68440
  14389756.50900  24318258.51600                  11212307.43940  24318262.20740
 -12785851.30700  23281012.69500                  -9725732.83740  23281015.54340
  -7819574.68300  24842798.91400                  -5724760.46840  24842802.48840
  -3146865.75800  24183604.78100                  -2162315.92140  24183607.60540
    103811.47700  27088289.75800                     80891.44800  27088292.61700
  -5631540.34300  23236067.25000                  -4132737.07840  23236069.55940
 96  9 11  3 43  0.0080000  0  7  3 14 18 19 22 28 29
  -1765611.24900  26654697.75800                  -1308591.48140  26654700.84040
  14508056.47200  24340770.33600                  11304489.21940  24340773.82840
 -12811851.22600  23276065.06200                  -9745992.50640  23276067.85240
  -7853415.29600  24836359.19500                  -5751129.75040  24836362.94540
  -3049530.38700  24202127.26600                  -2086470.18640  24202129.96140
    114138.63900  27090255.63300                     88938.59800  27090257.90200
  -5581072.35900  23245671.00000                  -4093411.38040  23245673.14440
 96  9 11  3 43 30.0080000  0  7  3 14 18 19 22 28 29
  -1804582.79000  26647281.40600                  -1338958.90840  26647286.45740
  14626659.43600  24363339.65600                  11396907.08840  24363343.10240
 -12837571.51700  23271170.66400                  -9766034.28140  23271173.41840
  -7887063.44400  24829956.16400                  -5777349.06440  24829959.87940
  -2951753.14000  24220733.49200                  -2010280.12040  24220736.63340
    124927.91500  27092308.86700                     97345.80700  27092311.51900
  -5530249.80500  23255342.18000                  -4053809.39040  23255344.38340
 96  9 11  3 44  0.0080000  0  7  3 14 18 19 22 28 29
  -1843345.27700  26639906.54700                  -1369163.44840  26639910.21540
  14745584.41500  24385970.50000                  11489575.88940  24385974.49640
 -12863005.04200  23266330.93000                  -9785852.60040  23266333.78940
  -7920510.01200  24823591.35200                  -5803411.32340  24823595.07840
  -2853541.91000  24239422.82000                  -1933751.89440  24239425.96140
    136186.85500  27094450.98400                    106119.03800  27094454.14100
  -5479084.60600  23265078.55500                  -4013940.40640  23265080.79340
 96  9 11  3 44 30.0080000  0  7  3 14 18 19 22 28 29
  -1881891.79100  26632570.69500                  -1399199.65540  26632574.31640
  14864841.17700  24408664.06200                  11582503.21440  24408667.53140
 -12888151.08800  23261545.72700                  -9805446.91140  23261548.53940
  -7953753.60200  24817265.09400                  -5829315.38640  24817268.51640
  -2754907.60800  24258192.10900                  -1856893.99340  24258195.46140
    147913.75900  27096682.28100                    115256.88300  27096684.89100
  -5427588.33300  23274877.99200                  -3973813.43640  23274880.11340
 96  9 11  3 45  0.0080000  0  7  3 14 18 19 22 28 29
  -1920233.01800  26625273.71900                  -1429075.92240  26625277.09440
  14984426.97300  24431421.00800                  11675686.94140  24431424.69940
 -12913038.13800  23256809.58600                  -9824839.41740  23256812.35240
  -7986802.01500  24810976.51600                  -5855067.37540  24810980.32440
  -2655842.26000  24277043.55500                  -1779700.22340  24277046.25040
    160104.23400  27099002.08600                    124755.97200  27099004.26200
  -5375756.58200  23284741.19500                  -3933425.06440  23284743.37540
 96  9 11  3 45 30.0080000  0  7  3 14 18 19 22 28 29
  -1958361.52200  26618017.71100                  -1458786.41240  26618020.48840
  15104359.26800  24454242.93700                  11769140.66340  24454246.68740
 -12937674.74100  23252121.43000                  -9844036.75740  23252124.24240
  -8019645.89600  24804726.31200                  -5880659.98040  24804729.82840
  -2556334.79000  24295979.27300                  -1702161.93240  24295982.33240
    172770.12700  27101412.70300                    134625.48900  27101413.92200
  -5323582.30400  23294669.71100                  -3892769.78640  23294671.79740
 96  9 11  3 46  0.0080000  0  7  3 14 18 19 22 28 29
  -1996277.43100  26610803.80500                  -1488331.28040  26610806.26640
  15224635.75900  24477130.71900                  11862862.58240  24477134.58640
 -12962060.58200  23247481.06200                  -9863038.69740  23247484.01640
  -8052295.64600  24798513.26600                  -5906101.31340  24798516.86340
  -2456382.17800  24314999.76600                  -1624276.78340  24315002.54340
    185909.65300  27103912.82800                    144864.07200  27103914.28100
  -5271074.58300  23304661.50000                  -3851854.68040  23304663.68040
 96  9 11  3 46 30.0080000  0  7  3 14 18 19 22 28 29
  -2033992.23200  26603626.16400                  -1517719.43240  26603629.82040
  15345250.94500  24500082.94500                  11956848.41940  24500086.68440
 -12986197.69800  23242888.04700                  -9881846.83340  23242890.87140
  -8084752.82800  24792336.77300                  -5931392.58640  24792340.10240
  -2355989.12800  24334103.79700                  -1546048.42640  24334106.86740
    199522.11100  27106502.69500                    155471.19700  27106504.64400
  -5218219.74700  23314719.57000                  -3810669.09840  23314721.76240
 96  9 11  3 47  0.0080000  0  7  3 14 18 19 22 28 29
  -2071505.18000  26596487.48400                  -1546950.23940  26596492.78140
  15466200.49800  24523099.14100                  12051094.80840  24523102.87940
 -13010078.91600  23238343.60200                  -9900455.56840  23238346.36740
  -8117016.04100  24786197.35900                  -5956532.73940  24786201.09840
  -2255164.29400  24353289.96900                  -1467483.63140  24353293.02740
    213610.90700  27109183.53100                    166449.49200  27109186.33200
  -5165009.91800  23324844.98400                  -3769206.88840  23324847.22340
 96  9 11  3 47 30.0080000  0  7  3 14 18 19 22 28 29
  -2108811.80800  26589388.41400                  -1576020.34040  26589391.91840
  15587475.95600  24546177.10200                  12145595.15840  24546181.07440
 -13033686.33900  23233851.01600                  -9918850.95440  23233853.91040
  -8149082.39100  24780095.60200                  -5981519.47240  24780098.78940
  -2153930.45500  24372554.07800                  -1388600.12740  24372556.82040
    228175.07100  27111955.40600                    177798.19800  27111957.69100
  -5111453.54400  23335036.40600                  -3727474.65040  23335038.80940
 96  9 11  3 48  0.0080000  0  7  3 14 18 19 22 28 29
  -2145903.33500  26582330.40600                  -1604922.82140  26582334.08640
  15709080.78400  24569317.71100                  12240352.14940  24569321.78940
 -13056985.34500  23229417.45300                  -9937006.01340  23229420.30140
  -8180949.46600  24774031.48400                  -6006350.93140  24774035.14140
  -2052297.61800  24391894.34400                  -1309405.70840  24391897.16840
    243218.68500  27114817.75800                    189520.50800  27114820.42200
  -5057547.58400  23345294.43000                  -3685470.00440  23345296.69140
 96  9 11  3 48 30.0080000  0  7  3 14 18 19 22 28 29
  -2182777.98900  26575314.02300                  -1633656.29440  26575316.76640
  15831007.13600  24592519.32800                  12335359.68240  24592522.98440
 -13079979.15200  23225042.00000                  -9954923.26040  23225044.81240
  -8212613.23500  24768005.71900                  -6031023.96040  24768009.63340
  -1950277.21500  24411307.87500                  -1229909.29940  24411310.88740
    258741.76200  27117772.14800                    201616.42800  27117773.84400
  -5003287.98500  23355619.50800                  -3643189.80640  23355621.69940
 96  9 11  3 49  0.0080000  0  7  3 14 18 19 22 28 29
  -2219420.22000  26568340.14800                  -1662208.69440  26568342.96140
  15953246.07200  24615780.93000                  12430610.79840  24615784.78540
 -13102666.71100  23220724.50800                  -9972601.86640  23220727.32040
  -8244081.48400  24762017.54700                  -6055544.66740  24762021.13340
  -1847869.29500  24430795.58600                  -1150110.92040  24430798.45740
    274746.24800  27120817.41400                    214087.44100  27120819.43400
  -4948677.09600  23366011.73400                  -3600635.86740  23366014.17240
 96  9 11  3 49 30.0080000  0  7  3 14 18 19 22 28 29
  -2255830.26300  26561412.10900                  -1690580.12640  26561416.56240
  16075784.60900  24639098.93700                  12526095.36440  24639102.54740
 -13125052.05800  23216464.78100                  -9990044.98540  23216467.58240
  -8275366.65500  24756064.65600                  -6079922.70240  24756068.50040
  -1745067.96100  24450358.32000                  -1070005.98440  24450361.55540
    291229.08200  27123954.03900                    226931.20600  27123956.47300
  -4893723.66200  23376469.05500                  -3557815.01740  23376471.44540
 96  9 11  3 50  0.0080000  0  7  3 14 18 19 22 28 29
  -2292005.97100  26554528.22700                  -1718768.96440  26554532.43440
  16198626.24900  24662474.93700                  12621816.11240  24662478.65240
 -13147156.44300  23212258.43700                 -10007269.17240  23212261.44940
  -8306483.52600  24750143.04700                  -6104169.60640  24750146.51640
  -1641870.96200  24469995.82800                   -989592.73840  24469998.86340
    308188.95200  27127181.80500                    240146.69300  27127183.99200
  -4838424.06200  23386992.33600                  -3514724.42340  23386994.71540
 96  9 11  3 50 30.0080000  0  7  3 14 18 19 22 28 29
  -2327945.18700  26547689.71900                  -1746773.53540  26547693.80940
  16321762.92200  24685907.30500                  12717766.76040  24685910.84440
 -13169001.21700  23208101.41400                 -10024291.06840  23208104.18040
  -8337422.45500  24744255.44500                  -6128277.82340  24744258.78540
  -1538264.22800  24489711.68700                   -908860.22440  24489714.87540
    325632.29900  27130500.81200                    253738.93700  27130503.59800
  -4782766.89600  23397583.52300                  -3471355.20640  23397585.73840
 96  9 11  3 51  0.0080000  0  7  3 14 18 19 22 28 29
  -2363641.24300  26540895.89100                  -1774588.61840  26540899.48840
  16445175.34900  24709392.18000                  12813932.27040  24709396.37540
 -13190571.72700  23203996.75800                 -10041099.24840  23203999.53540
  -8368186.33700  24738401.31200                  -6152249.65440  24738405.21540
  -1434238.14700  24509506.91400                   -827800.93640  24509510.20740
    343559.44900  27133912.37500                    267708.16100  27133915.51900
  -4726753.82500  23408242.21900                  -3427708.66540  23408244.34040
 96  9 11  3 51 30.0080000  0  7  3 14 18 19 22 28 29
  -2399089.00500  26534151.02300                  -1802210.26640  26534154.00040
  16568855.23100  24732927.53100                  12910306.19640  24732931.36340
 -13211865.96100  23199944.74200                 -10057692.15340  23199947.47340
  -8398763.74600  24732582.35200                  -6176076.18440  24732586.17240
  -1329787.16400  24529383.26600                   -746410.55940  24529386.51240
    361972.92000  27137416.07800                    282056.35800  27137419.46900
  -4670380.79200  23418969.96900                  -3383781.62640  23418972.21940
 96  9 11  3 52  0.0080000  0  7  3 14 18 19 22 28 29
  -2434293.73200  26527451.16400                  -1829642.49840  26527454.63340
  16692798.72700  24756513.17200                  13006885.53740  24756516.55940
 -13232877.53700  23195946.34400                 -10074064.79840  23195949.08640
  -8429135.51300  24726802.82000                  -6199742.48040  24726806.52340
  -1224916.09000  24549339.53100                   -664692.84440  24549342.37940
    380873.60500  27141012.96900                    296784.18000  27141016.28900
  -4613650.67300  23429765.25000                  -3339576.35340  23429767.55940
 96  9 11  3 52 30.0080000  0  7  3 14 18 19 22 28 29
  -2469262.61700  26520797.45300                  -1856890.95140  26520800.85240
  16816978.12700  24780143.62500                  13103648.69540  24780146.95340
 -13253589.55000  23192004.90600                 -10090204.02240  23192007.73040
  -8459293.21600  24721064.14100                  -6223241.96740  24721067.65640
  -1119630.47800  24569374.97700                   -582652.10940  24569378.23440
    400254.26200  27144700.37500                    311886.00800  27144704.23000
  -4556585.08900  23440624.49200                  -3295109.66940  23440626.64840
 96  9 11  3 53  0.0080000  0  7  3 14 18 19 22 28 29
  -2503973.29000  26514192.00800                  -1883938.24540  26514195.54740
  16941416.16400  24803823.43700                  13200613.40040  24803827.31640
 -13273970.74500  23188126.42200                 -10106085.47040  23188129.11740
  -8489228.09700  24715367.68000                  -6246567.85340  24715371.27740
  -1013935.35800  24589488.21100                   -500292.27840  24589490.78940
    420125.93700  27148482.51600                    327370.47000  27148485.51900
  -4499181.37500  23451547.95300                  -3250379.50440  23451550.46140
 96  9 11  3 53 30.0080000  0  8  3 14 18 19 22 28 29 31
  -2538436.92600  26507634.29700                  -1910792.98340  26507639.88740
  17066132.17900  24827556.03900                  13297794.70340  24827560.01240
 -13294035.68800  23184308.14100                 -10121720.47740  23184310.90640
  -8518949.65200  24709711.68700                  -6269727.46240  24709715.46140
   -907854.38000  24609674.55500                   -417631.77640  24609677.62540
    440481.90600  27152355.93000                    343232.29500  27152359.10900
  -4441450.33100  23462533.75000                  -3205394.28240  23462535.96540
    -22947.32010  27192609.53900
 96  9 11  3 54  0.0080000  0  8  3 14 18 19 22 28 29 31
  -2572648.27700  26501123.90600                  -1937451.17340  26501126.96540
  17191148.65400  24851345.68700                  13395210.10940  24851349.68440
 -13313762.82200  23180554.14800                 -10137092.26140  23180557.06640
  -8548460.47800  24704096.01600                  -6292722.88640  24704099.76640
   -801388.51300  24629934.34400                   -334671.37840  24629937.21540
    461329.95000  27156323.00000                    359477.52900  27156326.05500
  -4383382.77100  23473583.93000                  -3160146.84140  23473586.16840
    -85565.82900  27180692.74200
 96  9 11  3 54 30.0080000  0  8  3 14 18 19 22 28 29 31
  -2606603.56100  26494661.89800                  -1963909.84340  26494663.37540
  17316470.16800  24875194.07800                  13492863.24740  24875197.98040
 -13333162.01800  23176862.73400                 -10152208.51340  23176865.53540
  -8577781.52400  24698516.40600                  -6315570.43140  24698520.15640
   -694556.17700  24650263.94500                   -251425.40040  24650267.30940
    482666.33800  27160382.84400                    376103.32600  27160386.46100
  -4324968.66500  23484699.59400                  -3114629.36240  23484701.77340
   -148236.63600  27168767.11700
 96  9 11  3 55  0.0080000  0  8  3 14 18 19 22 28 29 31
  -2640295.00700  26488250.25800                  -1990162.89540  26488253.98440
  17442113.84500  24899103.25000                  13590767.40840  24899107.04740
 -13352232.57900  23173233.60200                 -10167068.68840  23173236.46140
  -8606919.24700  24692971.34400                  -6338275.12340  24692975.23440
   -587359.77000  24670662.63300                   -167895.72940  24670665.92640
    504497.74000  27164537.60900                    393114.82700  27164540.82000
  -4266189.79500  23495884.71100                  -3068827.65140  23495886.89140
   -210952.35900  27156832.75000                    -40724.86850  27156838.29340
 96  9 11  3 55 30.0080000  0  8  3 14 18 19 22 28 29 31
  -2673725.60700  26481889.17200                  -2016212.69740  26481893.84840
  17568063.81300  24923070.54700                  13688910.22640  24923074.29740
 -13370985.04800  23169665.41400                 -10181680.99940  23169668.23840
  -8635886.27200  24687459.25000                  -6360846.81140  24687462.67240
   -479783.61500  24691133.60200                    -84070.16940  24691137.46940
    526824.09100  27168786.21900                    410512.00900  27168789.41800
  -4207043.26300  23507140.18000                  -3022739.45040  23507142.44140
   -273717.81700  27144888.82800                    -89633.13340  27144890.69140
 96  9 11  3 56  0.0080000  0  8  3 14 18 19 22 28 29 31
  -2706902.09200  26475575.93000                  -2042064.50040  26475579.37540
  17694298.51900  24947092.26600                  13787274.93440  24947095.72340
 -13389429.32700  23166155.35200                 -10196053.16340  23166158.23440
  -8664680.30700  24681980.00000                  -6383283.72140  24681983.41040
   -371826.21700  24711677.53100                        52.48440  24711680.42640
    549643.75300  27173128.38300                    428293.59600  27173131.88300
  -4147529.72700  23518464.97700                  -2976365.27140  23518467.14440
   -336552.63000  27132931.60900                   -138595.25640  27132935.34840
 96  9 11  3 56 30.0080000  0  8  3 14 18 19 22 28 29 31
  -2739812.06700  26469312.59400                  -2067708.63440  26469316.02740
  17820797.65600  24971164.32000                  13885845.68240  24971167.98840
 -13407581.68600  23162701.05500                 -10210197.85540  23162703.79740
  -8693287.72100  24676536.32000                  -6405575.19740  24676539.68440
   -263489.29800  24732293.35900                     84470.85640  24732296.38340
    572959.15200  27177565.17200                    446461.46600  27177568.63700
  -4087651.58100  23529859.64100                  -2929706.97740  23529861.75040
   -399447.90300  27120962.85900                   -187604.63840  27120964.33640
 96  9 11  3 57  0.0080000  0  8  3 14 18 19 22 28 29 31
  -2772443.23800  26463103.58600                  -2093135.52140  26463107.92240
  17947546.88400  24995283.82800                  13984611.31040  24995287.32040
 -13425436.51200  23159303.46100                 -10224110.70340  23159306.08640
  -8721695.02100  24671130.29700                  -6427710.74640  24671134.26940
   -154767.39100  24752982.25000                    169189.22640  24752985.16840
    596772.31400  27182096.76600                    465017.17500  27182100.19900
  -4027419.98700  23541321.21900                  -2882773.27540  23541323.29340
   -462391.38800  27108985.44500                   -236651.43240  27108990.36740
 96  9 11  3 57 30.0080000  0  8  3 14 18 19 22 28 29 31
  -2804801.90300  26456946.46100                  -2118350.03540  26456949.80140
  18074531.19300  25019448.38300                  14083560.11640  25019452.49640
 -13443011.36000  23155959.10900                 -10237805.38440  23155961.81640
  -8749897.39300  24665763.73400                  -6449686.57940  24665767.09840
    -45672.00100  24773742.44500                    254198.61540  24773745.63340
    621080.34700  27186722.45300                    483958.52800  27186725.89100
  -3966833.06200  23552850.68700                  -2835562.68240  23552852.73840
   -525384.26800  27096998.37500                   -285736.70740  27096999.32440
 96  9 11  3 58  0.0080000  0  8  3 14 18 19 22 28 29 31
  -2836889.08900  26450840.05500                  -2143353.02040  26450843.40640
  18201736.51200  25043654.58600                  14182681.14040  25043658.64140
 -13460307.07500  23152667.74200                 -10251282.55640  23152670.47340
  -8777882.69800  24660438.42200                  -6471493.28040  24660441.64440
     63762.42300  24794566.82800                    339472.19340  24794569.38340
    645879.45900  27191441.72700                    503282.53100  27191444.72300
  -3905896.71600  23564446.40600                  -2788079.82140  23564448.53940
   -588427.70100  27085002.12500                   -334861.47140  27085007.22340
 96  9 11  3 58 30.0080000  0  8  3 14 18 19 22 28 29 31
  -2868690.28100  26444788.45300                  -2168133.17440  26444791.74640
  18329163.50900  25067903.29700                  14281974.90840  25067907.23440
 -13477301.65700  23149433.84400                 -10264525.07540  23149436.62140
  -8805658.97600  24655152.47700                  -6493137.11340  24655156.02740
    173524.15300  24815453.92200                    425000.81640  24815457.16840
    671172.63700  27196254.81200                    522991.52800  27196257.47300
  -3844606.17800  23576109.55500                  -2740320.96540  23576111.86340
   -651506.69700  27072997.96900                   -384013.90540  27073003.59440
 96  9 11  3 59  0.0080000  0  8  3 14 18 19 22 28 29 31
  -2900210.28200  26438790.02300                  -2192694.16840  26438793.97340
  18456827.56100  25092196.53900                  14381453.38440  25092200.58240
 -13493982.75700  23146259.63300                 -10277523.32840  23146262.25840
  -8833241.17900  24649903.78100                  -6514629.72640  24649907.60240
    283614.28600  24836403.62500                    510785.33640  24836406.90640
    696962.41200  27201162.60900                    543087.46600  27201165.21500
  -3782957.61100  23587840.96100                  -2692283.12640  23587843.11740
   -714616.25700  27060989.18700                   -433190.33240  27060993.96940
 96  9 11  3 59 30.0080000  0  8  3 14 18 19 22 28 29 31
  -2931445.40100  26432846.32800                  -2217033.22140  26432849.96140
  18584737.00200  25116536.85200                  14481123.08540  25116540.55540
 -13510347.07700  23143145.63300                 -10290274.73840  23143148.26940
  -8860644.39500  24644689.12500                  -6535982.86940  24644692.92240
    394037.73500  24857416.31200                    596829.58640  24857419.66440
    723257.11700  27206166.69500                    563576.88500  27206169.01600
  -3720937.89500  23599643.01600                  -2643956.07240  23599645.10240
   -777749.53800  27048974.94500                   -482384.84540  27048976.43440
 96  9 11  4  0  0.0080000  0  8  3 14 18 19 22 28 29 31
  -2962395.32300  26426957.38300                  -2241150.00940  26426959.49240
  18712878.56800  25140921.43000                  14580973.66240  25140925.14440
 -13526394.51300  23140091.72700                 -10302779.22840  23140094.39840
  -8887892.21500  24639504.20300                  -6557214.92440  24639507.70740
    504789.96500  24878492.03100                    683130.03040  24878495.20740
    750041.74700  27211263.57800                    584448.02500  27211265.92200
  -3658568.08700  23611511.53100                  -2595356.23240  23611513.86340
   -840911.55400  27036955.10900                   -531602.08240  27036956.80940
 96  9 11  4  0 30.0080000  0  8  3 14 18 19 22 28 29 31
  -2993046.39700  26421124.50800                  -2265033.94440  26421127.41440
  18841271.15200  25165353.71900                  14681019.81140  25165358.23040
 -13542105.10500  23137102.23400                 -10315021.23740  23137105.05940
  -8914982.78200  24634349.07800                  -6578324.43240  24634352.62940
    615899.01600  24899635.46100                    769708.50940  24899638.56640
    777325.70000  27216455.50000                    605708.26000  27216458.12500
  -3595842.70700  23623447.83600                  -2546479.31640  23623449.91040
   -904085.49100  27024934.25000                   -580828.49140  27024936.40640
 96  9 11  4  1  0.0080000  0  8  3 14 18 19 22 28 29 31
  -3023400.66700  26415347.86700                  -2288686.62840  26415350.04740
  18969903.20800  25189831.73400                  14781252.58140  25189835.40240
 -13557492.19800  23134174.00000                 -10327011.17340  23134176.75440
  -8941913.35800  24629224.25800                  -6599309.28340  24629227.83240
    727373.15800  24920847.86700                    856571.48740  24920850.68040
    805109.09200  27221742.25800                    627357.66700  27221744.82400
  -3532767.86200  23635450.53900                  -2497330.09440  23635452.69540
   -967277.42400  27012908.71100                   -630068.98440  27012910.93740
 96  9 11  4  1 30.0080000  0  9  3 14 18 19 22 27 28 29 31
  -3053460.85700  26409627.43700                  -2312110.13140  26409631.19940
  19098755.00100  25214351.53900                  14881656.57040  25214355.34840
 -13572562.99000  23131306.27300                 -10338754.63740  23131309.13340
  -8968666.13100  24624133.59400                  -6620155.57740  24624137.66040
    839213.32100  24942130.47700                    943719.66240  24942133.11340
    -38879.89510  27620950.37500
    833389.00600  27227122.71900                    649393.98300  27227126.53500
  -3469349.59900  23647518.56200                  -2447913.27440  23647520.76640
  -1030484.00900  27000881.32800                   -679320.87940  27000886.15640
 96  9 11  4  2  0.0080000  0  9  3 14 18 19 22 27 28 29 31
  -3083227.74500  26403962.92200                  -2335305.09940  26403966.39140
  19227838.26300  25238914.99200                  14982240.93140  25238918.44940
 -13587294.66300  23128502.78900                 -10350233.85640  23128505.50840
  -8995210.97400  24619082.15600                  -6640839.85440  24619085.50840
    951422.44100  24963482.88300                   1031155.34340  24963485.73040
    -89542.93500  27611308.70300
    862171.39400  27232600.15600                    671821.84200  27232603.78500
  -3405584.98800  23659652.46900                  -2398226.56540  23659654.89440
  -1093707.54200  26988849.55500                   -728585.97940  26988850.30540
 96  9 11  4  2 30.0080000  0  9  3 14 18 19 22 27 28 29 31
  -3112723.81600  26398350.45300                  -2358289.03140  26398354.83640
  19357136.23300  25263519.63300                  15082992.58740  25263523.28940
 -13601703.44100  23125760.91400                 -10361461.46940  23125763.65640
  -9021558.43500  24614068.27300                  -6661370.32840  24614071.96540
   1063976.83000  24984901.53900                   1118860.06440  24984904.08240
   -140167.46800  27601675.90600
    891444.99600  27238171.12500                    694632.44500  27238174.18700
  -3341491.84500  23671849.06200                  -2348283.86440  23671851.26640
  -1156970.64000  26976812.11700                   -777881.84840  26976817.36740
 96  9 11  4  3  0.0080000  0  9  3 14 18 19 22 27 28 29 31
  -3141933.45400  26392791.44500                  -2381049.77240  26392794.38740
  19486659.13200  25288167.07000                  15183919.53140  25288171.54740
 -13615795.88200  23123079.21900                 -10372442.58140  23123082.03140
  -9047700.16900  24609093.80500                  -6681740.47540  24609097.34440
   1176885.27900  25006387.18700                   1206840.66840  25006390.08240
   -190725.98300  27592054.50800
    921224.57100  27243838.05500                    717837.32500  27243840.78900
  -3277048.67700  23684112.29700                  -2298068.41040  23684114.45340
  -1220252.96100  26964769.98400                   -827192.71440  26964771.94140
 96  9 11  4  3 30.0080000  0  9  3 14 18 19 22 27 28 29 31
  -3170849.73700  26387289.25000                  -2403581.91940  26387293.01240
  19616416.73700  25312859.21100                  15285029.33840  25312863.61740
 -13629566.14600  23120458.69500                 -10383172.65040  23120461.44940
  -9073640.59900  24604157.50000                  -6701953.80140  24604161.05140
   1290136.89200  25027938.68700                   1295088.69140  25027941.54740
   -241227.22600  27582445.43700
    951507.25800  27249600.57000                    741434.22800  27249603.59800
  -3212252.51900  23696442.57000                  -2247577.90740  23696444.86740
  -1283551.97000  26952724.72700                   -876516.55840  26952730.15240
 96  9 11  4  4  0.0080000  0  9  3 14 18 19 22 27 28 29 31
  -3199453.69100  26381846.30500                  -2425870.68540  26381849.77340
  19746404.92100  25337595.11700                  15386318.83440  25337599.48840
 -13643002.86400  23117902.01600                 -10393642.81540  23117904.72340
  -9099409.57800  24599253.69500                  -6722033.51240  24599257.36340
   1403713.91000  25049551.03900                   1383590.27940  25049554.00440
   -291679.14100  27572844.14100
    982291.31400  27255458.78900                    765421.82900  27255461.57400
  -3147100.40100  23708840.46900                  -2196810.02240  23708842.57840
  -1346870.01800  26940675.22700                   -925855.30640  26940676.34040
 96  9 11  4  4 30.0080000  0  9  3 14 18 19 22 27 28 29 31
  -3227717.12600  26376468.28100                  -2447894.12340  26376471.11740
  19876615.93700  25362373.34400                  15487781.96040  25362377.14140
 -13656102.06900  23115409.03900                 -10403849.97640  23115411.82840
  -9125010.90700  24594381.96900                  -6741982.58540  24594385.57840
   1517621.40300  25071227.11700                   1472349.36740  25071230.36340
   -342064.36100  27563255.86700
   1013585.23400  27261413.40600                    789806.70700  27261416.61300
  -3081582.70000  23721308.03900                  -2145757.27140  23721310.26640
  -1410169.65200  26928629.58600                   -975179.70240  26928633.37140
 96  9 11  4  5  0.0080000  0  9  3 14 18 19 22 27 28 29 31
  -3255633.26700  26371155.49200                  -2469646.93940  26371159.72340
  20007035.46400  25387191.17200                  15589407.56440  25387195.33240
 -13668862.01400  23112980.96100                 -10413792.77740  23112983.60940
  -9150446.42000  24589541.70300                  -6761802.45140  24589544.79740
   1631841.07400  25092962.25800                   1561351.71040  25092965.29340
   -392388.17700  27553679.78900                    -19600.85650  27553678.94540
   1045379.81600  27267464.22700                    814581.70200  27267466.84400
  -3015692.13200  23733846.70300                  -2094413.96840  23733849.03540
  -1473440.32500  26916589.39100                  -1024481.48040  26916593.35240
 96  9 11  4  5 30.0080000  0  9  3 14 18 19 22 27 28 29 31
  -3283202.58900  26365909.60200                  -2491129.51840  26365913.07040
  20137656.30200  25412047.95300                  15691190.03540  25412051.65640
 -13681253.20200  23110622.96900                 -10423448.22840  23110625.76940
  -9175702.92400  24584735.37500                  -6781482.82140  24584738.84440
   1746360.93700  25114754.80500                   1650587.97140  25114757.75840
   -442673.45400  27544110.41400                    -58784.24140  27544116.05140
   1077672.87900  27273608.70300                    839745.14300  27273612.18400
  -2949434.51800  23746455.00000                  -2042784.65440  23746457.30940
  -1536683.96700  26904554.69500                  -1073762.26040  26904559.30140
 96  9 11  4  6  0.0080000  0  9  3 14 18 19 22 27 28 29 31
  -3310433.04000  26360727.18700                  -2512348.02740  26360731.05540
  20268472.73700  25436941.34400                  15793124.90740  25436945.30540
 -13693265.29100  23108337.34400                 -10432808.28840  23108340.18040
  -9200765.91000  24579966.24200                  -6801012.40540  24579970.06240
   1861188.46900  25136605.85900                   1740063.98640  25136609.05940
   -492905.43400  27534551.31200                    -97925.94240  27534551.89840
   1110470.79900  27279850.39100                    865301.97500  27279853.11700
  -2882804.99700  23759134.27300                  -1990865.55140  23759136.34840
  -1599888.39800  26892527.24200                  -1123012.43340  26892529.32840
 96  9 11  4  6 30.0080000  0  9  3 14 18 19 22 27 28 29 31
  -3337361.26400  26355603.57800                  -2533331.04940  26355607.25840
  20399474.25900  25461870.18700                  15895204.00740  25461874.16040
 -13704926.53400  23106118.09400                 -10441894.96740  23106120.85940
  -9225621.85900  24575236.30500                  -6820380.66540  24575239.58640
   1976312.42900  25158513.26600                   1829770.97840  25158516.96940
   -543090.56600  27525002.02300                   -137031.34140  27525007.50840
   1143761.79200  27286184.85200                    891243.02000  27286188.23800
  -2815813.68700  23771882.22700                  -1938664.52340  23771884.40640
  -1663071.53100  26880503.53900                  -1172246.00840  26880506.59840
 96  9 11  4  7  0.0080000  0  9  3 14 18 19 22 27 28 29 31
  -3364001.19000  26350533.87500                  -2554089.41740  26350537.10940
  20530675.55300  25486836.82800                  15997438.78640  25486840.70740
 -13716242.46300  23103964.89100                 -10450712.56840  23103967.60940
  -9250272.08900  24570545.29700                  -6839588.62240  24570548.96540
   2091735.80800  25180477.53100                   1919711.27140  25180480.50840
   -593223.34100  27515462.23400
   1177548.05800  27292614.82000                    917569.98700  27292617.88300
  -2748462.82700  23784698.78900                  -1886183.33440  23784700.93440
  -1726256.62700  26868480.17200                  -1221481.06640  26868481.77740
 96  9 11  4  7 30.0080000  0  9  3 14 18 19 22 27 28 29 31
  -3390353.57300  26345519.53900                  -2574623.72240  26345522.53940
  20662085.07100  25511843.10200                  16099835.83240  25511847.16840
 -13727215.40900  23101876.69500                 -10459262.89840  23101879.47340
  -9274717.81000  24565893.13300                  -6858637.20740  24565896.59040
   2207469.48400  25202501.07800                   2009893.36440  25202504.25440
   -643297.97300  27505933.09400
   1211839.83600  27299139.93700                    944290.85200  27299142.85200
  -2680756.34600  23797582.75000                  -1833425.03640  23797584.83640
  -1789443.65600  26856456.25800                  -1270717.74240  26856459.56240
 96  9 11  4  8  0.0080000  0  9  3 14 18 19 22 27 28 29 31
  -3416417.31400  26340559.97700                  -2594933.10140  26340563.01240
  20793683.77400  25536885.71100                  16202380.26940  25536889.28540
 -13737868.36900  23099849.52300                 -10467563.89040  23099852.32440
  -9298979.90200  24561276.46900                  -6877542.71040  24561279.89140
   2323493.89400  25224579.78100                   2100301.98840  25224582.76940
   -693305.33900  27496416.78100                    -11683.61050  27496423.32040
   1246629.80300  27305760.78900                    971399.92600  27305763.40600
  -2612705.33800  23810532.60900                  -1780398.27540  23810534.63740
  -1852638.88300  26844430.43000                  -1319960.80640  26844434.82440
 96  9 11  4  8 30.0090000  0  9  3 14 18 19 22 27 28 29 31
  -3442165.47400  26335659.42700                  -2614996.57540  26335663.39940
  20925480.97200  25561965.88000                  16305079.36740  25561970.04040
 -13748201.80000  23097883.20800                 -10475615.91740  23097885.84540
  -9323065.05300  24556693.44200                  -6896310.33940  24556696.85240
   2439802.55900  25246712.44200                   2190932.14140  25246715.78240
   -743245.00000  27486913.16900                    -50597.57740  27486914.77440
   1281921.86400  27312476.26300                    998900.25000  27312478.80600
  -2544311.06300  23823547.38800                  -1727104.02340  23823549.42740
  -1915841.55200  26832403.21600                  -1369209.59540  26832405.73540
 96  9 11  4  9  0.0090000  0  9  3 14 18 19 22 27 28 29 31
  -3467568.67500  26330825.45000                  -2634791.28140  26330826.90340
  21057477.96500  25587083.30200                  16407934.14640  25587087.23940
 -13758180.58900  23095984.45800                 -10483391.59440  23095987.07140
  -9346975.66700  24552143.34100                  -6914941.98340  24552147.10240
   2556399.36400  25268900.11400                   2281786.81640  25268903.07940
   -793105.89000  27477424.65300                    -89450.07340  27477436.61040
   1317727.22900  27319290.45800                   1026800.53600  27319292.27400
  -2475570.11400  23836628.62200                  -1673539.63240  23836630.93140
  -1979024.72100  26820379.52800                  -1418443.18940  26820383.50140
 96  9 11  4  9 30.0090000  0  9  3 14 18 19 22 27 28 29 31
  -3492622.60700  26326058.41100                  -2654313.80340  26326061.25940
  21189642.45800  25612234.29400                  16510919.45540  25612238.54840
 -13767817.60000  23094150.42700                 -10490900.94740  23094153.04040
  -9370720.60100  24547624.59900                  -6933444.51040  24547627.89240
   2673272.04300  25291140.12200                   2372856.43140  25291143.12240
   -842909.19500  27467947.11400                   -128257.85040  27467947.44240
   1354033.76800  27326198.38800                   1055091.36800  27326200.73900
  -2406492.28200  23849773.64500                  -1619712.74140  23849775.96640
  -2042200.86900  26808358.28600                  -1467671.36740  26808360.38440
 96  9 11  4 10  0.0090000  0  9  3 14 18 19 22 27 28 29 31
  -3517314.17800  26321359.45000                  -2673553.96140  26321361.02040
  21321973.28900  25637415.42700                  16614034.36740  25637419.69240
 -13777100.55500  23092383.87200                 -10498134.40740  23092386.60240
  -9394288.75700  24543139.88800                  -6951809.28840  24543143.28640
   2790430.79800  25313435.20000                   2464148.99840  25313438.28240
   -892636.01400  27458484.95800                   -167005.97840  27458489.54040
   1390844.98200  27333204.20000                   1083775.43500  27333205.01700
  -2337071.36500  23862983.84100                  -1565618.51340  23862986.07940
  -2105371.17200  26796337.05200                  -1516894.97040  26796339.75940
 96  9 11  4 10 30.0090000  0  9  3 14 18 19 22 27 28 29 31
  -3541646.24300  26316729.03600                  -2692513.99140  26316731.50940
  21454475.36500  25662630.13000                  16717282.74440  25662634.48940
 -13786028.72100  23090684.94200                 -10505091.41440  23090687.69640
  -9417681.95000  24538688.20000                  -6970037.73140  24538691.68140
   2907897.67200  25335788.26300                   2555681.62240  25335791.31040
   -942294.44900  27449036.16900                   -205700.80640  27449036.77840
   1428160.82300  27340304.45800                   1112852.74700  27340306.61400
  -2267302.40400  23876260.51300                  -1511253.08540  23876262.78640
  -2168531.69900  26784318.08300                  -1566110.93340  26784322.37240
 96  9 11  4 11  0.0090000  0  9  3 14 18 19 22 27 28 29 31
  -3565628.82000  26312165.45800                  -2711201.68940  26312168.25940
  21587130.94300  25687873.90300                  16820650.70540  25687878.02840
 -13794609.72900  23089052.01300                 -10511777.90240  23089054.56740
  -9440900.57600  24534269.86400                  -6988130.14440  24534273.55640
   3025685.85200  25358202.34100                   2647464.63040  25358205.00140
   -991898.06800  27439594.88800                   -244352.92540  27439599.43540
   1465977.88000  27347500.95000                   1142320.57800  27347501.87600
  -2197182.15100  23889603.98100                  -1456613.92140  23889606.37240
  -2231674.63100  26772301.77000                  -1615313.22540  26772307.32540
 96  9 11  4 11 30.0090000  0  9  3 14 18 19 22 27 28 29 31
  -3589245.33700  26307671.10600                  -2729604.16240  26307674.24740
  21719935.23400  25713145.39500                  16924134.56640  25713149.67340
 -13802840.90100  23087485.58300                 -10518191.79740  23087488.22040
  -9463925.22900  24529888.34900                  -7006071.38440  24529891.85240
   3143798.87700  25380678.84100                   2739500.77440  25380681.66540
  -1041436.27600  27430168.80200                   -282954.12440  27430173.03240
   1504302.88300  27354793.61400                   1172184.24500  27354795.59100
  -2126710.14800  23903014.39500                  -1401700.67240  23903016.83340
  -2294778.68300  26760293.36400                  -1664485.16940  26760296.93840
 96  9 11  4 12  0.0090000  0  9  3 14 18 19 22 27 28 29 31
  -3612514.06200  26303243.48900                  -2747735.58340  26303247.14540
  21852906.87200  25738449.68500                  17027748.83040  25738453.63440
 -13810703.72900  23085989.58300                 -10524318.66940  23085992.20840
  -9486758.06300  24525543.38800                  -7023863.20640  24525546.95040
   3262228.91000  25403215.04400                   2831783.92140  25403217.78640
  -1090918.10900  27420752.34900                   -321511.34740  27420754.79840
   1543134.36400  27362182.33300                   1202442.53900  27362184.80200
  -2055889.70200  23916490.85600                  -1346515.91340  23916493.07140
  -2357820.74800  26748297.80200                  -1713608.86940  26748299.85240
 96  9 11  4 12 30.0090000  0  9  3 14 18 19 22 27 28 29 31
  -3635443.10800  26298879.62200                  -2765602.38040  26298883.38440
  21986051.90300  25763785.60600                  17131498.18640  25763788.84140
 -13818204.86100  23084561.99700                 -10530163.70640  23084564.75140
  -9509410.40000  24521232.70000                  -7041514.34740  24521236.14540
   3380960.37200  25425808.84900                   2924301.96040  25425812.13040
  -1140354.97600  27411344.21600                   -360033.51340  27411348.43540
   1582471.68200  27369668.86400                   1233094.99000  27369671.05600
  -1984713.57200  23930035.64500                  -1291053.98740  23930037.63840
  -2420786.40300  26736315.13800                  -1762672.99940  26736318.52440
 96  9 11  4 13  0.0090000  0  9  3 14 18 19 22 27 28 29 31
  -3658025.35700  26294582.55200                  -2783198.86540  26294586.11440
  22119372.40300  25789156.03600                  17235384.25840  25789160.22040
 -13825329.49200  23083206.34100                 -10535715.36340  23083208.98940
  -9531867.77600  24516959.27000                  -7059013.59040  24516962.97440
   3499965.33500  25448454.86400                   3017033.11740  25448458.27440
  -1189737.66500  27401948.31700                   -398513.50740  27401949.65340
   1622319.87300  27377251.95000                   1264145.53500  27377253.90300
  -1913174.43800  23943648.75500                  -1235309.21040  23943650.87640
  -2483678.31200  26724347.25500                  -1811679.65040  26724351.49740
 96  9 11  4 13 30.0090000  0  9  3 14 18 19 22 27 28 29 31
  -3680258.43200  26290351.79400
  22252880.75300  25814561.50500                  17339416.73540  25814565.33740
 -13832065.67200  23081924.57500                 -10540964.32940  23081927.23540
  -9554127.74100  24512723.29400                  -7076358.99240  24512726.82140
   3619223.76000  25471149.13800                   3109961.76540  25471152.11440
  -1239052.29000  27392563.70000                   -436940.42040  27392572.37640
   1662683.89300  27384932.75500                   1295598.01200  27384935.06300
  -1841263.10600  23957333.26300                  -1179274.40340  23957335.66540
  -2546503.66300  26712391.99700                  -1860634.47040  26712393.60240
 96  9 11  4 14  0.0090000  0  9  3 14 18 19 22 27 28 29 31
  -3702150.43800  26286186.15300                    -13625.03850  26286190.02040
  22386578.89600  25840003.84100                  17443597.10140  25840008.28240
 -13838427.54800  23080713.70800                 -10545921.64140  23080716.46240
  -9576204.11000  24508522.34100                  -7093561.34240  24508525.95040
   3738719.72100  25493888.02800                   3203075.52040  25493890.32540
  -1288301.54600  27383192.27800                   -475316.47940  27383192.34940
   1703560.42900  27392710.80200                   1327449.87600  27392713.49700
  -1768961.53700  23971091.41100                  -1122935.51540  23971093.86040
  -2609281.77900  26700445.70800                  -1909552.44040  26700450.53640
 96  9 11  4 14 30.0090000  0  9  3 14 18 19 22 27 28 29 31
  -3723682.30500  26282089.05200                    -30403.10940  26282091.04440
  22520433.54000  25865475.22400                  17547899.39240  25865479.05640
 -13844430.02700  23079571.40300                 -10550598.90540  23079574.15740
  -9598107.43800  24504354.36400                  -7110628.85540  24504357.88040
   3858440.69000  25516670.16100                   3296364.60540  25516673.16140
  -1337481.17300  27373834.42700                   -513638.19340  27373840.36840
   1744945.52000  27400586.65300                   1359697.99200  27400589.57500
  -1696266.69700  23984925.16100                  -1066290.18940  23984927.32940
  -2672017.34000  26688507.92700                  -1958437.30140  26688509.73140
 96  9 11  4 15  0.0090000  0  9  3 14 18 19 22 27 28 29 31
  -3744841.14900  26278062.23900                    -46890.50140  26278065.07540
  22654429.24900  25890974.06700                  17652311.62240  25890978.15740
 -13850059.77600  23078500.13800                 -10554985.73640  23078502.86840
  -9619830.06600  24500220.63000                  -7127555.54240  24500224.02840
   3978395.55900  25539497.13000                   3389835.92740  25539500.02440
  -1386599.43500  27364486.61400                   -551912.13840  27364494.90340
   1786838.56700  27408558.52000                   1392341.92700  27408561.34100
  -1623198.03200  23998829.44200                  -1009353.56840  23998831.84540
  -2734693.63200  26676580.77800                  -2007275.92340  26676583.41540
 96  9 11  4 15 30.0090000  0  9  3 14 18 19 22 27 28 29 31
  -3765637.77200  26274104.87200                    -63095.63040  26274109.20840
  22788558.33000  25916497.81700                  17756827.79740  25916502.62240
 -13855325.55900  23077498.20800                 -10559088.96240  23077500.90340
  -9641391.24700  24496117.72400                  -7144356.44840  24496121.07540
   4098597.59000  25562370.47400                   3483499.87240  25562373.55640
  -1435674.68600  27355148.22400                   -590152.54240  27355150.88440
   1829231.71900  27416625.75500                   1425375.54600  27416628.45000
  -1549774.91100  24012801.53600                   -952140.74340  24012803.75140
  -2797301.49600  26664666.68500                  -2056061.27840  26664669.87240
 96  9 11  4 16  0.0090000  0  9  3 14 18 19 22 27 28 29 31
  -3786060.11900  26270218.51300                    -79009.11840  26270221.77040
  22922822.30000  25942047.52000                  17861449.05740  25942052.12640
 -13860213.98600  23076568.02000                 -10562898.12340  23076570.77440
  -9662788.49300  24492045.87200                  -7161029.59240  24492049.65740
   4219058.22100  25585293.35600                   3577365.30740  25585296.52040
  -1484708.79800  27345816.72400                   -628360.88740  27345823.38040
   1872128.90600  27424788.96600                   1458801.91900  27424792.20000
  -1476008.24900  24026838.94200                   -894660.22240  24026841.18140
  -2859814.82900  26652770.09100                  -2104772.94340  26652774.21640
 96  9 11  4 16 30.0090000  0  9  3 14 18 19 22 27 28 29 31
  -3806088.98100  26266407.37200                    -94616.02140  26266410.32540
  23057230.73900  25967624.22400                  17966182.88840  25967628.23140
 -13864704.72500  23075713.34100                 -10566397.39440  23075715.96640
  -9684002.81900  24488008.84900                  -7177560.18640  24488012.54040
   4339799.14000  25608269.40300                   3671449.14340  25608271.79440
  -1533700.50800  27336493.96600                   -666536.22540  27336498.22040
   1915541.00200  27433050.64500                   1492629.54800  27433052.75500
  -1401904.00900  24040940.35600                   -836916.65640  24040942.57140
  -2922207.55200  26640897.92700                  -2153390.64340  26640901.64240
 96  9 11  4 17  0.0090000  0  9  3 14 18 19 22 27 28 29 31
  -3825733.33800  26262668.95800                   -109923.28240  26262672.09940
  23191794.39100  25993230.68500                  18071037.69940  25993234.28240
 -13868807.94300  23074932.45000                 -10569594.71540  23074935.01740
  -9705028.94900  24484007.56700                  -7193944.17240  24484010.93140
   4460818.64800  25631298.74700                   3765750.07540  25631301.46640
  -1582650.40500  27327179.19200                   -704678.89340  27327182.61440
   1959466.02500  27441408.21600                   1526856.83400  27441411.36800
  -1327460.56100  24055106.45000                   -778908.77340  24055108.58340
  -2984500.55600  26629043.20800                  -2201930.59440  26629047.84940
 96  9 11  4 17 30.0090000  0  9  3 14 18 19 22 27 28 29 31
  -3845004.56100  26259001.39500                   -124939.80940  26259003.89240
  23326504.12400  26018865.38000                  18176006.31940  26018869.55240
 -13872543.54600  23074221.89500                 -10572505.56740  23074224.53240
  -9725872.76000  24480041.26300                  -7210186.08340  24480044.83740
   4582090.52500  25654376.05200                   3860247.64840  25654378.75940
  -1631555.56200  27317872.98100                   -742786.77640  27317876.84940
   2003895.63800  27449862.99700                   1561477.31400  27449865.52800
  -1252665.29600  24069339.49700                   -720626.74640  24069341.57140
  -3046724.21100  26617203.00500                  -2250416.50940  26617206.53240
 96  9 11  4 18  0.0090000  0  9  3 14 18 19 22 27 28 29 31
  -3863887.47500  26255408.27000                   -139653.72940  26255411.77440
  23461348.24800  26044525.45800                  18281079.65240  26044529.10240
 -13875915.30800  23073580.17700                 -10575132.91740  23073582.76740
  -9746524.58900  24476111.24700                  -7226278.38540  24476114.58740
   4703612.18800  25677500.88800                   3954939.84540  25677503.81740
  -1680396.87300  27308578.63000                   -780844.86040  27308583.44640
   2048833.46300  27458414.84100                   1596493.80000  27458416.77400
  -1177501.20600  24083642.70800                   -662057.33540  24083644.86440
  -3108878.20500  26605376.09100                  -2298848.17740  26605381.01340
 96  9 11  4 18 30.0090000  0  9  3 14 18 19 22 27 28 29 31
  -3882382.17500  26251888.57500                   -154065.16140  26251891.63440
  23596321.61800  26070210.05200                  18386253.70940  26070213.00540
 -13878930.25900  23073006.10600                 -10577482.22240  23073008.84940
  -9766972.10900  24472220.48900                  -7242211.47840  24472224.02840
   4825385.02800  25700673.75500                   4049827.76940  25700676.70840
  -1729161.23900  27299298.77800                   -818843.05140  27299302.65740
   2094281.69900  27467063.56700                   1631908.03000  27467065.66500
  -1101953.63900  24098018.83300                   -603189.10740  24098021.14240
  -3170980.51000  26593558.31000                  -2347239.56640  26593561.26340
 96  9 11  4 19  0.0090000  0  9  3 14 18 19 22 27 28 29 31
  -3900502.97600  26248440.50500                   -168185.24040  26248444.39540
  23731410.33100  26095916.34900                  18491517.62940  26095920.00540
 -13881590.31000  23072500.28600                 -10579554.98640  23072502.95840
  -9787227.15200  24468365.86400                  -7257994.61640  24468369.79040
   4947407.36600  25723892.95800                   4144910.13940  25723895.70040
  -1777846.21700  27290034.23100                   -856779.34940  27290040.57140
   2140233.58900  27475807.45000                   1667714.70100  27475809.97000
  -1026029.26600  24112466.87200                   -544027.26340  24112469.04040
  -3233035.67500  26581749.41900                  -2395594.20840  26581753.63840
 96  9 11  4 19 30.0090000  0  9  3 14 18 19 22 27 28 29 31
  -3918236.06600  26245065.99700                   -182003.23040  26245068.93840
  23866620.85200  26121646.16900                  18596876.46740  26121649.20440
 -13883864.61800  23072067.38000                 -10581327.17840  23072070.09940
  -9807282.44200  24464549.29400                  -7273622.06740  24464552.70440
   5069691.80300  25747163.60600                   4240196.70440  25747166.59540
  -1826446.21100  27280786.37200                   -894649.38840  27280789.92340
   2186699.96000  27484648.76300                   1703922.25400  27484651.91100
   -949731.91600  24126985.65300                   -484574.79340  24126987.88040
  -3295006.30000  26569956.73100                  -2443882.98940  26569960.25940
 96  9 11  4 20  0.0090000  0  9  3 14 18 19 22 27 28 29 31
  -3935581.80000  26241765.37200                   -195519.36440  26241768.47740
  24001955.01000  26147399.80200                  18702331.67440  26147403.66940
 -13885740.25500  23071710.21600                 -10582788.71940  23071712.88840
  -9827144.83800  24460769.86400                  -7289099.24640  24460773.29840
   5192237.34000  25770483.02000                   4335686.73140  25770486.29040
  -1874970.65600  27271551.71600                   -932460.63340  27271555.27840
   2233676.45800  27493588.81700                   1740527.31700  27493591.11000
   -873075.77800  24141572.97400                   -424842.74740  24141575.24740
  -3356880.84900  26558181.79400                  -2492096.90340  26558185.25140
